[[{"header":{"parameterUnit":"m.s-1","parameterCategory":1,"la1":31.0,"la2":29.5877,"lo1":-88.7671,"lo2":-86.6584,"dx":0.0162,"dy":0.0185,"nx":115,"ny":88,"refTime":"2022-11-15T06:00:00:Z","depth":0,"parameterNumber":2,"parameterNumberName":"U-component_of_WINDS"},"data":[0.0,0.0,0.0,0.0,0.0,0.0,0.0,0.0,0.0,0.0,0.0,0.0,0.0,0.0,0.0,0.0,0.0,0.0,0.0,0.0,0.0,0.0,0.0,0.0,0.0,0.0,0.0,0.0,0.0,0.0,0.0,0.0,0.0,0.0,0.0,0.0,0.0,0.0,0.0,0.0,0.0,0.0,0.0,0.0,0.0,0.0,0.0,0.0,0.0,0.0,0.0,0.0,0.0,0.0,0.0,0.0,0.0,0.0,0.0,0.0,0.0,0.0,0.0,0.0,0.0,0.0,0.0,0.0,0.0,0.0,0.0,0.0,0.0,0.0,0.0,0.0,0.0,0.0,0.0,0.0,0.0,0.0,0.0,0.0,0.0,0.0,0.0,0.0,0.0,0.0,0.0,0.0,0.0,0.0,0.0,0.0,0.0,0.0,0.0,0.0,0.0,0.0,0.0,0.0,0.0,0.0,0.0,0.0,0.0,0.0,0.0,0.0,0.0,0.0,0.0,0.0,0.0,0.0,0.0,0.0,0.0,0.0,0.0,0.0,0.0,0.0,0.0,0.0,0.0,0.0,0.0,0.0,0.0,0.0,0.0,0.0,0.0,0.0,0.0,0.0,0.0,0.0,0.0,0.0,0.0,0.0,0.0,0.0,0.0,0.0,0.0,0.0,0.0,0.0,0.0,0.0,0.0,0.0,0.0,0.0,0.0,0.0,0.0,0.0,0.0,0.0,0.0,0.0,0.0,0.0,0.0,0.0,0.0,0.0,0.0,0.0,0.0,0.0,0.0,0.0,0.0,0.0,0.0,0.0,0.0,0.0,0.0,0.0,0.0,0.0,0.0,0.0,0.0,0.0,0.0,0.0,0.0,0.0,0.0,0.0,0.0,0.0,0.0,0.0,0.0,0.0,0.0,0.0,0.0,0.0,0.0,0.0,0.0,0.0,0.0,0.0,0.0,0.0,0.0,0.0,0.0,0.0,0.0,0.0,0.0,0.0,0.0,0.0,0.0,0.0,0.0,0.0,0.0,0.0,0.0,0.0,0.0,0.0,0.0,0.0,0.0,0.0,0.0,0.0,0.0,0.0,0.0,0.0,0.0,0.0,0.0,0.0,0.0,0.0,0.0,0.0,0.0,0.0,0.0,0.0,0.0,0.0,0.0,0.0,0.0,0.0,0.0,0.0,0.0,0.0,0.0,0.0,0.0,0.0,0.0,0.0,0.0,0.0,0.0,0.0,0.0,0.0,0.0,0.0,0.0,0.0,0.0,0.0,0.0,0.0,0.0,0.0,0.0,0.0,0.0,0.0,0.0,0.0,0.0,0.0,0.0,0.0,0.0,0.0,0.0,0.0,0.0,0.0,0.0,0.0,0.0,0.0,0.0,0.0,0.0,0.0,0.0,0.0,0.0,0.0,0.0,0.0,0.0,0.0,0.0,0.0,0.0,0.0,0.0,0.0,0.0,0.0,0.0,0.0,0.0,0.0,0.0,0.0,0.0,0.0,0.0,0.0,0.0,0.0,0.0,0.0,0.0,0.0,0.0,0.0,0.0,0.0,0.0,0.0,0.0,0.0,0.0,0.0,0.0,0.0,0.0,0.0,0.0,0.0,0.0,0.0,0.0,0.0,0.0,0.0,0.0,0.0,0.0,0.0,0.0,0.0,0.0,0.0,0.0,0.0,0.0,0.0,0.0,0.0,0.0,0.0,0.0,0.0,0.0,0.0,0.0,0.0,0.0,0.0,0.0,0.0,0.0,0.0,0.0,0.0,0.0,0.0,0.0,0.0,0.0,0.0,0.0,0.0,0.0,0.0,0.0,0.0,0.0,0.0,0.0,0.0,0.0,0.0,0.0,0.0,0.0,0.0,0.0,0.0,0.0,0.0,0.0,0.0,0.0,0.0,0.0,0.0,0.0,0.0,0.0,0.0,0.0,0.0,0.0,0.0,0.0,0.0,0.0,0.0,0.0,0.0,0.0,0.0,0.0,0.0,0.0,0.0,0.0,0.0,0.0,0.0,0.0,0.0,0.0,0.0,0.0,0.0,0.0,0.0,0.0,0.0,0.0,0.0,0.0,0.0,0.0,0.0,0.0,0.0,0.0,0.0,0.0,0.0,0.0,0.0,0.0,0.0,0.0,0.0,0.0,0.0,0.0,0.0,0.0,0.0,0.0,0.0,0.0,0.0,0.0,0.0,0.0,0.0,0.0,0.0,0.0,0.0,0.0,0.0,0.0,0.0,0.0,0.0,0.0,0.0,0.0,0.0,0.0,0.0,0.0,0.0,0.0,0.0,0.0,0.0,0.0,0.0,0.0,0.0,0.0,0.0,0.0,0.0,0.0,0.0,0.0,0.0,0.0,0.0,0.0,0.0,0.0,0.0,0.0,0.0,0.0,0.0,0.0,0.0,0.0,0.0,0.0,0.0,0.0,0.0,0.0,0.0,0.0,0.0,0.0,0.0,0.0,0.0,0.0,0.0,0.0,0.0,0.0,0.0,0.0,0.0,0.0,0.0,0.0,0.0,0.0,0.0,0.0,0.0,0.0,0.0,0.0,0.0,0.0,0.0,0.0,0.0,0.0,0.0,0.0,0.0,0.0,0.0,0.0,0.0,0.0,0.0,0.0,0.0,0.0,0.0,0.0,0.0,0.0,0.0,0.0,0.0,0.0,0.0,0.0,0.0,0.0,0.0,0.0,0.0,0.0,0.0,0.0,0.0,0.0,0.0,0.0,0.0,0.0,0.0,0.0,0.0,0.0,0.0,0.0,0.0,0.0,0.0,0.0,0.0,0.0,0.0,0.0,0.0,0.0,0.0,0.0,0.0,0.0,0.0,0.0,0.0,0.0,0.0,0.0,0.0,0.0,0.0,0.0,0.0,0.0,0.0,0.0,0.0,0.0,0.0,0.0,0.0,0.0,0.0,0.0,0.0,0.0,0.0,0.0,0.0,0.0,0.0,0.0,0.0,0.0,0.0,0.0,0.0,0.0,0.0,0.0,0.0,0.0,0.0,0.0,0.0,0.0,0.0,0.0,0.0,0.0,0.0,0.0,0.0,0.0,0.0,0.0,0.0,0.0,0.0,0.0,0.0,0.0,0.0,0.0,0.0,0.0,0.0,0.0,0.0,0.0,0.0,0.0,0.0,0.0,0.0,0.0,0.0,0.0,0.0,0.0,0.0,0.0,0.0,0.0,0.0,0.0,0.0,0.0,0.0,0.0,0.0,0.0,0.0,0.0,0.0,0.0,0.0,0.0,0.0,0.0,0.0,0.0,0.0,0.0,0.0,0.0,0.0,0.0,0.0,0.0,0.0,0.0,0.0,0.0,0.0,0.0,0.0,0.0,0.0,0.0,0.0,0.0,0.0,0.0,0.0,0.0,0.0,0.0,0.0,0.0,0.0,0.0,0.0,0.0,0.0,0.0,0.0,0.0,0.0,0.0,0.0,0.0,0.0,0.0,0.0,0.0,0.0,0.0,0.0,0.0,0.0,0.0,0.0,0.0,0.0,0.0,0.0,0.0,0.0,0.0,0.0,0.0,0.0,0.0,0.0,0.0,0.0,0.0,0.0,0.0,0.0,0.0,0.0,0.0,0.0,0.0,0.0,0.0,0.0,0.0,0.0,0.0,0.0,0.0,0.0,0.0,0.0,0.0,0.0,0.0,0.0,0.0,0.0,0.0,0.0,0.0,0.0,0.0,0.0,0.0,0.0,0.0,0.0,0.0,0.0,0.0,0.0,0.0,0.0,0.0,0.0,0.0,0.0,0.0,0.0,0.0,0.0,0.0,0.0,0.0,0.0,0.0,0.0,0.0,0.0,0.0,0.0,0.0,0.0,0.0,0.0,0.0,0.0,0.0,0.0,0.0,0.0,0.0,0.0,0.0,0.0,0.0,0.0,0.0,0.0,0.0,0.0,0.0,0.0,0.0,0.0,0.0,0.0,0.0,0.0,0.0,0.0,0.0,0.0,0.0,0.0,0.0,0.0,0.0,0.0,0.0,0.0,0.0,0.0,0.0,0.0,0.0,0.0,0.0,0.0,0.0,0.0,0.0,0.0,0.0,0.0,0.0,0.0,0.0,0.0,0.0,0.0,0.0,0.0,0.0,0.0,0.0,0.0,0.0,0.0,0.0,0.0,0.0,0.0,0.0,0.0,0.0,0.0,0.0,0.0,0.0,0.0,0.0,0.0,0.0,0.0,0.0,0.0,0.0,0.0,0.0,0.0,0.0,0.0,0.0,0.0,0.0,0.0,0.0,0.0,5.0426,0.0,0.0,0.0,5.2694,0.0,0.0,0.0,0.0,0.0,0.0,0.0,0.0,0.0,0.0,0.0,0.0,0.0,0.0,0.0,0.0,0.0,0.0,0.0,0.0,0.0,0.0,0.0,0.0,0.0,0.0,0.0,0.0,0.0,0.0,0.0,0.0,0.0,0.0,0.0,0.0,0.0,0.0,0.0,0.0,0.0,0.0,0.0,0.0,0.0,0.0,0.0,0.0,0.0,0.0,0.0,0.0,0.0,0.0,0.0,0.0,0.0,0.0,0.0,0.0,0.0,0.0,0.0,0.0,0.0,0.0,0.0,0.0,0.0,0.0,0.0,0.0,0.0,0.0,0.0,0.0,0.0,0.0,0.0,0.0,0.0,0.0,0.0,0.0,0.0,0.0,0.0,0.0,0.0,0.0,0.0,0.0,0.0,0.0,0.0,0.0,0.0,0.0,0.0,0.0,0.0,0.0,0.0,0.0,0.0,0.0,0.0,0.0,0.0,0.0,5.1302,5.1419,5.2363,5.2672,5.2278,0.0,0.0,0.0,0.0,0.0,0.0,0.0,0.0,0.0,0.0,0.0,0.0,0.0,0.0,0.0,0.0,0.0,0.0,0.0,0.0,0.0,0.0,0.0,0.0,0.0,0.0,0.0,0.0,0.0,0.0,0.0,0.0,0.0,0.0,0.0,0.0,0.0,0.0,0.0,0.0,0.0,0.0,0.0,0.0,0.0,0.0,0.0,0.0,0.0,0.0,0.0,0.0,0.0,0.0,0.0,0.0,0.0,0.0,0.0,0.0,0.0,0.0,0.0,0.0,0.0,0.0,0.0,0.0,0.0,0.0,0.0,0.0,0.0,0.0,0.0,0.0,0.0,0.0,0.0,0.0,0.0,0.0,0.0,0.0,0.0,0.0,0.0,0.0,0.0,0.0,0.0,0.0,0.0,0.0,0.0,0.0,0.0,0.0,0.0,0.0,0.0,0.0,0.0,0.0,0.0,0.0,0.0,0.0,0.0,0.0,0.0,0.0,5.2761,5.2607,5.1329,0.0,0.0,0.0,0.0,0.0,0.0,0.0,0.0,0.0,0.0,0.0,0.0,0.0,0.0,0.0,0.0,0.0,0.0,0.0,0.0,0.0,0.0,0.0,0.0,0.0,0.0,0.0,0.0,0.0,0.0,0.0,0.0,0.0,0.0,0.0,0.0,0.0,0.0,0.0,0.0,0.0,0.0,0.0,0.0,0.0,0.0,0.0,0.0,0.0,0.0,0.0,0.0,0.0,0.0,0.0,0.0,0.0,0.0,0.0,0.0,0.0,0.0,0.0,0.0,0.0,0.0,0.0,0.0,0.0,0.0,0.0,0.0,0.0,0.0,0.0,0.0,0.0,0.0,0.0,0.0,0.0,0.0,0.0,0.0,0.0,0.0,0.0,0.0,0.0,0.0,0.0,0.0,0.0,0.0,0.0,0.0,0.0,0.0,0.0,0.0,0.0,0.0,0.0,0.0,0.0,0.0,0.0,0.0,0.0,0.0,5.3072,5.306,5.3182,0.0,5.0592,0.0,0.0,0.0,0.0,0.0,0.0,0.0,0.0,0.0,0.0,0.0,0.0,0.0,0.0,0.0,0.0,0.0,0.0,0.0,0.0,0.0,0.0,0.0,0.0,0.0,0.0,0.0,0.0,0.0,0.0,0.0,0.0,0.0,0.0,0.0,0.0,0.0,0.0,0.0,0.0,0.0,0.0,0.0,0.0,0.0,0.0,0.0,0.0,0.0,0.0,0.0,0.0,0.0,0.0,0.0,0.0,0.0,0.0,0.0,0.0,0.0,0.0,0.0,0.0,0.0,0.0,0.0,0.0,0.0,0.0,0.0,0.0,0.0,0.0,0.0,0.0,0.0,0.0,0.0,0.0,0.0,0.0,0.0,0.0,0.0,0.0,0.0,0.0,0.0,0.0,0.0,0.0,0.0,0.0,0.0,0.0,0.0,0.0,0.0,0.0,0.0,0.0,0.0,0.0,0.0,0.0,0.0,0.0,0.0,0.0,5.3756,5.3453,5.3453,5.248,0.0,0.0,0.0,0.0,0.0,0.0,0.0,0.0,0.0,0.0,0.0,0.0,0.0,0.0,0.0,0.0,0.0,0.0,0.0,0.0,0.0,0.0,0.0,0.0,0.0,0.0,0.0,0.0,0.0,0.0,0.0,0.0,0.0,0.0,0.0,0.0,0.0,0.0,0.0,0.0,0.0,0.0,0.0,0.0,0.0,0.0,0.0,0.0,0.0,0.0,0.0,0.0,0.0,0.0,0.0,0.0,0.0,0.0,0.0,0.0,0.0,0.0,0.0,0.0,0.0,0.0,0.0,0.0,0.0,0.0,0.0,0.0,0.0,0.0,0.0,0.0,0.0,0.0,0.0,0.0,0.0,0.0,0.0,0.0,0.0,0.0,0.0,0.0,0.0,0.0,0.0,0.0,0.0,0.0,0.0,0.0,0.0,0.0,0.0,0.0,0.0,0.0,0.0,0.0,0.0,0.0,0.0,0.0,0.0,0.0,5.3602,5.4298,5.4127,5.3945,5.2976,5.1115,0.0,0.0,0.0,0.0,0.0,0.0,0.0,0.0,0.0,0.0,0.0,0.0,0.0,0.0,0.0,0.0,0.0,0.0,0.0,0.0,0.0,0.0,0.0,0.0,0.0,0.0,0.0,0.0,0.0,0.0,0.0,0.0,0.0,0.0,0.0,0.0,0.0,0.0,0.0,0.0,0.0,0.0,0.0,0.0,0.0,0.0,0.0,0.0,0.0,0.0,0.0,0.0,0.0,0.0,0.0,0.0,0.0,0.0,0.0,0.0,0.0,0.0,0.0,0.0,0.0,0.0,0.0,0.0,0.0,0.0,0.0,0.0,0.0,0.0,0.0,0.0,0.0,0.0,0.0,0.0,0.0,0.0,0.0,0.0,0.0,0.0,0.0,0.0,0.0,0.0,0.0,0.0,0.0,0.0,0.0,0.0,0.0,0.0,0.0,0.0,0.0,0.0,0.0,0.0,0.0,0.0,0.0,0.0,5.4173,5.4399,5.4803,5.5456,5.4759,5.3845,0.0,0.0,0.0,0.0,0.0,0.0,0.0,0.0,0.0,0.0,0.0,0.0,0.0,0.0,0.0,0.0,0.0,0.0,0.0,0.0,0.0,0.0,0.0,0.0,0.0,0.0,0.0,0.0,0.0,0.0,0.0,0.0,0.0,0.0,0.0,0.0,0.0,0.0,0.0,0.0,0.0,0.0,0.0,0.0,0.0,0.0,0.0,0.0,0.0,0.0,0.0,0.0,0.0,0.0,0.0,0.0,0.0,0.0,0.0,0.0,0.0,0.0,0.0,0.0,0.0,0.0,0.0,0.0,0.0,0.0,0.0,0.0,0.0,0.0,0.0,0.0,0.0,0.0,0.0,0.0,0.0,0.0,0.0,0.0,0.0,0.0,0.0,0.0,0.0,0.0,0.0,0.0,0.0,0.0,0.0,0.0,0.0,0.0,0.0,0.0,0.0,0.0,0.0,0.0,0.0,0.0,0.0,0.0,0.0,5.4436,5.5904,5.6822,5.7079,5.6345,5.4937,0.0,0.0,0.0,0.0,0.0,0.0,0.0,0.0,0.0,0.0,0.0,0.0,0.0,0.0,0.0,0.0,0.0,0.0,0.0,0.0,0.0,0.0,0.0,0.0,0.0,0.0,0.0,0.0,0.0,0.0,0.0,0.0,0.0,0.0,0.0,0.0,0.0,0.0,0.0,0.0,0.0,0.0,0.0,0.0,0.0,0.0,0.0,0.0,0.0,0.0,0.0,0.0,0.0,0.0,0.0,0.0,0.0,0.0,0.0,0.0,0.0,0.0,0.0,0.0,0.0,0.0,0.0,0.0,0.0,0.0,0.0,0.0,0.0,0.0,0.0,0.0,0.0,0.0,0.0,0.0,0.0,0.0,0.0,0.0,0.0,0.0,0.0,0.0,0.0,0.0,0.0,0.0,0.0,0.0,0.0,0.0,0.0,0.0,0.0,0.0,0.0,0.0,0.0,0.0,0.0,0.0,0.0,0.0,0.0,5.5978,5.807,5.9171,5.9181,5.8189,5.6463,0.0,0.0,0.0,0.0,0.0,0.0,0.0,0.0,0.0,0.0,0.0,0.0,0.0,0.0,0.0,0.0,0.0,0.0,0.0,0.0,0.0,0.0,0.0,0.0,0.0,0.0,0.0,0.0,0.0,0.0,0.0,0.0,0.0,0.0,0.0,0.0,0.0,0.0,0.0,0.0,0.0,0.0,0.0,0.0,0.0,0.0,0.0,0.0,0.0,0.0,0.0,0.0,0.0,0.0,0.0,0.0,0.0,0.0,0.0,0.0,0.0,0.0,0.0,0.0,0.0,0.0,0.0,0.0,0.0,0.0,0.0,0.0,0.0,0.0,0.0,0.0,0.0,0.0,0.0,0.0,0.0,0.0,0.0,0.0,0.0,0.0,0.0,0.0,0.0,0.0,0.0,0.0,0.0,0.0,0.0,0.0,0.0,0.0,0.0,0.0,0.0,0.0,0.0,0.0,0.0,0.0,0.0,0.0,5.6051,5.9134,6.0786,6.1654,6.1787,6.0204,5.84,0.0,0.0,0.0,0.0,0.0,0.0,0.0,0.0,0.0,0.0,0.0,0.0,0.0,0.0,0.0,0.0,0.0,0.0,0.0,0.0,0.0,0.0,0.0,0.0,0.0,0.0,0.0,0.0,0.0,0.0,0.0,0.0,0.0,0.0,0.0,0.0,0.0,0.0,0.0,0.0,0.0,0.0,0.0,0.0,0.0,0.0,0.0,0.0,0.0,0.0,0.0,0.0,0.0,0.0,0.0,0.0,0.0,0.0,0.0,0.0,0.0,0.0,0.0,0.0,0.0,0.0,0.0,0.0,0.0,0.0,0.0,0.0,0.0,0.0,0.0,0.0,0.0,0.0,0.0,0.0,0.0,0.0,0.0,0.0,0.0,0.0,0.0,0.0,0.0,0.0,0.0,0.0,0.0,0.0,0.0,0.0,0.0,0.0,0.0,0.0,0.0,0.0,0.0,0.0,0.0,0.0,0.0,0.0,0.0,6.1776,6.288,6.3481,6.359,6.1429,5.9245,0.0,0.0,0.0,0.0,0.0,0.0,0.0,0.0,0.0,0.0,0.0,0.0,0.0,0.0,0.0,0.0,0.0,0.0,0.0,0.0,0.0,0.0,0.0,0.0,0.0,0.0,0.0,0.0,0.0,0.0,0.0,0.0,0.0,0.0,0.0,0.0,0.0,0.0,0.0,0.0,0.0,0.0,0.0,0.0,0.0,0.0,0.0,0.0,0.0,0.0,0.0,0.0,0.0,0.0,0.0,0.0,0.0,0.0,0.0,0.0,0.0,0.0,0.0,0.0,0.0,0.0,0.0,0.0,0.0,0.0,0.0,0.0,0.0,0.0,0.0,0.0,0.0,0.0,0.0,0.0,0.0,0.0,0.0,0.0,0.0,0.0,0.0,0.0,0.0,0.0,0.0,0.0,0.0,0.0,0.0,0.0,0.0,0.0,0.0,0.0,0.0,0.0,0.0,0.0,0.0,0.0,0.0,0.0,0.0,6.5175,6.5506,6.5717,6.5915,6.3712,6.1308,5.8699,0.0,0.0,0.0,0.0,0.0,0.0,0.0,0.0,0.0,0.0,0.0,0.0,0.0,0.0,0.0,0.0,0.0,0.0,0.0,0.0,0.0,0.0,0.0,0.0,0.0,0.0,0.0,0.0,0.0,0.0,0.0,0.0,0.0,0.0,0.0,0.0,0.0,0.0,0.0,0.0,0.0,0.0,0.0,0.0,0.0,0.0,0.0,0.0,0.0,0.0,0.0,0.0,0.0,0.0,0.0,0.0,0.0,0.0,0.0,0.0,0.0,0.0,0.0,0.0,0.0,0.0,0.0,0.0,0.0,0.0,0.0,0.0,0.0,0.0,0.0,0.0,0.0,0.0,0.0,0.0,0.0,0.0,0.0,0.0,0.0,0.0,0.0,0.0,0.0,0.0,0.0,0.0,0.0,0.0,0.0,0.0,0.0,0.0,0.0,0.0,0.0,0.0,0.0,0.0,0.0,0.0,0.0,0.0,6.9151,6.8562,6.8351,6.8494,6.6778,6.4409,0.0,0.0,0.0,0.0,0.0,0.0,0.0,0.0,0.0,0.0,0.0,0.0,0.0,0.0,0.0,0.0,0.0,0.0,0.0,0.0,0.0,0.0,0.0,0.0,0.0,0.0,0.0,0.0,0.0,0.0,0.0,0.0,0.0,0.0,0.0,0.0,0.0,0.0,0.0,0.0,0.0,0.0,0.0,0.0,0.0,0.0,0.0,0.0,0.0,0.0,0.0,0.0,0.0,0.0,0.0,0.0,0.0,0.0,0.0,0.0,0.0,0.0,0.0,0.0,0.0,0.0,0.0,0.0,0.0,0.0,0.0,0.0,0.0,0.0,0.0,0.0,0.0,0.0,0.0,0.0,0.0,0.0,0.0,0.0,0.0,0.0,0.0,0.0,0.0,0.0,0.0,0.0,0.0,0.0,0.0,0.0,0.0,0.0,0.0,0.0,0.0,0.0,0.0,0.0,0.0,0.0,0.0,0.0,0.0,7.0048,7.1709,7.2076,7.0976,6.8726,6.6273,0.0,0.0,0.0,0.0,0.0,0.0,0.0,0.0,0.0,0.0,0.0,0.0,0.0,0.0,0.0,0.0,0.0,0.0,0.0,0.0,0.0,0.0,0.0,0.0,0.0,0.0,0.0,0.0,0.0,0.0,0.0,0.0,0.0,0.0,0.0,0.0,0.0,0.0,0.0,0.0,0.0,0.0,0.0,0.0,0.0,0.0,0.0,0.0,0.0,0.0,0.0,0.0,0.0,0.0,0.0,0.0,0.0,0.0,0.0,0.0,0.0,0.0,0.0,0.0,0.0,0.0,0.0,0.0,0.0,0.0,0.0,0.0,0.0,0.0,0.0,0.0,0.0,0.0,0.0,0.0,0.0,0.0,0.0,0.0,0.0,0.0,0.0,0.0,0.0,0.0,0.0,0.0,0.0,0.0,0.0,0.0,0.0,0.0,0.0,0.0,0.0,0.0,0.0,0.0,0.0,0.0,0.0,0.0,6.8596,7.1821,7.4366,7.5144,7.3905,7.1168,6.824,0.0,0.0,0.0,0.0,0.0,0.0,0.0,0.0,0.0,0.0,0.0,0.0,0.0,0.0,0.0,0.0,0.0,0.0,0.0,0.0,0.0,0.0,0.0,0.0,0.0,0.0,0.0,0.0,0.0,0.0,0.0,0.0,0.0,0.0,0.0,0.0,0.0,0.0,0.0,0.0,0.0,0.0,0.0,0.0,0.0,0.0,0.0,0.0,0.0,0.0,0.0,0.0,0.0,0.0,0.0,0.0,0.0,0.0,0.0,0.0,0.0,0.0,0.0,0.0,0.0,0.0,0.0,0.0,0.0,0.0,0.0,0.0,0.0,0.0,0.0,0.0,0.0,0.0,0.0,0.0,0.0,0.0,0.0,0.0,0.0,0.0,0.0,0.0,0.0,0.0,0.0,0.0,0.0,0.0,0.0,0.0,0.0,0.0,0.0,0.0,0.0,0.0,0.0,0.0,0.0,0.0,0.0,0.0,7.0678,7.378,7.6501,7.7636,7.6934,7.3959,7.0401,0.0,0.0,0.0,0.0,0.0,0.0,0.0,0.0,0.0,0.0,0.0,0.0,0.0,0.0,0.0,0.0,0.0,0.0,0.0,0.0,0.0,0.0,0.0,0.0,0.0,0.0,0.0,0.0,0.0,0.0,0.0,0.0,0.0,0.0,0.0,0.0,0.0,0.0,0.0,0.0,0.0,0.0,0.0,0.0,0.0,0.0,0.0,0.0,0.0,0.0,0.0,0.0,0.0,0.0,0.0,0.0,0.0,0.0,0.0,0.0,0.0,0.0,0.0,0.0,0.0,0.0,0.0,0.0,0.0,0.0,0.0,0.0,0.0,0.0,0.0,0.0,0.0,0.0,0.0,0.0,0.0,0.0,0.0,0.0,0.0,0.0,0.0,0.0,0.0,0.0,0.0,0.0,0.0,0.0,0.0,0.0,0.0,0.0,0.0,0.0,0.0,0.0,0.0,0.0,0.0,0.0,0.0,0.0,7.1132,7.4801,7.7371,7.9025,7.966,7.6533,7.2927,0.0,0.0,0.0,0.0,0.0,0.0,0.0,0.0,0.0,0.0,0.0,0.0,0.0,0.0,0.0,0.0,0.0,0.0,0.0,0.0,0.0,0.0,0.0,0.0,0.0,0.0,0.0,0.0,0.0,0.0,0.0,0.0,0.0,0.0,0.0,0.0,0.0,0.0,0.0,0.0,0.0,0.0,0.0,0.0,0.0,0.0,0.0,0.0,5.4433,0.0,0.0,0.0,0.0,0.0,0.0,0.0,0.0,0.0,0.0,0.0,0.0,0.0,0.0,0.0,0.0,0.0,0.0,0.0,0.0,0.0,0.0,0.0,0.0,0.0,0.0,0.0,0.0,0.0,0.0,0.0,0.0,0.0,0.0,0.0,0.0,0.0,0.0,0.0,0.0,0.0,0.0,0.0,0.0,0.0,0.0,0.0,0.0,0.0,0.0,0.0,0.0,0.0,0.0,0.0,0.0,0.0,0.0,0.0,7.2443,7.5614,7.8651,8.0244,8.0304,7.8479,7.5158,0.0,0.0,0.0,0.0,0.0,0.0,0.0,0.0,0.0,0.0,0.0,0.0,0.0,0.0,0.0,0.0,0.0,0.0,0.0,0.0,0.0,0.0,0.0,0.0,0.0,0.0,0.0,0.0,0.0,0.0,0.0,0.0,0.0,0.0,0.0,0.0,0.0,0.0,0.0,0.0,0.0,0.0,0.0,0.0,0.0,0.0,0.0,0.0,0.0,0.0,0.0,0.0,0.0,0.0,0.0,0.0,0.0,0.0,0.0,0.0,0.0,0.0,0.0,0.0,0.0,0.0,0.0,0.0,0.0,0.0,0.0,0.0,0.0,0.0,0.0,0.0,0.0,0.0,0.0,0.0,0.0,0.0,0.0,0.0,0.0,0.0,0.0,0.0,0.0,0.0,0.0,0.0,0.0,0.0,0.0,0.0,0.0,0.0,0.0,0.0,0.0,0.0,0.0,0.0,0.0,0.0,0.0,7.0521,7.4039,7.6565,7.991,8.1366,8.0775,8.0295,7.7349,7.1737,0.0,0.0,0.0,0.0,0.0,0.0,0.0,0.0,0.0,0.0,0.0,0.0,0.0,0.0,0.0,0.0,0.0,0.0,0.0,0.0,0.0,0.0,0.0,0.0,0.0,0.0,0.0,0.0,0.0,0.0,0.0,0.0,0.0,0.0,0.0,0.0,0.0,0.0,5.5556,5.6834,0.0,0.0,0.0,0.0,0.0,0.0,0.0,0.0,5.6262,0.0,0.0,0.0,0.0,0.0,0.0,0.0,0.0,0.0,0.0,0.0,0.0,0.0,0.0,0.0,0.0,0.0,0.0,0.0,0.0,0.0,0.0,0.0,0.0,0.0,0.0,0.0,0.0,0.0,0.0,0.0,0.0,0.0,0.0,0.0,0.0,0.0,0.0,0.0,0.0,0.0,0.0,0.0,0.0,0.0,0.0,0.0,0.0,0.0,0.0,0.0,0.0,0.0,0.0,0.0,0.0,6.6742,7.0735,7.4542,7.8122,8.1012,8.2733,8.325,8.2816,7.9854,7.4157,0.0,0.0,0.0,0.0,0.0,0.0,0.0,0.0,0.0,0.0,0.0,0.0,0.0,0.0,0.0,0.0,0.0,0.0,0.0,0.0,0.0,0.0,0.0,0.0,0.0,0.0,0.0,0.0,0.0,0.0,0.0,0.0,0.0,0.0,0.0,0.0,0.0,0.0,0.0,5.7547,5.8227,0.0,0.0,0.0,0.0,0.0,0.0,0.0,0.0,5.6702,0.0,0.0,0.0,0.0,0.0,0.0,0.0,0.0,0.0,0.0,0.0,0.0,0.0,0.0,0.0,0.0,0.0,0.0,0.0,0.0,0.0,0.0,0.0,0.0,0.0,0.0,0.0,0.0,0.0,0.0,0.0,0.0,0.0,0.0,0.0,0.0,0.0,0.0,0.0,0.0,0.0,0.0,0.0,0.0,0.0,0.0,0.0,0.0,0.0,0.0,0.0,0.0,0.0,0.0,0.0,6.7556,7.2261,7.6123,7.9215,8.2282,8.4099,8.4469,8.3632,8.0948,0.0,0.0,0.0,0.0,0.0,0.0,0.0,0.0,0.0,0.0,0.0,0.0,0.0,0.0,0.0,0.0,0.0,0.0,0.0,0.0,0.0,0.0,0.0,0.0,0.0,0.0,0.0,0.0,0.0,0.0,0.0,0.0,0.0,0.0,0.0,0.0,0.0,0.0,0.0,0.0,5.9069,5.9749,5.9749,0.0,0.0,0.0,0.0,0.0,0.0,5.7611,5.6951,0.0,0.0,0.0,0.0,0.0,0.0,0.0,0.0,0.0,0.0,0.0,0.0,0.0,0.0,0.0,0.0,0.0,0.0,0.0,0.0,0.0,0.0,0.0,0.0,0.0,0.0,0.0,0.0,0.0,0.0,0.0,0.0,0.0,0.0,0.0,0.0,0.0,0.0,0.0,0.0,0.0,0.0,0.0,0.0,0.0,0.0,0.0,0.0,0.0,0.0,0.0,0.0,0.0,0.0,0.0,6.8369,7.3774,7.773,8.0054,8.3468,8.5291,8.5318,8.4262,8.1785,0.0,0.0,0.0,0.0,0.0,0.0,0.0,0.0,0.0,0.0,0.0,0.0,0.0,0.0,0.0,0.0,0.0,0.0,0.0,0.0,0.0,0.0,0.0,0.0,0.0,0.0,0.0,0.0,0.0,0.0,0.0,0.0,0.0,0.0,0.0,0.0,0.0,0.0,0.0,0.0,0.0,6.1044,6.1692,6.1919,0.0,0.0,0.0,0.0,6.0455,5.8615,0.0,0.0,0.0,0.0,0.0,0.0,0.0,0.0,0.0,0.0,0.0,0.0,0.0,0.0,0.0,0.0,0.0,0.0,0.0,0.0,0.0,0.0,0.0,0.0,0.0,0.0,0.0,0.0,0.0,0.0,0.0,0.0,0.0,0.0,0.0,0.0,0.0,0.0,0.0,0.0,0.0,0.0,0.0,0.0,0.0,0.0,0.0,0.0,0.0,0.0,0.0,0.0,0.0,0.0,0.0,0.0,6.9164,7.4588,7.8516,8.084,8.4168,8.6074,8.6168,8.5509,8.3033,0.0,0.0,0.0,0.0,0.0,0.0,0.0,0.0,0.0,0.0,0.0,0.0,0.0,0.0,0.0,0.0,0.0,0.0,0.0,0.0,0.0,0.0,0.0,0.0,0.0,0.0,0.0,0.0,0.0,0.0,0.0,0.0,0.0,0.0,0.0,0.0,0.0,0.0,0.0,0.0,0.0,6.1044,6.1724,6.2372,6.2761,0.0,0.0,6.1747,6.1277,6.0042,0.0,0.0,0.0,0.0,0.0,0.0,0.0,0.0,0.0,0.0,0.0,0.0,0.0,0.0,0.0,0.0,0.0,0.0,0.0,0.0,0.0,0.0,0.0,0.0,0.0,0.0,0.0,0.0,0.0,0.0,0.0,0.0,0.0,0.0,0.0,0.0,0.0,0.0,0.0,0.0,0.0,0.0,0.0,0.0,0.0,0.0,0.0,0.0,0.0,0.0,0.0,0.0,0.0,0.0,0.0,6.6083,6.9958,7.5366,7.9303,8.1663,8.5007,8.6819,8.698,8.5926,8.3576,0.0,0.0,0.0,0.0,0.0,0.0,0.0,0.0,0.0,0.0,0.0,0.0,0.0,0.0,0.0,0.0,0.0,0.0,0.0,0.0,0.0,0.0,0.0,0.0,0.0,0.0,0.0,0.0,0.0,0.0,0.0,0.0,0.0,0.0,0.0,0.0,0.0,0.0,0.0,0.0,0.0,0.0,6.3473,6.425,0.0,0.0,0.0,6.306,6.2166,0.0,0.0,0.0,0.0,0.0,0.0,0.0,0.0,0.0,0.0,0.0,0.0,0.0,0.0,0.0,0.0,0.0,0.0,0.0,0.0,0.0,0.0,0.0,0.0,0.0,0.0,0.0,0.0,0.0,0.0,0.0,0.0,0.0,0.0,0.0,0.0,0.0,0.0,0.0,0.0,0.0,0.0,0.0,0.0,0.0,0.0,0.0,0.0,0.0,0.0,0.0,0.0,0.0,0.0,0.0,0.0,0.0,7.0717,7.6144,8.0125,8.2449,8.5772,8.763,8.7793,8.6407,0.0,0.0,0.0,0.0,0.0,0.0,0.0,0.0,0.0,0.0,0.0,0.0,0.0,0.0,0.0,0.0,0.0,0.0,0.0,0.0,0.0,0.0,0.0,0.0,0.0,0.0,0.0,4.9884,0.0,0.0,0.0,0.0,0.0,0.0,0.0,0.0,0.0,0.0,0.0,0.0,0.0,0.0,6.3635,6.4866,6.5967,6.6647,0.0,0.0,6.4589,6.358,6.1297,5.9407,0.0,0.0,0.0,0.0,0.0,0.0,0.0,0.0,0.0,0.0,0.0,0.0,0.0,0.0,0.0,0.0,0.0,0.0,0.0,0.0,0.0,0.0,0.0,0.0,0.0,0.0,0.0,0.0,0.0,0.0,0.0,0.0,0.0,0.0,0.0,0.0,0.0,0.0,0.0,0.0,0.0,0.0,0.0,0.0,0.0,0.0,0.0,0.0,0.0,0.0,0.0,0.0,0.0,0.0,0.0,7.1477,7.6922,8.0876,8.32,8.6465,8.8341,8.8716,8.7128,8.4801,0.0,0.0,0.0,0.0,0.0,0.0,0.0,0.0,0.0,0.0,0.0,0.0,0.0,0.0,0.0,0.0,0.0,0.0,0.0,0.0,0.0,0.0,0.0,0.0,0.0,0.0,0.0,0.0,0.0,0.0,0.0,0.0,0.0,0.0,0.0,0.0,0.0,0.0,0.0,0.0,0.0,6.4185,6.493,6.6776,6.8039,0.0,0.0,6.6355,6.5738,6.3053,6.0441,5.8637,0.0,0.0,0.0,0.0,0.0,0.0,0.0,0.0,0.0,0.0,0.0,0.0,0.0,0.0,0.0,0.0,0.0,0.0,0.0,0.0,0.0,0.0,0.0,0.0,0.0,0.0,0.0,0.0,0.0,0.0,0.0,0.0,0.0,0.0,0.0,0.0,0.0,0.0,0.0,0.0,0.0,0.0,0.0,0.0,0.0,0.0,0.0,0.0,0.0,0.0,0.0,0.0,0.0,6.8428,7.2271,7.724,8.112,8.3987,8.6793,8.8566,8.9325,8.7874,8.5735,0.0,0.0,0.0,0.0,0.0,0.0,0.0,0.0,0.0,0.0,0.0,0.0,0.0,0.0,0.0,0.0,0.0,0.0,0.0,0.0,0.0,0.0,0.0,0.0,0.0,0.0,0.0,0.0,5.274,5.2694,5.279,0.0,0.0,0.0,0.0,0.0,0.0,0.0,0.0,0.0,0.0,6.5189,6.6744,6.8072,0.0,0.0,6.8627,6.7762,6.7512,6.5555,6.3369,6.1315,6.0023,0.0,0.0,0.0,0.0,0.0,0.0,0.0,0.0,0.0,0.0,0.0,0.0,0.0,0.0,0.0,0.0,0.0,0.0,0.0,0.0,0.0,0.0,0.0,0.0,0.0,0.0,0.0,0.0,0.0,0.0,0.0,0.0,0.0,0.0,0.0,0.0,0.0,0.0,0.0,0.0,0.0,0.0,0.0,0.0,0.0,0.0,0.0,0.0,0.0,0.0,0.0,0.0,6.9187,7.2981,7.7661,8.1631,8.4799,8.7257,8.9018,8.9993,8.8619,8.6554,0.0,0.0,0.0,0.0,0.0,0.0,0.0,0.0,0.0,0.0,0.0,0.0,0.0,0.0,0.0,0.0,0.0,0.0,0.0,0.0,0.0,0.0,0.0,0.0,0.0,0.0,0.0,0.0,5.3231,5.3247,5.3812,0.0,0.0,0.0,0.0,0.0,0.0,0.0,0.0,0.0,0.0,6.6517,6.8007,6.9367,7.0436,7.0954,7.032,6.9888,6.9888,6.8133,6.6055,6.3887,0.0,0.0,0.0,0.0,0.0,0.0,0.0,0.0,0.0,0.0,0.0,0.0,0.0,0.0,0.0,0.0,0.0,0.0,0.0,0.0,0.0,0.0,0.0,0.0,0.0,0.0,0.0,0.0,0.0,0.0,5.8319,0.0,0.0,0.0,0.0,0.0,0.0,0.0,0.0,0.0,0.0,0.0,0.0,0.0,0.0,0.0,0.0,0.0,0.0,0.0,0.0,0.0,0.0,6.998,7.374,7.8411,8.2319,8.5585,8.8013,8.9706,9.0769,8.933,8.7152,8.4199,0.0,0.0,0.0,0.0,0.0,0.0,0.0,0.0,0.0,0.0,0.0,0.0,0.0,0.0,0.0,0.0,0.0,0.0,0.0,0.0,0.0,0.0,0.0,0.0,0.0,0.0,5.3945,5.3508,5.3799,0.0,0.0,0.0,0.0,0.0,0.0,0.0,0.0,0.0,0.0,6.6388,6.8169,6.8266,7.063,7.2379,7.2443,7.2524,7.2673,7.2642,7.0473,6.8137,0.0,0.0,0.0,0.0,0.0,0.0,0.0,0.0,0.0,0.0,0.0,0.0,0.0,0.0,0.0,0.0,0.0,0.0,0.0,0.0,0.0,0.0,0.0,0.0,0.0,0.0,0.0,6.2524,6.271,0.0,0.0,0.0,0.0,0.0,0.0,0.0,0.0,0.0,0.0,0.0,6.5268,6.5642,0.0,0.0,0.0,0.0,0.0,0.0,0.0,0.0,0.0,0.0,0.0,0.0,7.1498,7.5344,7.892,8.2294,8.5428,8.7393,8.8768,8.9681,8.8714,8.683,8.381,0.0,0.0,0.0,0.0,0.0,0.0,0.0,0.0,0.0,0.0,0.0,0.0,0.0,0.0,0.0,0.0,0.0,0.0,0.0,0.0,0.0,0.0,0.0,0.0,0.0,5.5278,0.0,0.0,0.0,0.0,0.0,0.0,0.0,0.0,0.0,0.0,0.0,6.3991,6.5869,6.7327,6.8881,7.0792,7.1861,7.2832,0.0,0.0,0.0,0.0,0.0,0.0,0.0,0.0,0.0,0.0,0.0,0.0,0.0,0.0,5.0805,4.8024,4.6305,4.5196,4.4495,0.0,0.0,0.0,0.0,0.0,0.0,0.0,0.0,0.0,0.0,0.0,0.0,0.0,0.0,6.5311,0.0,6.4281,0.0,0.0,0.0,0.0,0.0,0.0,0.0,0.0,6.6635,6.7578,6.8049,6.8388,6.8704,0.0,6.9072,6.7736,0.0,0.0,0.0,0.0,0.0,0.0,0.0,0.0,7.2809,7.6051,7.9406,8.2467,8.528,8.7002,8.8223,8.907,8.8113,8.6368,8.3915,8.1023,7.8133,0.0,0.0,0.0,0.0,0.0,0.0,0.0,0.0,0.0,0.0,0.0,0.0,0.0,0.0,0.0,0.0,0.0,0.0,0.0,0.0,0.0,0.0,0.0,5.6754,0.0,0.0,0.0,0.0,0.0,0.0,0.0,0.0,0.0,6.1951,6.3797,6.5708,6.7327,6.8784,7.0163,7.1649,0.0,0.0,0.0,0.0,0.0,0.0,0.0,7.0391,6.8318,6.7519,6.5752,6.1947,5.9669,5.7488,5.5073,0.0,0.0,4.9107,4.6944,4.5361,4.4944,4.4325,4.3085,4.0869,4.0717,4.0004,0.0,0.0,0.0,0.0,0.0,0.0,0.0,0.0,6.8556,6.8654,0.0,6.7654,0.0,0.0,0.0,0.0,0.0,6.7114,0.0,0.0,6.9332,7.0419,7.0579,7.1222,7.1981,7.2671,7.1946,7.1153,7.0338,6.7387,0.0,0.0,0.0,0.0,0.0,0.0,7.3912,7.6292,7.9948,8.2974,8.5329,8.6802,8.8037,8.8932,8.7423,8.5886,8.4587,8.2905,8.0633,7.7754,7.5366,0.0,0.0,0.0,0.0,0.0,0.0,0.0,0.0,0.0,0.0,0.0,0.0,0.0,0.0,0.0,0.0,0.0,0.0,0.0,0.0,5.8071,0.0,0.0,0.0,0.0,0.0,0.0,0.0,0.0,0.0,0.0,6.438,6.5999,6.7521,6.8266,0.0,0.0,0.0,0.0,7.339,7.2892,7.3258,7.3873,7.439,7.3578,7.2508,7.1228,0.0,0.0,6.089,5.9147,5.7667,5.4494,5.4045,5.352,5.2566,4.9379,4.6439,4.497,4.3525,4.1698,4.0393,4.0479,3.9702,7.3751,0.0,0.0,0.0,0.0,7.0668,7.0954,7.0991,7.1664,7.1998,7.1923,7.0953,0.0,0.0,0.0,0.0,0.0,0.0,7.0268,7.0173,7.1931,7.2818,7.2843,7.3602,7.405,7.4292,7.405,7.3567,7.2774,7.1953,6.9911,6.6911,0.0,0.0,0.0,0.0,7.6258,7.8534,8.1224,8.339,8.5167,8.6234,8.6818,8.7074,8.6089,8.562,8.5448,8.3716,8.2063,8.0375,7.7673,0.0,0.0,0.0,0.0,0.0,0.0,0.0,0.0,0.0,0.0,0.0,0.0,0.0,0.0,0.0,0.0,0.0,0.0,0.0,5.9547,5.9828,5.9891,0.0,0.0,0.0,0.0,0.0,0.0,0.0,0.0,0.0,6.8395,6.8622,6.9335,0.0,0.0,7.1695,7.3201,7.3245,7.3262,7.4061,7.3503,0.0,7.298,7.1656,7.0366,6.9671,6.8964,6.6985,6.2656,6.1677,6.0247,5.6756,5.6107,5.5853,5.5048,5.2041,4.9113,4.7065,4.5316,4.3567,4.1796,4.1582,4.0903,7.7269,7.3169,7.2796,7.2502,7.2433,7.3325,7.3738,7.3861,7.4792,7.5142,7.4996,7.4515,7.3978,7.3383,7.2907,0.0,0.0,0.0,7.2964,7.244,7.3683,7.4568,7.5154,7.5637,7.6154,7.674,7.674,7.6361,7.5602,7.5602,7.4292,7.1774,0.0,0.0,7.2912,7.5326,7.7672,7.9913,8.1914,8.3638,8.5156,8.5915,8.6294,8.6294,8.588,8.5664,8.5898,8.5006,8.3842,8.2475,8.0399,7.7948,0.0,0.0,0.0,0.0,0.0,0.0,0.0,0.0,0.0,0.0,0.0,5.4928,5.5956,0.0,0.0,0.0,5.8855,6.0765,6.1862,6.1905,0.0,0.0,0.0,0.0,0.0,0.0,0.0,6.71,6.8234,6.9464,7.1019,7.1342,7.1552,7.2087,7.2108,7.241,7.3075,0.0,7.291,7.3744,7.3147,7.2808,7.3062,7.2195,7.0907,6.9961,6.9471,6.7764,6.3759,6.2992,6.1659,5.8631,5.7646,5.755,5.7237,5.5273,5.275,4.9339,4.723,4.541,4.3431,4.3281,4.243,8.0305,7.7562,7.6907,7.6085,7.5256,7.622,7.6759,7.7057,7.7938,7.819,7.8012,7.8153,7.7536,7.6289,7.6492,0.0,7.4212,7.5738,7.5583,7.4188,7.4947,7.6051,7.7361,7.7396,7.8154,7.95,7.95,7.9155,7.8465,7.8465,7.812,7.7361,7.5361,7.4636,7.5257,7.6809,7.8637,8.0776,8.2328,8.3811,8.5259,8.5949,8.6294,8.6294,8.6294,8.6148,8.5942,8.6277,8.5722,8.4051,8.3302,8.1295,7.7919,0.0,0.0,0.0,0.0,0.0,0.0,0.0,0.0,0.0,0.0,0.0,0.0,0.0,0.0,0.0,6.0526,0.0,6.4218,6.4347,0.0,0.0,0.0,6.561,6.6355,6.7035,6.8007,6.9464,0.0,0.0,7.2531,7.3792,7.3852,7.1855,7.3281,7.363,7.1298,7.2013,7.2726,7.274,7.2747,7.3182,7.4227,7.4022,7.3088,7.1353,7.0741,6.8955,6.5069,6.3907,6.2607,5.9756,5.894,5.8728,5.868,5.8488,5.703,5.1419,4.9246,4.7547,4.547,4.4902,4.3633,8.2111,8.0789,8.1148,7.9762,7.738,7.9068,7.9822,7.9961,8.0901,8.1477,8.1756,8.0966,7.9892,7.8767,7.8806,7.8348,7.7333,7.8401,7.8287,7.7361,7.8085,7.8603,7.8948,7.8982,7.9155,7.95,7.95,7.9431,7.9258,7.9224,7.9155,7.8982,7.8982,7.8499,7.7706,7.9672,8.1259,8.2362,8.388,8.5087,8.6018,8.6225,8.6294,8.6294,8.6294,8.6225,8.6217,8.6116,8.5844,8.5438,8.4212,8.2361,7.9688,7.7622,0.0,0.0,0.0,0.0,0.0,0.0,0.0,0.0,0.0,5.8462,6.0271,0.0,6.1044,0.0,6.3732,6.5675,6.7068,6.7197,0.0,0.0,6.7359,6.7942,6.9237,6.9529,7.0371,7.2346,7.2864,7.3186,7.3448,7.414,7.3948,7.2078,7.258,7.3102,7.2937,7.27,7.2823,7.324,7.3763,7.4169,7.4518,7.3958,7.3157,7.2095,7.1737,7.081,6.8578,6.6952,6.5382,6.2884,6.1345,6.0267,5.9353,5.9209,5.7525,5.3402,5.1499,4.9722,4.6253,4.5273,4.3976,8.3581,8.2488,8.3624,8.2727,8.0591,8.1809,8.214,8.1997,8.2904,8.3243,8.3111,8.1998,8.1179,8.0713,8.0519,7.9952,7.9301,7.9858,7.967,7.8913,7.9327,7.9672,8.0017,8.0017,8.0189,8.0534,8.0879,8.1017,8.1052,8.1362,8.15,8.1535,8.1948,8.1707,8.0948,8.181,8.2845,8.3914,8.5087,8.5915,8.6294,8.6294,8.6294,8.6294,8.6294,8.6294,8.6294,8.6408,8.6281,8.5898,8.5385,8.384,8.1359,7.9932,7.7492,0.0,0.0,0.0,0.0,0.0,0.0,0.0,0.0,0.0,0.0,0.0,6.4412,6.6096,6.7327,6.859,6.9982,7.0112,7.0112,7.0112,7.0403,7.0921,7.1731,7.2087,7.2735,7.3901,7.4107,7.4072,7.4139,7.4487,7.422,7.286,7.2882,7.3123,7.3152,7.3057,7.3385,7.4285,7.475,7.5069,7.5359,7.4822,7.3956,7.3246,7.2885,7.17,6.897,6.7638,6.6047,6.3334,6.196,6.1085,6.0267,5.9378,5.7615,5.4645,5.2434,5.0283,4.7284,4.5453,4.3533,8.4666,8.3611,8.4908,8.4988,8.4267,8.4171,8.3955,8.3591,8.4311,8.4135,8.3286,8.2424,8.2099,8.2272,8.1957,8.1493,8.0701,8.1153,8.0894,8.0143,8.0051,8.034,8.1066,8.0879,8.1328,8.2121,8.2742,8.3052,8.3087,8.3707,8.4018,8.4018,8.4121,8.4156,8.4156,8.3604,8.4018,8.5328,8.5984,8.6294,8.6294,8.6294,8.6294,8.6294,8.6294,8.6294,8.6294,8.6691,8.6707,8.6011,8.6312,8.5298,8.2813,8.1931,8.0011,0.0,7.5085,0.0,0.0,0.0,0.0,0.0,0.0,0.0,0.0,6.6452,6.8007,7.0598,7.0824,7.1342,7.2638,7.2767,7.2767,7.28,7.3318,7.3771,7.3966,7.4516,7.4827,7.4877,7.4913,7.4936,7.4397,7.4561,7.4293,7.3477,7.3504,7.3448,7.3032,7.3356,7.414,7.5359,7.5592,7.5795,7.608,7.5621,7.4868,7.4231,7.3352,7.1705,6.8331,6.7279,6.5913,6.3056,6.2224,6.1662,6.089,5.9131,5.7338,5.4521,5.2521,5.0545,4.8195,4.5754,4.3506,8.49,8.5067,8.5417,8.5612,8.5806,8.581,8.5591,8.5102,8.5254,8.5026,8.4442,8.4282,8.3745,8.3066,8.4166,8.4085,8.3203,8.445,8.4414,8.3471,8.2734,8.2801,8.341,8.2776,8.288,8.3569,8.3742,8.3811,8.3811,8.3949,8.4018,8.4018,8.4673,8.4949,8.4984,0.0,0.0,0.0,8.6225,8.6294,8.6294,8.6294,8.6294,8.6294,8.6294,0.0,8.6294,8.6429,8.6325,8.6286,8.6054,0.0,0.0,0.0,0.0,0.0,0.0,0.0,0.0,0.0,0.0,0.0,7.172,7.109,6.9599,7.0533,7.1763,7.2864,7.2994,7.3318,7.4095,7.4192,7.4192,7.4225,7.4322,7.4872,7.6006,7.6297,7.641,7.6419,7.6408,7.5557,7.3564,7.3473,7.3507,7.2431,7.2999,7.3702,7.4024,7.4227,7.4634,7.5388,7.594,7.5988,7.5526,7.5402,7.4885,7.4155,7.2664,7.1442,7.0314,6.7826,6.5993,6.4502,6.3424,6.1574,5.9191,5.8241,5.688,5.3008,5.1785,5.0899,4.8527,4.6064,4.3814,8.4738,0.0,8.506,8.5182,0.0,8.5459,8.5339,8.506,8.5339,8.5182,8.4702,8.4702,8.4373,8.3904,8.442,8.4255,8.3524,8.4016,8.4025,8.3665,8.325,8.3392,8.4123,8.3624,8.3673,8.4018,8.4432,8.4604,8.4604,8.4984,8.5156,8.5156,8.557,8.5742,8.5742,8.6122,8.6294,8.6294,8.6294,8.6294,8.6294,8.6294,8.6294,8.6294,0.0,0.0,0.0,0.0,0.0,0.0,0.0,0.0,0.0,0.0,0.0,8.1293,8.0055,7.8695,7.7138,7.6542,7.5834,7.471,7.5256,7.4626,7.2152,7.2929,7.3836,7.4581,7.4937,7.5455,7.6103,7.6491,7.6718,7.6718,7.6718,7.6977,7.7381,7.7754,7.7584,7.6851,7.6525,7.5451,7.352,7.3171,7.3069,7.2715,7.3182,7.3966,7.4808,7.5011,7.5243,7.5853,7.6201,7.6312,7.5678,7.5402,7.4577,7.3303,7.2007,7.0664,6.8996,6.7179,6.5592,6.4482,6.3438,6.2122,5.9408,5.7911,5.5975,5.2848,5.1148,5.0054,4.8535,4.5742,4.3085,8.4824,8.4788,8.4681,8.461,8.461,8.461,8.461,8.461,0.0,0.0,0.0,8.4527,8.4527,8.4445,8.4242,8.3869,8.3472,8.3279,8.325,8.3321,8.3365,8.3755,8.4447,8.4322,8.4294,8.4432,8.5087,8.5397,8.5397,8.6018,8.6294,8.6294,8.6294,8.6294,8.6294,8.6294,8.6294,8.6294,8.6294,8.6294,8.6294,8.6294,8.6294,8.6294,8.6294,8.6294,8.6294,8.6294,8.6294,8.6294,8.6294,8.6018,8.5432,8.5259,8.4639,8.3431,8.2436,8.136,7.9827,7.9023,7.819,7.7253,7.769,7.6945,7.4484,7.4969,7.5617,7.6232,7.6848,7.7398,7.7949,7.8532,7.8888,7.8888,7.8888,7.8791,7.8429,7.8538,7.8258,7.7239,7.6267,7.5175,7.3878,7.3134,7.3037,7.3618,7.3937,7.4343,7.5359,7.5679,7.5824,7.6288,7.6433,7.6312,7.583,7.5374,7.4268,7.2299,7.1311,6.9683,6.7035,6.5692,6.5025,6.365,6.3145,6.1615,5.9517,5.7175,5.4744,5.2291,5.023,4.8848,4.8439,4.533,4.2536,8.5645,8.5573,8.4895,8.461,8.461,8.461,8.461,8.461,8.4692,8.4409,8.3989,8.4445,8.4361,8.4039,8.4864,8.4944,8.4373,8.5437,8.5631,8.5188,8.5038,8.5356,8.6126,8.5375,8.5363,8.5949,8.6087,8.6156,8.6156,8.626,8.6294,8.6294,8.6294,8.6294,8.6294,8.6294,8.6294,8.6294,8.6294,8.6294,8.6294,8.6294,8.6294,8.6294,8.6294,8.6294,8.6294,8.6294,8.6294,8.6294,8.6294,8.626,8.6156,8.5535,8.5121,8.488,8.4127,8.2986,8.1303,8.1056,8.0299,7.8827,7.8694,7.8305,7.7366,7.7852,7.8337,7.8435,7.8499,7.8629,7.8758,7.8888,7.8985,7.892,7.892,7.905,7.9354,7.8683,7.8089,7.761,7.6099,7.4672,7.3809,7.35,7.3647,7.4285,7.4808,7.5475,7.6056,7.6317,7.6346,7.6433,7.6462,7.6161,7.5526,7.5221,7.3929,7.182,7.0011,6.8357,6.6183,6.4677,6.3851,6.3322,6.2029,6.0179,5.7708,5.5215,5.293,5.069,4.9346,4.8867,4.8848,4.5512,4.2501,8.6394,8.6287,8.5573,8.5252,8.5216,8.4824,8.461,8.461,8.461,8.4527,8.4326,8.4527,8.4527,8.4326,8.4819,8.4952,8.4847,8.5166,8.5478,8.5672,8.5415,8.5664,8.6359,8.5975,8.5984,8.6294,8.6294,8.6294,8.6294,8.6294,8.6294,8.6294,8.6294,8.6294,8.6294,8.6294,8.6294,8.6294,8.6294,8.6294,8.6294,8.6294,8.6294,8.6294,8.6294,8.6294,8.6294,8.6294,8.6294,8.6294,8.6294,8.6294,8.6294,8.5984,8.5811,8.5777,8.4592,8.3558,8.2703,8.1823,8.0918,8.0171,8.0054,7.9924,7.9568,7.9147,7.8888,7.8888,7.9244,7.9471,7.9503,7.9827,8.0054,8.0054,8.0054,8.0151,8.0259,7.9966,7.8434,7.5809,7.5612,7.5232,7.3819,7.3618,7.4024,7.4866,7.5621,7.6143,7.6433,7.6462,7.6462,7.6462,7.6462,7.6161,7.5374,7.4423,7.2775,7.0338,6.8357,6.6695,6.4851,6.3675,6.3322,6.3145,6.1671,5.9613,5.7138,5.4847,5.2395,5.0151,4.916,4.8906,4.8459,4.5585,4.2015,8.7179,8.7108,8.6358,8.593,8.5752,8.4967,8.461,8.461,8.461,8.461,8.461,8.461,8.4527,8.4445,8.4706,8.4931,8.5037,8.4898,8.5251,8.5829,8.556,8.5777,8.626,8.6294,8.6294,8.6294,8.6294,8.6294,8.6294,8.6294,8.6294,8.6294,8.6294,8.6294,8.6294,8.6294,8.6294,8.6294,8.6294,8.6294,8.6294,8.6294,8.6294,8.6294,8.6294,8.6294,8.6294,8.6294,8.6294,8.6294,8.6294,8.6294,8.6294,8.6294,8.6194,8.5856,8.4785,8.3817,8.3377,8.1901,8.1025,8.1025,8.1025,8.1025,8.0928,8.0021,7.9374,7.9438,7.9892,8.0216,8.0248,8.0669,8.1025,8.1025,8.1025,8.0961,8.1025,8.0513,7.8561,7.4554,7.4952,7.5096,7.4102,7.3734,7.4343,7.5504,7.6172,7.6433,7.6462,7.6462,7.6462,7.6462,7.6462,7.583,7.4885,7.3432,7.1311,6.869,6.7035,6.552,6.4002,6.3322,6.3249,6.3001,6.1102,5.8842,5.6801,5.4124,5.1715,4.9738,4.918,4.8497,4.712,4.502,4.1315,8.7964,8.7857,8.7108,8.643,8.5716,8.4931,8.461,8.461,8.461,8.461,8.461,8.461,8.4361,8.418,8.5157,8.5464,8.5249,8.5988,8.6196,8.6003,8.6079,8.626,8.6294,8.6294,8.6294,8.6294,8.6294,8.6294,8.6294,8.6294,8.6294,8.6294,8.6294,8.6294,8.6294,8.6294,8.6294,8.6294,8.6294,8.6294,8.6294,8.6294,8.6294,8.6294,8.6294,8.6294,8.6294,8.6294,8.6294,8.6294,8.6294,8.6294,8.6294,8.6294,8.5958,8.5204,8.489,8.4251,8.259,8.1584,8.1025,8.1025,8.1025,8.1025,8.1025,8.0896,8.0799,8.0799,8.0863,8.0863,8.0928,8.0993,8.1025,8.1025,8.1025,8.1025,8.0754,7.8785,7.6999,7.6615,7.451,7.3148,7.3646,7.4082,7.4924,7.5998,7.6317,7.6462,7.6462,7.6462,7.6462,7.6462,7.6132,7.501,7.3404,7.2458,7.0311,6.7179,6.6183,6.4976,6.3778,6.3249,6.3201,6.1794,5.972,5.7144,5.5409,5.2969,5.0171,4.962,4.8749,4.7717,4.4453,4.2915,4.0963,8.8535,8.8,8.7251,8.6216,8.5109,8.4717,8.461,8.461,8.461,8.461,8.461,8.461,8.4777,8.5037,8.5561,8.6167,8.6802,8.6733,8.6802,8.6941,8.6553,8.6294,8.6294,8.6294,8.6294,8.6294,8.6294,8.6294,8.6294,8.6294,8.6294,8.6294,8.6294,8.6294,8.6294,8.6294,8.6294,8.6294,8.6294,8.6294,8.6294,8.6294,8.6294,8.6294,8.6294,8.6294,8.6294,8.6294,8.6294,8.6294,8.6294,8.6294,8.6294,8.6294,8.589,8.4995,8.4035,8.293,8.1734,8.1263,8.1025,8.1025,8.1025,8.1025,8.1025,8.1025,8.1025,8.1025,8.1025,8.1025,8.1025,8.1025,8.1025,8.1025,8.1025,8.1025,8.0906,7.9284,7.7614,7.6139,7.4782,7.3657,7.3704,7.4488,7.5243,7.5882,7.6172,7.6433,7.6462,7.6462,7.6462,7.6283,7.5164,7.3745,7.2589,7.1284,6.9135,6.684,6.5,6.3978,6.3288,6.2889,6.2346,6.0746,5.812,5.5731,5.4026,5.1842,4.9473,4.9071,4.7721,4.6167,4.3296,4.1766,3.9673,8.8321,8.7679,8.6929,8.5966,8.4931,8.4717,8.461,8.461,8.461,8.461,8.461,8.461,8.5038,8.5752,8.6002,8.6858,8.7914,8.7372,8.7339,8.7679,8.6887,8.6429,8.6294,8.6294,8.6294,8.6294,8.6294,8.6294,8.6294,8.6294,8.6294,8.6294,8.6294,8.6294,8.6294,8.6294,8.6294,8.6294,8.6294,8.6294,8.6294,8.6294,8.6294,8.6329,8.6501,8.6605,8.6605,8.6811,8.6949,8.6915,8.6742,8.6605,8.6605,8.6432,8.5754,8.4679,8.3042,8.1701,8.1025,8.1025,8.1025,8.1025,8.1025,8.1025,8.1025,8.1025,8.1025,8.1025,8.1025,8.1025,8.1025,8.1025,8.1025,8.1025,8.1025,8.0874,8.0264,7.9097,7.733,7.5084,7.4194,7.4048,7.3819,7.4372,7.5011,7.5504,7.5911,7.6317,7.6404,7.6462,7.6254,7.542,7.3592,7.2313,7.1679,6.9502,6.7402,6.5389,6.3665,6.2871,6.2432,6.2384,6.1621,5.9704,5.7268,5.5073,5.3037,5.0923,4.9297,4.8614,4.7307,4.5209,4.3106,4.1205,3.9104,8.7001,8.6858,8.6144,8.5752,8.5645,8.4931,8.461,8.461,8.461,8.461,8.461,8.461,8.5038,8.5823,8.643,8.7286,8.8021,8.826,8.8164,8.7808,8.7275,8.6789,8.6294,8.6294,8.6294,8.6294,8.6294,8.6294,8.6294,8.6294,8.6294,8.6294,8.6294,8.6294,8.6294,8.6294,8.6294,8.6294,8.6294,8.6294,8.6294,8.6294,8.6329,8.6432,8.6984,8.7329,8.7432,8.8088,8.8467,8.8467,8.7743,8.7363,8.7294,8.6573,8.5412,8.3926,8.2133,8.1025,8.1025,8.1025,8.1025,8.1025,8.1025,8.1025,8.1025,8.1025,8.1025,8.1025,8.1025,8.1025,8.1025,8.1025,8.1025,8.1025,8.0906,8.011,7.8656,7.7583,7.5744,7.358,7.2952,7.3061,7.3472,7.3647,7.4343,7.5098,7.5534,7.5795,7.6317,7.6462,7.5239,7.3506,7.2073,7.1207,6.9375,6.7637,6.5007,6.3228,6.2687,6.1927,6.1879,6.1586,6.019,5.8692,5.6842,5.4797,5.2257,5.0682,4.9295,4.8273,4.712,4.5209,4.3106,4.1205,3.9104,8.6644,8.6144,8.5359,8.5038,8.5002,8.4717,8.461,8.461,8.461,8.461,8.461,8.461,8.5038,8.5823,8.6073,8.6894,8.8107,8.8366,8.8416,8.8143,8.7466,8.6985,8.6824,8.6494,8.6294,8.6294,8.6294,8.6294,8.6294,8.6294,8.6294,8.6294,8.6294,8.6294,8.6294,8.6294,8.6294,8.6294,8.6294,8.6294,8.6294,8.6294,8.6536,8.6984,8.726,8.7639,8.8157,8.8467,8.8605,8.8605,8.8329,8.7915,8.7296,8.5613,8.4359,8.3598,8.205,8.1025,8.1025,8.1025,8.1025,8.1025,8.1025,8.1025,8.1025,8.1025,8.1025,8.1025,8.1025,8.1025,8.1025,8.1025,8.1025,8.0906,8.0239,7.9376,7.8376,7.6869,7.4977,7.4117,7.3245,7.2718,7.2979,7.3356,7.3937,7.4721,7.5243,7.5737,7.6109,7.5469,7.3929,7.2284,6.9802,6.7462,6.6166,6.5569,6.4075,6.2715,6.1807,6.1566,6.1446,6.1301,6.0305,5.7208,5.5689,5.4266,5.1833,4.9931,4.8848,4.8663,4.7307,4.5209,4.3106,4.1205,3.8894,8.6465,8.5787,8.5216,8.4824,8.461,8.461,8.461,8.461,8.461,8.461,8.461,8.461,8.4931,8.5431,8.568,8.6465,8.7714,8.8152,8.8437,8.8416,8.7714,8.7309,8.702,8.6494,8.6294,8.6294,8.6294,8.6294,8.6294,8.6294,8.6294,8.6294,8.6294,8.6294,8.6294,8.6294,8.6294,8.6294,8.6294,8.6294,8.6329,8.6536,8.7018,8.7708,8.8019,8.8398,8.895,8.9191,8.9329,8.9295,8.9088,8.8502,8.7263,8.5446,8.43,8.3852,8.2537,8.1738,8.1705,8.1738,8.1641,8.1382,8.1382,8.1317,8.109,8.1025,8.1025,8.1025,8.1025,8.1025,8.0906,8.0634,8.036,8.0239,7.944,7.8502,7.7579,7.5875,7.4719,7.3892,7.3111,7.2631,7.266,7.3037,7.3531,7.414,7.4779,7.5417,7.582,7.4533,7.2516,7.1015,6.806,6.5276,6.3651,6.2795,6.2608,6.162,6.1205,6.1037,6.0965,6.082,5.9412,5.6125,5.4121,5.2977,5.133,4.942,4.8848,4.8848,4.7326,4.5209,4.3106,4.1189,3.8894,8.6501,8.5894,8.5823,8.5395,8.486,8.4753,8.4646,8.4646,8.461,8.461,8.461,8.461,8.4646,8.4824,8.5395,8.6144,8.6929,8.7629,8.824,8.8471,8.7959,8.7561,8.7178,8.6593,8.6294,8.6294,8.6294,8.6294,8.6294,8.6294,8.6294,8.6294,8.6294,8.6294,8.6294,8.6294,8.6294,8.6294,8.6294,8.6294,8.6398,8.6949,8.7674,8.8501,8.9157,8.9571,8.9709,9.0329,9.0605,9.0605,9.0054,8.8911,8.7449,8.6307,8.5478,8.4456,8.3639,8.313,8.3098,8.3033,8.2644,8.2223,8.2094,8.1738,8.1284,8.109,8.1025,8.1025,8.1025,8.1025,8.0754,7.9809,7.916,7.8911,7.8628,7.745,7.5638,7.4689,7.4169,7.2999,7.2602,7.2631,7.2631,7.2689,7.3066,7.3734,7.4139,7.4629,7.4873,7.3592,7.1639,6.9079,6.6202,6.3794,6.1785,6.0195,6.0387,6.0267,6.0388,6.0388,6.0291,6.0026,5.8274,5.5444,5.3608,5.2257,5.056,4.8848,4.8848,4.8478,4.6747,4.5397,4.3106,4.1189,3.8878,8.6751,8.6573,8.6537,8.643,8.6109,8.5645,8.5098,8.4587,8.4563,8.461,8.461,8.461,8.461,8.4646,8.4895,8.5431,8.618,8.6965,8.7879,8.8721,8.8143,8.7714,8.7431,8.6691,8.6294,8.6294,8.6294,8.6294,8.6294,8.6294,8.6294,8.6294,8.6294,8.6294,8.6294,8.6294,8.6294,8.6294,8.6294,8.6294,8.6363,8.7053,8.7812,8.857,8.9295,8.9916,9.0433,9.0709,9.0812,9.0812,9.0571,8.9667,8.8089,8.66,8.543,8.4537,8.3616,8.3195,8.3195,8.3195,8.3163,8.2806,8.2418,8.2062,8.1738,8.1317,8.1058,8.1025,8.1025,8.1025,8.0754,7.9686,7.8879,7.8879,7.7191,7.5875,7.4719,7.3782,7.314,7.2744,7.2631,7.2631,7.2631,7.2631,7.3008,7.3792,7.3432,7.3292,7.3619,7.1547,6.901,6.7126,6.4655,6.2834,6.1377,6.0364,6.0171,6.0171,6.0171,6.0171,6.0003,5.9111,5.716,5.5093,5.3251,5.1491,4.9604,4.8848,4.8848,4.8848,4.8088,4.5979,4.3487,4.1381,3.9447,8.7607,8.7358,8.7358,8.7179,8.6858,8.6394,8.5811,8.5264,8.5347,8.5573,8.5645,8.5252,8.5038,8.4967,8.4753,8.5074,8.5823,8.6573,8.7607,8.8663,8.8381,8.7959,8.7679,8.6789,8.6294,8.6294,8.6294,8.6294,8.6294,8.6294,8.6294,8.6294,8.6294,8.6294,8.6294,8.6294,8.6294,8.6294,8.6294,8.6294,8.6536,8.7329,8.8088,8.8639,8.9571,9.0295,9.0778,9.046,9.0494,9.0707,9.0494,8.9431,8.7812,8.6727,8.5798,8.4882,8.4309,8.4005,8.3972,8.4037,8.381,8.3551,8.3163,8.2612,8.2191,8.1608,8.1382,8.109,8.1025,8.0754,8.0085,7.8911,7.7963,7.7321,7.5875,7.4582,7.3922,7.314,7.2744,7.2631,7.2631,7.2631,7.2631,7.266,7.3008,7.3646,7.2986,7.2147,7.2294,6.9935,6.7889,6.5909,6.3885,6.2373,6.1207,6.0604,6.0219,6.0171,6.0171,6.0171,6.0171,5.8601,5.6814,5.4056,5.1853,5.054,4.8848,4.8848,4.8848,4.8848,4.8663,4.6542,4.4057,4.2915,4.0836,8.8856,8.8178,8.8178,8.7786,8.7179,8.7036,8.6751,8.6417,8.6644,8.6929,8.7121,8.6251,8.5859,8.568,8.5252,8.5359,8.593,8.6751,8.7429,8.8164,8.8331,8.8234,8.762,8.6691,8.6294,8.6294,8.6294,8.6294,8.6294,8.6294,8.6294,8.6294,8.6294,8.6294,8.6294,8.6294,8.6294,8.6294,8.6294,8.6294,8.6398,8.7777,8.8536,8.8674,8.9846,9.0532,9.046,8.9813,8.9813,9.0353,8.9813,8.8632,8.7123,8.6678,8.6184,8.5323,8.5235,8.5138,8.5203,8.5041,8.4847,8.4328,8.4069,8.3681,8.2612,8.2288,8.19,8.1284,8.1187,8.0577,7.9223,7.7836,7.6406,7.4962,7.4445,7.3782,7.2886,7.2602,7.2602,7.2631,7.2631,7.2631,7.2631,7.2631,7.2864,7.3036,7.2396,7.1687,7.0918,6.8958,6.699,6.5163,6.3228,6.2226,6.1253,6.0556,6.0219,6.0171,6.0003,5.9811,5.9111,5.7355,5.5422,5.265,5.0904,4.9604,4.8848,4.8848,4.8848,4.8848,4.8088,4.6542,4.485,4.3348,4.0999,8.9178,8.8999,8.8999,8.8892,8.8607,8.8071,8.7714,8.7572,8.7108,8.7108,8.7001,8.6787,8.6608,8.6573,8.6394,8.643,8.6715,8.7393,8.7821,8.8178,8.8841,8.8361,8.737,8.6593,8.6294,8.6294,8.6294,8.6294,8.6294,8.6294,8.6294,8.6294,8.6294,8.6294,8.6294,8.6294,8.6294,8.6294,8.6294,8.6329,8.657,8.7812,8.857,8.8743,8.9385,8.9887,8.9703,8.9004,8.8552,8.8779,8.8666,8.7945,8.6798,8.6678,8.6226,8.5518,8.5268,8.5268,8.5268,8.5268,8.517,8.4976,8.4523,8.4069,8.3713,8.3195,8.2612,8.1997,8.1835,8.0939,7.9194,7.7481,7.5772,7.3672,7.331,7.314,7.2744,7.2631,7.2631,7.2631,7.2631,7.2631,7.2631,7.2517,7.2432,7.2233,7.1172,6.9873,6.9156,6.7544,6.5517,6.4432,6.3026,6.2172,6.1422,6.0676,6.0243,6.0195,5.9835,5.9111,5.7527,5.5224,5.2766,5.0134,4.9971,4.9032,4.8848,4.8848,4.8848,4.8906,4.8536,4.7439,4.4596,4.2528,4.0234,8.932,8.932,8.932,8.932,8.9249,8.8785,8.8607,8.85,8.8143,8.7893,8.7857,8.7536,8.7393,8.7358,8.7072,8.6894,8.7001,8.775,8.7986,8.7868,8.8133,8.7901,8.7275,8.6691,8.6294,8.6294,8.6294,8.6294,8.6294,8.6294,8.6294,8.6294,8.6294,8.6294,8.6294,8.6294,8.6294,8.6294,8.6329,8.6432,8.6846,8.795,8.8708,8.8949,8.9341,8.9261,8.8438,8.7746,8.7511,8.7511,8.7478,8.7038,8.6226,8.6103,8.5857,8.5268,8.5268,8.5268,8.5268,8.5268,8.5268,8.5235,8.4847,8.4523,8.4199,8.381,8.3325,8.2677,8.258,8.1275,7.9061,7.6916,7.4892,7.3437,7.2805,7.2631,7.2631,7.2631,7.2631,7.2631,7.2631,7.2631,7.2631,7.2028,7.1903,7.1474,6.9779,6.8731,6.7685,6.5911,6.4478,6.3584,6.2925,6.2148,6.147,6.0772,6.0075,6.0003,5.8407,5.787,5.6098,5.3458,5.1507,4.9748,4.9216,4.8867,4.8906,4.8945,4.9004,4.9043,4.9062,4.7685,4.4516,4.209,3.9746,8.932,8.932,8.932,8.932,8.932,8.932,8.9213,8.9285,8.9178,8.9178,8.9035,8.85,8.8214,8.8178,8.7714,8.7251,8.7286,8.795,8.778,8.7619,8.7527,8.7466,8.7526,8.6691,8.6294,8.6294,8.6294,8.6294,8.6294,8.6294,8.6294,8.6294,8.6294,8.6294,8.6294,8.6294,8.6294,8.6294,8.6294,8.6674,8.7294,8.8157,8.8881,8.9501,8.9226,8.829,8.7157,8.6557,8.6557,8.6557,8.6557,8.6103,8.5393,8.5268,8.5268,8.5268,8.5268,8.5268,8.5268,8.5268,8.5268,8.5268,8.5268,8.5041,8.4523,8.4328,8.4037,8.3357,8.3169,8.1411,7.8647,7.5706,7.4281,7.3647,7.3182,7.2892,7.2805,7.2718,7.2631,7.2631,7.2631,7.2631,7.2172,7.139,7.0576,7.0852,6.9182,6.7749,6.6872,6.5445,6.4353,6.345,6.2648,6.1879,6.1374,6.0869,6.0098,5.9473,5.6814,5.54,5.4345,5.2408,5.0803,4.9564,4.9032,4.8945,4.9062,4.9101,4.9199,4.9001,4.8969,4.6845,4.4091,4.2196,3.9953,8.932,8.932,8.932,8.932,8.932,8.932,8.932,8.932,8.932,8.9198,8.9249,8.9106,8.8999,8.9035,8.8749,8.8785,8.8556,8.8508,8.8204,8.7748,8.7667,8.7466,8.7275,8.6593,8.6294,8.6294,8.6294,8.6294,8.6294,8.6294,8.6294,8.6294,8.6294,8.6294,8.6294,8.6294,8.6294,8.6294,8.6294,8.6708,8.7467,8.8226,8.8984,8.95,8.8855,8.7478,8.598,8.5642,8.5642,8.5642,8.5642,8.5518,8.5393,8.5268,8.5268,8.5268,8.5268,8.5268,8.5268,8.5268,8.5268,8.5268,8.5268,8.5235,8.5106,8.5009,8.4685,8.3918,8.2907,8.0914,7.7819,7.553,7.4489,7.4285,7.4169,7.4024,7.3966,7.324,7.2805,7.2718,7.2718,7.2631,7.2546,7.1495,7.0628,7.0063,6.8545,6.6965,6.6026,6.5,6.4178,6.3322,6.2696,6.1975,6.1494,6.0794,5.9541,5.8407,5.5924,5.3437,5.2387,5.1326,4.9911,4.9216,4.9032,4.8984,4.9199,4.9414,4.9531,4.92,4.8672,4.6247,4.4008,4.216,3.9906,8.932,8.932,8.932,8.932,8.9233,8.9023,8.8899,8.8934,8.8899,8.8899,8.9023,8.9198,8.932,8.932,8.932,8.9285,8.911,8.8542,8.8051,8.7679,8.7335,8.695,8.6789,8.6494,8.6294,8.6294,8.6294,8.6294,8.6294,8.6294,8.6294,8.6294,8.6294,8.6294,8.6294,8.6294,8.6294,8.6294,8.6329,8.6811,8.7881,8.8364,8.8634,8.8885,8.8317,8.7275,8.5518,8.5268,8.5268,8.5268,8.5268,8.5268,8.5268,8.5268,8.5268,8.5268,8.5268,8.5268,8.5268,8.5268,8.5268,8.5268,8.5268,8.5268,8.5268,8.5268,8.4728,8.3867,8.2774,8.1102,7.7905,7.5889,7.5158,7.4924,7.4721,7.4576,7.443,7.3908,7.3501,7.3501,7.3589,7.2804,7.2126,7.1014,6.9534,6.8278,6.6692,6.5238,6.5098,6.4353,6.4026,6.3354,6.2648,6.2095,6.1638,6.0524,5.8741,5.7332,5.5377,5.2745,5.0803,4.9911,4.9032,4.8887,4.8945,4.9219,4.9433,4.9648,4.9941,4.9874,4.8705,4.6199,4.3937,4.173,3.9206,8.932,8.932,8.932,8.932,8.9233,8.881,8.8632,8.8506,8.8506,8.8596,8.8596,8.9023,8.911,8.932,8.932,8.9233,8.8846,8.8452,8.7959,8.7335,8.6985,8.6593,8.6394,8.6294,8.6294,8.6294,8.6294,8.6294,8.6294,8.6294,8.6294,8.6294,8.6294,8.6294,8.6294,8.6294,8.6294,8.6294,8.6329,8.7018,8.8226,8.8605,8.8525,8.8182,8.7795,8.7038,8.5642,8.5268,8.5268,8.5268,8.5268,8.5268,8.5268,8.5268,8.5268,8.5268,8.5268,8.5268,8.5268,8.5268,8.5268,8.5268,8.5268,8.5268,8.5268,8.4889,8.4155,8.3345,8.2293,8.0939,7.8639,7.6799,7.5827,7.5563,7.5127,7.4866,7.4808,7.4808,7.475,7.4372,7.3906,7.3203,7.1642,7.0246,6.8439,6.6541,6.5088,6.3964,6.3982,6.3851,6.3675,6.3378,6.272,6.1975,6.147,6.06,5.8841,5.6445,5.4499,5.2387,5.0094,4.94,4.8867,4.8984,4.9101,4.9394,4.9726,5.0039,5.0181,5.0339,4.8517,4.5568,4.3305,4.1297,3.8441,8.932,8.932,8.932,8.932,8.932,8.9233,8.881,8.8506,8.8416,8.8506,8.8506,8.8596,8.8899,8.9198,8.932,8.8846,8.8452,8.8143,8.7679,8.6985,8.6761,8.6795,8.6294,8.6432,8.6363,8.6294,8.6294,8.6294,8.6294,8.6294,8.6294,8.6294,8.6294,8.6294,8.6294,8.6294,8.6294,8.6294,8.6329,8.7087,8.8226,8.8639,8.8487,8.8075,8.7478,8.6469,8.5642,8.5268,8.5268,8.5268,8.5268,8.5268,8.5268,8.5268,8.5268,8.5268,8.5268,8.5268,8.5268,8.5268,8.5268,8.5268,8.5268,8.5268,8.5016,8.4219,8.3376,8.2419,8.0756,7.8813,7.715,7.6409,7.6438,7.623,7.6143,7.5998,7.5998,7.5911,7.5563,7.4953,7.4279,7.3271,7.1434,6.9559,6.7887,6.6372,6.49,6.4035,6.3905,6.3851,6.3675,6.3329,6.2865,6.2023,6.1229,6.0337,5.8917,5.6098,5.3969,5.2387,5.0459,4.938,4.8906,4.9062,4.9336,4.9687,5.0019,5.041,5.0742,5.0881,4.8011,4.4681,4.2693,4.0698,3.7861,8.932,8.932,8.932,8.932,8.9233,8.9023,8.8632,8.8143,8.8143,8.7994,8.7994,8.8234,8.8596,8.8899,8.9233,8.8934,8.8632,8.8178,8.7679,8.7178,8.7136,8.6904,8.6467,8.6674,8.657,8.6432,8.6294,8.6294,8.6294,8.6294,8.6294,8.6294,8.6294,8.6294,8.6294,8.6294,8.6294,8.6294,8.6398,8.7053,8.8468,8.8774,8.8727,8.8055,8.7157,8.6226,8.5518,8.5268,8.5268,8.5268,8.5268,8.5268,8.5268,8.5268,8.5268,8.5268,8.5268,8.5268,8.5268,8.5268,8.5268,8.5268,8.5268,8.5268,8.5016,8.4058,8.2419,8.0756,7.9242,7.7298,7.6583,7.6462,7.6462,7.6462,7.6462,7.6462,7.6462,7.6462,7.6027,7.5504,7.5116,7.3699,7.0842,6.9236,6.7697,6.6051,6.453,6.3929,6.3675,6.3675,6.3675,6.3305,6.2841,6.2167,6.1154,5.9849,5.8453,5.5749,5.3437,5.1868,5.0439,4.9216,4.9043,4.9258,4.959,4.9922,5.041,5.082,5.1133,5.0959,4.7329,4.4312,4.2506,4.0286,3.704,8.932,8.932,8.932,8.932,8.9233,8.881,8.8416,8.7959,8.7866,8.762,8.737,8.7959,8.8416,8.8632,8.8899,8.9023,8.8934,8.8086,8.7784,8.7623,8.7651,8.7219,8.688,8.6949,8.7018,8.6363,8.6294,8.6294,8.6294,8.6294,8.6294,8.6294,8.6294,8.6294,8.6294,8.6294,8.6294,8.6294,8.6363,8.7087,8.8122,8.8715,8.8644,8.7829,8.6918,8.598,8.5393,8.5268,8.5268,8.5268,8.5268,8.5268,8.5268,8.5268,8.5268,8.5268,8.5268,8.5268,8.5268,8.5268,8.5268,8.5268,8.5268,8.5268,8.473,8.3507,8.1442,7.8813,7.7446,7.6612,7.6462,7.6462,7.6462,7.6462,7.6462,7.6462,7.6462,7.6462,7.6462,7.6109,7.5981,7.3944,7.0825,6.9063,6.7622,6.5296,6.3778,6.3778,6.3498,6.3498,6.3274,6.3105,6.2768,6.2215,6.1025,5.9327,5.763,5.5224,5.3102,5.1326,5.0094,4.9032,4.9141,4.9453,4.9805,5.0176,5.0703,5.1113,5.1289,4.9983,4.6569,4.4144,4.2726,3.9668,3.6216,8.932,8.932,8.932,8.932,8.932,8.9198,8.8899,8.8416,8.7959,8.7773,8.762,8.7901,8.8143,8.8506,8.8542,8.8361,8.8178,8.7913,8.7815,8.7784,8.7969,8.7804,8.726,8.7329,8.7018,8.6432,8.6294,8.6294,8.6294,8.6294,8.6294,8.6294,8.6294,8.6294,8.6294,8.6294,8.6294,8.6294,8.6329,8.6646,8.7211,8.7396,8.7194,8.6753,8.6103,8.5518,8.53,8.5268,8.5268,8.5268,8.5268,8.5268,8.5268,8.5268,8.5268,8.5268,8.5268,8.5268,8.5268,8.5268,8.5268,8.5268,8.5268,8.5268,8.4315,8.2419,7.9919,7.715,7.6612,7.6462,7.6462,7.6462,7.6462,7.6462,7.6462,7.6462,7.6462,7.6462,7.6462,7.6132,7.583,7.3348,7.0502,6.9083,6.7492,6.5174,6.3322,6.3322,6.3322,6.3322,6.3322,6.3177,6.2641,6.2089,6.045,5.8774,5.6525,5.4388,5.2566,5.0803,4.9931,4.8926,4.9355,4.9687,5.0019,5.0371,5.0859,5.1191,5.1367,4.961,4.6569,4.4749,4.3318,3.9668,3.5612,8.932,8.932,8.932,8.932,8.932,8.932,8.9023,8.8506,8.7959,8.762,8.7526,8.7679,8.8178,8.8632,8.8416,8.8361,8.8467,8.8229,8.8104,8.8341,8.8628,8.8429,8.7674,8.7777,8.7536,8.657,8.6294,8.6294,8.6294,8.6294,8.6294,8.6294,8.6294,8.6294,8.6294,8.6294,8.6294,8.6332,8.6337,8.6608,8.6779,8.6554,8.6362,8.6612,8.5734,8.5393,8.5268,8.5268,8.5268,8.5268,8.5268,8.5268,8.5268,8.5268,8.5268,8.5268,8.5268,8.5268,8.5268,8.5268,8.5268,8.5268,8.5142,8.4603,8.295,8.1032,7.8956,7.6733,7.6462,7.6462,7.6462,7.6462,7.6462,7.6462,7.6462,7.6462,7.6462,7.6462,7.6462,7.5981,7.5164,7.2719,7.0447,6.8804,6.701,6.4677,6.3322,6.3322,6.3322,6.3322,6.3322,6.3298,6.2689,6.2011,5.9821,5.7639,5.5357,5.3072,5.1166,4.9748,4.938,4.9043,4.9394,4.9766,5.0078,5.0488,5.0976,5.123,5.1406,4.9199,4.6769,4.4933,4.2709,3.8856,3.5401,8.932,8.932,8.932,8.932,8.932,8.932,8.911,8.8721,8.8178,8.7714,8.7466,8.7526,8.8086,8.8577,8.8121,8.8042,8.8931,8.8435,8.8635,8.9066,8.9457,8.9121,8.8501,8.8433,8.7881,8.657,8.6398,8.6329,8.6294,8.6294,8.6294,8.6294,8.6294,8.6294,8.6294,8.6294,8.6294,8.6263,8.5994,8.6083,8.6181,8.5715,8.5624,8.5734,8.5636,8.5268,8.5268,8.5268,8.5268,8.5268,8.5268,8.5268,8.5268,8.5268,8.5268,8.5268,8.5268,8.5268,8.5268,8.5268,8.5268,8.5142,8.4603,8.3637,8.1442,7.9526,7.812,7.6612,7.6462,7.6462,7.6462,7.6462,7.6462,7.6462,7.6462,7.6462,7.6462,7.6462,7.6103,7.5534,7.4436,7.2561,7.0447,6.8664,6.6695,6.4178,6.3322,6.3322,6.3322,6.3322,6.3322,6.3145,6.2042,6.1299,5.9339,5.7021,5.4374,5.2055,5.0154,4.9032,4.9032,4.8984,4.9277,4.9648,5.0117,5.0605,5.1113,5.1269,5.1231,4.9199,4.7185,4.4531,4.1706,3.7846,3.5612,8.932,8.932,8.932,8.932,8.932,8.932,8.932,8.9146,8.8632,8.8143,8.762,8.737,8.7561,8.7714,8.7596,8.7658,8.8286,8.8161,8.8797,8.9565,9.0052,8.9915,8.9329,8.8777,8.8191,8.726,8.6777,8.6467,8.6294,8.6294,8.6294,8.6294,8.6294,8.6294,8.6294,8.6294,8.6294,8.6093,8.5547,8.504,8.5024,8.4705,8.4489,8.4666,8.5036,8.5268,8.5268,8.5268,8.5268,8.5268,8.5268,8.5268,8.5268,8.5268,8.5268,8.5268,8.5268,8.5268,8.5268,8.5268,8.5268,8.4857,8.3929,8.2552,8.0618,7.9384,7.7974,7.6733,7.6612,7.6462,7.6462,7.6462,7.6462,7.6462,7.6462,7.6462,7.6462,7.6462,7.5924,7.5145,7.3732,7.1898,6.9794,6.8022,6.6354,6.3826,6.3322,6.3322,6.3322,6.3322,6.3322,6.2967,6.1492,6.0263,5.8699,5.6375,5.3366,5.1493,4.9768,4.9216,4.8848,4.9023,4.916,4.9726,5.0215,5.0723,5.1152,5.1134,5.0842,4.9629,4.7383,4.374,4.0682,3.7444,3.5809,8.932,8.932,8.932,8.932,8.932,8.932,8.932,8.9233,8.8721,8.8234,8.7773,8.737,8.737,8.7431,8.702,8.7402,8.8488,8.8489,8.9221,8.9983,9.0503,9.0296,8.9778,8.9295,8.8639,8.7674,8.7087,8.6674,8.6329,8.6329,8.6294,8.6294,8.6294,8.6294,8.6294,8.6294,8.6294,8.589,8.5063,8.4262,8.4422,8.3596,8.3398,8.429,8.4361,8.4879,8.517,8.5268,8.5268,8.5268,8.5268,8.5268,8.5268,8.5268,8.5268,8.5268,8.5268,8.5268,8.5268,8.5268,8.4889,8.3767,8.2552,8.1169,7.9779,7.8265,7.7298,7.6612,7.6462,7.6462,7.6462,7.6462,7.6462,7.6462,7.6462,7.6462,7.6462,7.6341,7.5116,7.397,7.2868,7.1445,6.9327,6.7348,6.552,6.3675,6.3498,6.3322,6.3322,6.3145,6.3145,6.241,6.0928,5.8797,5.7267,5.4926,5.2354,5.0943,4.94,4.9216,4.8848,4.8867,4.9101,4.9707,5.0273,5.0683,5.0842,5.094,5.0451,4.9648,4.6388,4.1911,3.9063,3.6621,3.6019,8.932,8.932,8.932,8.932,8.932,8.932,8.932,8.9198,8.8899,8.8325,8.7808,8.737,8.7178,8.7178,8.7067,8.7354,8.8549,8.8978,8.9638,9.0296,9.0676,9.0467,9.0123,8.9674,8.9122,8.8122,8.7501,8.7087,8.6708,8.6432,8.6329,8.6294,8.6294,8.6294,8.6294,8.6294,8.6194,8.5549,8.4606,8.3654,8.3852,8.295,8.2612,8.3746,8.4102,8.4652,8.5073,8.5268,8.5268,8.5268,8.5268,8.5268,8.5268,8.5268,8.5268,8.5268,8.5268,8.5268,8.5268,8.5142,8.4603,8.3376,8.185,8.0339,7.8813,7.7446,7.6583,7.6612,7.6462,7.6462,7.6462,7.6462,7.6462,7.6462,7.6462,7.6462,7.637,7.6068,7.4362,7.279,7.1465,7.0148,6.8164,6.6011,6.4851,6.3498,6.3498,6.3322,6.3322,6.3145,6.279,6.1671,6.0181,5.7912,5.5613,5.3403,5.1136,5.029,4.9216,4.9032,4.8848,4.8848,4.916,4.9844,5.0332,5.0433,5.0397,5.0374,5.0274,4.9882,4.5604,4.0903,3.7846,3.5809,3.5612,8.932,8.932,8.932,8.932,8.932,8.932,8.932,8.932,8.9198,8.8632,8.7808,8.7275,8.6789,8.6632,8.688,8.7706,8.8602,8.9295,9.0054,9.0641,9.0814,9.0743,9.0502,9.0088,8.9674,8.9295,8.8501,8.7743,8.726,8.6777,8.6501,8.6329,8.6294,8.6294,8.6294,8.6294,8.589,8.4995,8.4143,8.3443,8.274,8.2302,8.2506,8.3098,8.3746,8.4361,8.4879,8.5235,8.5268,8.5268,8.5268,8.5268,8.5268,8.5268,8.5268,8.5268,8.5268,8.5268,8.5268,8.5268,8.4315,8.2982,8.1442,8.02,7.8669,7.7446,7.6462,7.6462,7.6462,7.6462,7.6462,7.6462,7.6462,7.6462,7.6462,7.637,7.6277,7.5764,7.3929,7.1714,7.0099,6.8638,6.6499,6.4677,6.4002,6.3322,6.3322,6.3322,6.3322,6.3145,6.279,6.1132,5.9613,5.7182,5.462,5.208,5.0091,4.9219,4.8848,4.8848,4.8848,4.8848,4.9297,4.998,5.0103,4.9934,4.9991,4.9863,4.8861,4.7238,4.4397,4.0317,3.7249,3.5204,3.5204,8.932,8.932,8.932,8.932,8.932,8.932,8.932,8.9233,8.8934,8.8452,8.7808,8.7275,8.6824,8.6636,8.7122,8.7881,8.8639,8.9364,9.0123,9.0743,9.0812,9.0812,9.0674,9.0502,9.0157,8.9709,8.8984,8.8157,8.7398,8.6984,8.6674,8.6467,8.6194,8.6294,8.6294,8.6194,8.589,8.5029,8.4143,8.3299,8.2428,8.1792,8.177,8.2515,8.3227,8.3907,8.462,8.4976,8.5268,8.5268,8.5268,8.5268,8.5268,8.5268,8.5268,8.5268,8.5268,8.5268,8.5016,8.4475,8.3114,8.2016,8.1032,7.9638,7.7564,7.6882,7.6612,7.6462,7.6462,7.6462,7.6462,7.6462,7.6462,7.6462,7.6341,7.6277,7.6032,7.5249,7.3859,7.0924,6.8831,6.6975,6.5,6.4353,6.3498,6.3322,6.3322,6.3322,6.3322,6.3145,6.279,6.0748,5.8791,5.6241,5.382,5.1577,4.9993,4.9101,4.8848,4.8848,4.8848,4.8848,4.911,4.9525,4.9567,4.9435,4.9214,4.8447,4.6223,4.3992,4.1533,3.93,3.6425,3.5204,3.5204,8.932,8.932,8.932,8.932,8.932,8.932,8.932,8.9198,8.8899,8.8452,8.7808,8.7466,8.7159,8.7047,8.7467,8.8226,8.9019,8.9743,9.0192,9.0812,9.0812,9.0812,9.0812,9.0778,9.0536,9.0054,8.9433,8.8674,8.7881,8.726,8.6777,8.6297,8.5992,8.5754,8.5856,8.589,8.5652,8.4785,8.3817,8.3042,8.205,8.1511,8.1414,8.2126,8.2839,8.3519,8.4199,8.4782,8.5268,8.5268,8.5268,8.5268,8.5268,8.5268,8.5268,8.5268,8.5268,8.5268,8.5016,8.3929,8.2685,8.1169,8.0479,7.8956,7.715,7.6612,7.6612,7.6462,7.6462,7.6462,7.6462,7.6462,7.6462,7.6462,7.619,7.6126,7.5641,7.4732,7.2692,6.9884,6.7541,6.5614,6.4178,6.3826,6.3322,6.3322,6.3322,6.3322,6.3322,6.3145,6.241,6.0204,5.8218,5.5729,5.3489,5.116,4.9875,4.8984,4.8848,4.8848,4.8867,4.8702,4.8982,4.9031,4.8919,4.8705,4.8312,4.7039,4.4598,4.1942,3.9492,3.7458,3.5401,3.5204,3.5204,8.932,8.932,8.932,8.932,8.932,8.932,8.932,8.932,8.9269,8.8773,8.7913,8.7925,8.7673,8.7637,8.826,8.895,8.9605,9.0364,9.064,9.0778,9.0812,9.0812,9.0812,9.0778,9.0709,9.026,8.964,8.8915,8.8398,8.6953,8.6231,8.589,8.5239,8.4995,8.5204,8.5343,8.489,8.3926,8.3487,8.2623,8.1467,8.1144,8.1349,8.1964,8.2709,8.3389,8.4102,8.4749,8.517,8.5268,8.5268,8.5268,8.5268,8.5268,8.5268,8.5268,8.5268,8.5268,8.5016,8.3799,8.2419,8.0894,7.9384,7.7974,7.7002,7.6462,7.6462,7.6462,7.6462,7.6462,7.6462,7.6462,7.6462,7.6312,7.5981,7.5555,7.4914,7.3561,7.1229,6.8977,6.6831,6.5,6.3826,6.3322,6.3322,6.3322,6.3322,6.3322,6.3322,6.3322,6.2029,5.9453,5.7415,5.5256,5.303,5.116,4.9875,4.9004,4.8867,4.8848,4.8682,4.8536,4.8492,4.8461,4.8061,4.7932,4.7864,4.5718,4.2774,4.0317,3.847,3.6635,3.5204,3.5204,3.5204,8.932,8.932,8.932,8.932,8.932,8.932,8.932,8.9269,8.9108,8.8944,8.9201,8.8578,8.8354,8.8329,8.9053,8.9467,8.9916,9.0398,9.0674,9.0812,9.0812,9.0812,9.0812,9.0812,9.0812,9.0467,8.9812,8.8915,8.8054,8.6474,8.4995,8.4359,8.4251,8.4143,8.4143,8.4359,8.3598,8.3154,8.285,8.2165,8.1381,8.1025,8.1284,8.1705,8.2644,8.3292,8.3778,8.4749,8.517,8.5268,8.5268,8.5268,8.5268,8.5268,8.5268,8.5268,8.5268,8.5268,8.4857,8.295,8.1306,8.0479,7.8669,7.7298,7.6612,7.6462,7.6462,7.6462,7.6462,7.6462,7.6462,7.6462,7.6462,7.6312,7.583,7.5164,7.4366,7.2403,7.0231,6.748,6.537,6.4503,6.3322,6.3322,6.3322,6.3322,6.3322,6.3322,6.3322,6.3322,6.2232,5.9635,5.7459,5.5693,5.3343,5.1249,5.0171,4.9121,4.8965,4.8848,4.8682,4.8575,4.8377,4.7951,4.7604,4.7665,4.7717,4.511,4.1627,4.0302,3.8678,3.6635,3.5204,3.5204,3.5164,8.932,8.932,8.932,8.932,8.932,8.932,8.932,8.9236,8.9209,8.9542,8.9932,8.9245,8.8948,8.9088,8.9502,8.9847,9.0226,9.0571,9.0812,9.0812,9.0812,9.0812,9.0812,9.0778,9.0571,9.026,8.9501,8.8467,8.733,8.5777,8.411,8.3817,8.3487,8.3265,8.3154,8.2817,8.2362,8.2165,8.205,8.1701,8.1414,8.109,8.1187,8.1641,8.2709,8.3195,8.3681,8.4782,8.517,8.5268,8.5268,8.5268,8.5268,8.5268,8.5268,8.5268,8.5268,8.5268,8.4857,8.2552,8.1442,8.02,7.8265,7.6882,7.6612,7.6462,7.6462,7.6462,7.6462,7.6462,7.6462,7.6462,7.6462,7.6462,7.5621,7.4618,7.3164,7.139,6.8812,6.6051,6.463,6.3778,6.3322,6.3322,6.3322,6.3322,6.3322,6.3322,6.3322,6.3322,6.2232,6.0204,5.8218,5.6336,5.3924,5.1731,5.0171,4.9199,4.8945,4.8848,4.8848,4.837,4.7778,4.7554,4.7202,4.7185,4.7107,4.414,4.1296,3.9958,3.8397,3.637,3.5164,3.5204,3.5137,8.932,8.932,8.932,8.932,8.932,8.9392,8.936,8.9325,8.971,8.9999,9.0164,8.9727,8.9636,8.9743,8.995,9.0226,9.0502,9.0778,9.0812,9.0812,9.0812,9.0812,9.0812,9.0778,9.0467,8.9743,8.8881,8.7882,8.5977,8.4371,8.3487,8.3487,8.2737,8.228,8.2165,8.1701,8.1564,8.1792,8.1995,8.1995,8.1523,8.1284,8.1511,8.2191,8.2936,8.3584,8.4199,8.4782,8.5268,8.5268,8.5268,8.5268,8.5268,8.5268,8.5268,8.5268,8.5268,8.5268,8.4603,8.2521,8.1306,7.9919,7.8265,7.7031,7.6462,7.6462,7.6462,7.6462,7.6462,7.6462,7.6462,7.6462,7.6462,7.6312,7.5649,7.431,7.2766,7.0367,6.744,6.5025,6.4031,6.3322,6.3322,6.3322,6.3322,6.3322,6.3322,6.3322,6.3322,6.3322,6.241,6.0928,5.8608,5.6522,5.4562,5.2209,5.019,4.9297,4.8984,4.8663,4.8497,4.7998,4.7159,4.6685,4.6371,4.6314,4.5825,4.2641,4.0202,3.9729,3.8,3.5869,3.5084,3.5044,3.503,8.932,8.932,8.932,8.932,8.9392,8.9963,8.9911,8.9436,9.0457,9.0757,9.0612,9.0534,9.04,9.0398,9.0433,9.064,9.0743,9.0812,9.0812,9.0812,9.0812,9.0812,9.0812,9.0778,9.0364,8.9709,8.8639,8.681,8.4715,8.3287,8.2395,8.1818,8.1499,8.1499,8.1499,8.1025,8.122,8.1673,8.2075,8.2259,8.2085,8.2418,8.2839,8.313,8.3584,8.394,8.4458,8.4879,8.517,8.5268,8.5268,8.5268,8.5268,8.5268,8.5268,8.5268,8.5142,8.5016,8.4315,8.2521,8.0894,7.9919,7.841,7.715,7.6462,7.6462,7.6462,7.6462,7.6462,7.6462,7.6462,7.6462,7.6462,7.6161,7.5678,7.3972,7.2265,6.9056,6.5839,6.4503,6.3498,6.3322,6.3322,6.3322,6.3322,6.3322,6.3322,6.3322,6.3322,6.3322,6.2967,6.1468,5.8859,5.6685,5.4684,5.2313,4.9944,4.8885,4.8555,4.8312,4.8312,4.7607,4.6728,4.5859,4.5317,4.471,4.3139,4.0427,3.8807,3.8627,3.749,3.5139,3.4643,3.4589,3.4683,8.932,8.932,8.932,8.9534,8.9891,9.0319,9.0427,9.0423,9.0924,9.1081,9.085,9.0848,9.0812,9.0812,9.0812,9.0812,9.0812,9.0812,9.0812,9.0812,9.0812,9.0812,9.0812,9.0778,8.9985,8.9191,8.7083,8.5034,8.3365,8.2248,8.1349,8.1025,8.1025,8.1025,8.1025,8.109,8.1414,8.2062,8.2385,8.2709,8.2839,8.3195,8.3454,8.3648,8.3972,8.4328,8.4749,8.5106,8.517,8.5268,8.5268,8.5268,8.5268,8.5268,8.5268,8.5016,8.473,8.4315,8.3507,8.1985,8.02,7.9242,7.812,7.6612,7.6462,7.6462,7.6462,7.6462,7.6462,7.6462,7.6462,7.6462,7.6462,7.6312,7.5374,7.3873,7.0718,6.7128,6.5025,6.3826,6.3322,6.3322,6.3322,6.3322,6.3322,6.3322,6.3322,6.3322,6.3322,6.2766,6.2588,6.1375,5.8519,5.6142,5.3818,5.1509,4.9324,4.8454,4.796,4.7755,4.7382,4.7009,4.6278,4.5597,4.4008,4.1332,3.9589,3.7745,3.7732,3.7998,3.6414,3.4376,3.4269,3.4175,3.4242,8.932,8.932,8.9427,8.9856,9.0498,9.0748,9.1158,9.1544,9.1432,9.1229,9.0967,9.0815,9.0778,9.0812,9.0812,9.0812,9.0812,9.0812,9.0812,9.0812,9.0812,9.0812,9.0812,9.0709,8.9777,8.7944,8.5831,8.4133,8.2543,8.1701,8.1144,8.1025,8.1025,8.1025,8.1025,8.1122,8.1414,8.2256,8.2871,8.3551,8.3746,8.381,8.4005,8.4199,8.4393,8.4685,8.5106,8.5268,8.5268,8.5268,8.5268,8.5268,8.5268,8.5268,8.5268,8.5016,8.4058,8.3507,8.2685,8.0756,7.9526,7.841,7.715,7.6612,7.6462,7.6462,7.6462,7.6462,7.6462,7.6462,7.6462,7.6462,7.6462,7.5953,7.4703,7.3275,6.9327,6.5692,6.4328,6.3322,6.3322,6.3322,6.3322,6.3322,6.3322,6.3322,6.3322,6.3322,6.2967,6.2029,6.1492,5.9726,5.727,5.4811,5.2889,5.087,4.8684,4.8022,4.7569,4.7009,4.6635,4.6447,4.6072,4.5695,4.3659,4.0206,3.7447,3.5719,3.6106,3.6911,3.5627,3.3975,3.3975,3.3895,3.3841,8.932,8.9356,8.9998,9.0391,9.0712,9.1783,9.2351,9.2246,9.2207,9.1935,9.1569,9.1092,9.0812,9.0812,9.0812,9.0812,9.0812,9.0812,9.0812,9.0812,9.0812,9.0812,9.0638,9.036,8.9358,8.7483,8.5355,8.3898,8.2264,8.1381,8.1025,8.1025,8.1025,8.1025,8.1025,8.1187,8.1608,8.2483,8.313,8.3713,8.4717,8.4879,8.4944,8.5073,8.5073,8.517,8.5268,8.5268,8.5268,8.5268,8.5268,8.5268,8.5268,8.5268,8.5268,8.4857,8.3799,8.2982,8.1881,7.9779,7.8699,7.8265,7.715,7.6612,7.6462,7.6462,7.6462,7.6312,7.6312,7.5981,7.5981,7.5981,7.583,7.4829,7.3561,7.1445,6.8331,6.5667,6.3675,6.3322,6.3322,6.3322,6.3322,6.3322,6.3322,6.3322,6.3322,6.3322,6.3145,6.185,6.0386,5.8135,5.5905,5.4293,5.2477,5.021,4.8401,4.7759,4.7009,4.6635,4.6259,4.6072,4.5695,4.5506,4.269,3.9063,3.6501,3.4745,3.4358,3.4889,3.4391,3.3547,3.3587,3.3439,3.3426]},{"header":{"parameterUnit":"m.s-1","parameterCategory":1,"la1":31.0,"la2":29.5877,"lo1":-88.7671,"lo2":-86.6584,"dx":0.0162,"dy":0.0185,"nx":115,"ny":88,"refTime":"2022-11-15T06:00:00:Z","depth":0,"parameterNumber":3,"parameterNumberName":"V-component_of_WINDS"},"data":[0.0,0.0,0.0,0.0,0.0,0.0,0.0,0.0,0.0,0.0,0.0,0.0,0.0,0.0,0.0,0.0,0.0,0.0,0.0,0.0,0.0,0.0,0.0,0.0,0.0,0.0,0.0,0.0,0.0,0.0,0.0,0.0,0.0,0.0,0.0,0.0,0.0,0.0,0.0,0.0,0.0,0.0,0.0,0.0,0.0,0.0,0.0,0.0,0.0,0.0,0.0,0.0,0.0,0.0,0.0,0.0,0.0,0.0,0.0,0.0,0.0,0.0,0.0,0.0,0.0,0.0,0.0,0.0,0.0,0.0,0.0,0.0,0.0,0.0,0.0,0.0,0.0,0.0,0.0,0.0,0.0,0.0,0.0,0.0,0.0,0.0,0.0,0.0,0.0,0.0,0.0,0.0,0.0,0.0,0.0,0.0,0.0,0.0,0.0,0.0,0.0,0.0,0.0,0.0,0.0,0.0,0.0,0.0,0.0,0.0,0.0,0.0,0.0,0.0,0.0,0.0,0.0,0.0,0.0,0.0,0.0,0.0,0.0,0.0,0.0,0.0,0.0,0.0,0.0,0.0,0.0,0.0,0.0,0.0,0.0,0.0,0.0,0.0,0.0,0.0,0.0,0.0,0.0,0.0,0.0,0.0,0.0,0.0,0.0,0.0,0.0,0.0,0.0,0.0,0.0,0.0,0.0,0.0,0.0,0.0,0.0,0.0,0.0,0.0,0.0,0.0,0.0,0.0,0.0,0.0,0.0,0.0,0.0,0.0,0.0,0.0,0.0,0.0,0.0,0.0,0.0,0.0,0.0,0.0,0.0,0.0,0.0,0.0,0.0,0.0,0.0,0.0,0.0,0.0,0.0,0.0,0.0,0.0,0.0,0.0,0.0,0.0,0.0,0.0,0.0,0.0,0.0,0.0,0.0,0.0,0.0,0.0,0.0,0.0,0.0,0.0,0.0,0.0,0.0,0.0,0.0,0.0,0.0,0.0,0.0,0.0,0.0,0.0,0.0,0.0,0.0,0.0,0.0,0.0,0.0,0.0,0.0,0.0,0.0,0.0,0.0,0.0,0.0,0.0,0.0,0.0,0.0,0.0,0.0,0.0,0.0,0.0,0.0,0.0,0.0,0.0,0.0,0.0,0.0,0.0,0.0,0.0,0.0,0.0,0.0,0.0,0.0,0.0,0.0,0.0,0.0,0.0,0.0,0.0,0.0,0.0,0.0,0.0,0.0,0.0,0.0,0.0,0.0,0.0,0.0,0.0,0.0,0.0,0.0,0.0,0.0,0.0,0.0,0.0,0.0,0.0,0.0,0.0,0.0,0.0,0.0,0.0,0.0,0.0,0.0,0.0,0.0,0.0,0.0,0.0,0.0,0.0,0.0,0.0,0.0,0.0,0.0,0.0,0.0,0.0,0.0,0.0,0.0,0.0,0.0,0.0,0.0,0.0,0.0,0.0,0.0,0.0,0.0,0.0,0.0,0.0,0.0,0.0,0.0,0.0,0.0,0.0,0.0,0.0,0.0,0.0,0.0,0.0,0.0,0.0,0.0,0.0,0.0,0.0,0.0,0.0,0.0,0.0,0.0,0.0,0.0,0.0,0.0,0.0,0.0,0.0,0.0,0.0,0.0,0.0,0.0,0.0,0.0,0.0,0.0,0.0,0.0,0.0,0.0,0.0,0.0,0.0,0.0,0.0,0.0,0.0,0.0,0.0,0.0,0.0,0.0,0.0,0.0,0.0,0.0,0.0,0.0,0.0,0.0,0.0,0.0,0.0,0.0,0.0,0.0,0.0,0.0,0.0,0.0,0.0,0.0,0.0,0.0,0.0,0.0,0.0,0.0,0.0,0.0,0.0,0.0,0.0,0.0,0.0,0.0,0.0,0.0,0.0,0.0,0.0,0.0,0.0,0.0,0.0,0.0,0.0,0.0,0.0,0.0,0.0,0.0,0.0,0.0,0.0,0.0,0.0,0.0,0.0,0.0,0.0,0.0,0.0,0.0,0.0,0.0,0.0,0.0,0.0,0.0,0.0,0.0,0.0,0.0,0.0,0.0,0.0,0.0,0.0,0.0,0.0,0.0,0.0,0.0,0.0,0.0,0.0,0.0,0.0,0.0,0.0,0.0,0.0,0.0,0.0,0.0,0.0,0.0,0.0,0.0,0.0,0.0,0.0,0.0,0.0,0.0,0.0,0.0,0.0,0.0,0.0,0.0,0.0,0.0,0.0,0.0,0.0,0.0,0.0,0.0,0.0,0.0,0.0,0.0,0.0,0.0,0.0,0.0,0.0,0.0,0.0,0.0,0.0,0.0,0.0,0.0,0.0,0.0,0.0,0.0,0.0,0.0,0.0,0.0,0.0,0.0,0.0,0.0,0.0,0.0,0.0,0.0,0.0,0.0,0.0,0.0,0.0,0.0,0.0,0.0,0.0,0.0,0.0,0.0,0.0,0.0,0.0,0.0,0.0,0.0,0.0,0.0,0.0,0.0,0.0,0.0,0.0,0.0,0.0,0.0,0.0,0.0,0.0,0.0,0.0,0.0,0.0,0.0,0.0,0.0,0.0,0.0,0.0,0.0,0.0,0.0,0.0,0.0,0.0,0.0,0.0,0.0,0.0,0.0,0.0,0.0,0.0,0.0,0.0,0.0,0.0,0.0,0.0,0.0,0.0,0.0,0.0,0.0,0.0,0.0,0.0,0.0,0.0,0.0,0.0,0.0,0.0,0.0,0.0,0.0,0.0,0.0,0.0,0.0,0.0,0.0,0.0,0.0,0.0,0.0,0.0,0.0,0.0,0.0,0.0,0.0,0.0,0.0,0.0,0.0,0.0,0.0,0.0,0.0,0.0,0.0,0.0,0.0,0.0,0.0,0.0,0.0,0.0,0.0,0.0,0.0,0.0,0.0,0.0,0.0,0.0,0.0,0.0,0.0,0.0,0.0,0.0,0.0,0.0,0.0,0.0,0.0,0.0,0.0,0.0,0.0,0.0,0.0,0.0,0.0,0.0,0.0,0.0,0.0,0.0,0.0,0.0,0.0,0.0,0.0,0.0,0.0,0.0,0.0,0.0,0.0,0.0,0.0,0.0,0.0,0.0,0.0,0.0,0.0,0.0,0.0,0.0,0.0,0.0,0.0,0.0,0.0,0.0,0.0,0.0,0.0,0.0,0.0,0.0,0.0,0.0,0.0,0.0,0.0,0.0,0.0,0.0,0.0,0.0,0.0,0.0,0.0,0.0,0.0,0.0,0.0,0.0,0.0,0.0,0.0,0.0,0.0,0.0,0.0,0.0,0.0,0.0,0.0,0.0,0.0,0.0,0.0,0.0,0.0,0.0,0.0,0.0,0.0,0.0,0.0,0.0,0.0,0.0,0.0,0.0,0.0,0.0,0.0,0.0,0.0,0.0,0.0,0.0,0.0,0.0,0.0,0.0,0.0,0.0,0.0,0.0,0.0,0.0,0.0,0.0,0.0,0.0,0.0,0.0,0.0,0.0,0.0,0.0,0.0,0.0,0.0,0.0,0.0,0.0,0.0,0.0,0.0,0.0,0.0,0.0,0.0,0.0,0.0,0.0,0.0,0.0,0.0,0.0,0.0,0.0,0.0,0.0,0.0,0.0,0.0,0.0,0.0,0.0,0.0,0.0,0.0,0.0,0.0,0.0,0.0,0.0,0.0,0.0,0.0,0.0,0.0,0.0,0.0,0.0,0.0,0.0,0.0,0.0,0.0,0.0,0.0,0.0,0.0,0.0,0.0,0.0,0.0,0.0,0.0,0.0,0.0,0.0,0.0,0.0,0.0,0.0,0.0,0.0,0.0,0.0,0.0,0.0,0.0,0.0,0.0,0.0,0.0,0.0,0.0,0.0,0.0,0.0,0.0,0.0,0.0,0.0,0.0,0.0,0.0,0.0,0.0,0.0,0.0,0.0,0.0,0.0,0.0,0.0,0.0,0.0,0.0,0.0,0.0,0.0,0.0,0.0,0.0,0.0,0.0,0.0,0.0,0.0,0.0,0.0,0.0,0.0,0.0,0.0,0.0,0.0,0.0,0.0,0.0,0.0,0.0,0.0,0.0,0.0,0.0,0.0,0.0,0.0,0.0,0.0,0.0,0.0,0.0,0.0,0.0,0.0,0.0,0.0,0.0,0.0,0.0,0.0,0.0,0.0,0.0,0.0,0.0,0.0,0.0,0.0,0.0,0.0,0.0,0.0,0.0,0.0,0.0,0.0,0.0,0.0,0.0,0.0,0.0,0.0,-2.1665,0.0,0.0,0.0,-1.9571,0.0,0.0,0.0,0.0,0.0,0.0,0.0,0.0,0.0,0.0,0.0,0.0,0.0,0.0,0.0,0.0,0.0,0.0,0.0,0.0,0.0,0.0,0.0,0.0,0.0,0.0,0.0,0.0,0.0,0.0,0.0,0.0,0.0,0.0,0.0,0.0,0.0,0.0,0.0,0.0,0.0,0.0,0.0,0.0,0.0,0.0,0.0,0.0,0.0,0.0,0.0,0.0,0.0,0.0,0.0,0.0,0.0,0.0,0.0,0.0,0.0,0.0,0.0,0.0,0.0,0.0,0.0,0.0,0.0,0.0,0.0,0.0,0.0,0.0,0.0,0.0,0.0,0.0,0.0,0.0,0.0,0.0,0.0,0.0,0.0,0.0,0.0,0.0,0.0,0.0,0.0,0.0,0.0,0.0,0.0,0.0,0.0,0.0,0.0,0.0,0.0,0.0,0.0,0.0,0.0,0.0,0.0,0.0,0.0,0.0,-2.0988,-2.1826,-2.0759,-2.0615,-2.1388,0.0,0.0,0.0,0.0,0.0,0.0,0.0,0.0,0.0,0.0,0.0,0.0,0.0,0.0,0.0,0.0,0.0,0.0,0.0,0.0,0.0,0.0,0.0,0.0,0.0,0.0,0.0,0.0,0.0,0.0,0.0,0.0,0.0,0.0,0.0,0.0,0.0,0.0,0.0,0.0,0.0,0.0,0.0,0.0,0.0,0.0,0.0,0.0,0.0,0.0,0.0,0.0,0.0,0.0,0.0,0.0,0.0,0.0,0.0,0.0,0.0,0.0,0.0,0.0,0.0,0.0,0.0,0.0,0.0,0.0,0.0,0.0,0.0,0.0,0.0,0.0,0.0,0.0,0.0,0.0,0.0,0.0,0.0,0.0,0.0,0.0,0.0,0.0,0.0,0.0,0.0,0.0,0.0,0.0,0.0,0.0,0.0,0.0,0.0,0.0,0.0,0.0,0.0,0.0,0.0,0.0,0.0,0.0,0.0,0.0,0.0,0.0,-2.0385,-2.0458,-2.2719,0.0,0.0,0.0,0.0,0.0,0.0,0.0,0.0,0.0,0.0,0.0,0.0,0.0,0.0,0.0,0.0,0.0,0.0,0.0,0.0,0.0,0.0,0.0,0.0,0.0,0.0,0.0,0.0,0.0,0.0,0.0,0.0,0.0,0.0,0.0,0.0,0.0,0.0,0.0,0.0,0.0,0.0,0.0,0.0,0.0,0.0,0.0,0.0,0.0,0.0,0.0,0.0,0.0,0.0,0.0,0.0,0.0,0.0,0.0,0.0,0.0,0.0,0.0,0.0,0.0,0.0,0.0,0.0,0.0,0.0,0.0,0.0,0.0,0.0,0.0,0.0,0.0,0.0,0.0,0.0,0.0,0.0,0.0,0.0,0.0,0.0,0.0,0.0,0.0,0.0,0.0,0.0,0.0,0.0,0.0,0.0,0.0,0.0,0.0,0.0,0.0,0.0,0.0,0.0,0.0,0.0,0.0,0.0,0.0,0.0,-1.9448,-1.9707,-1.9488,0.0,-2.2261,0.0,0.0,0.0,0.0,0.0,0.0,0.0,0.0,0.0,0.0,0.0,0.0,0.0,0.0,0.0,0.0,0.0,0.0,0.0,0.0,0.0,0.0,0.0,0.0,0.0,0.0,0.0,0.0,0.0,0.0,0.0,0.0,0.0,0.0,0.0,0.0,0.0,0.0,0.0,0.0,0.0,0.0,0.0,0.0,0.0,0.0,0.0,0.0,0.0,0.0,0.0,0.0,0.0,0.0,0.0,0.0,0.0,0.0,0.0,0.0,0.0,0.0,0.0,0.0,0.0,0.0,0.0,0.0,0.0,0.0,0.0,0.0,0.0,0.0,0.0,0.0,0.0,0.0,0.0,0.0,0.0,0.0,0.0,0.0,0.0,0.0,0.0,0.0,0.0,0.0,0.0,0.0,0.0,0.0,0.0,0.0,0.0,0.0,0.0,0.0,0.0,0.0,0.0,0.0,0.0,0.0,0.0,0.0,0.0,0.0,-1.9965,-2.0653,-2.0653,-2.1203,0.0,0.0,0.0,0.0,0.0,0.0,0.0,0.0,0.0,0.0,0.0,0.0,0.0,0.0,0.0,0.0,0.0,0.0,0.0,0.0,0.0,0.0,0.0,0.0,0.0,0.0,0.0,0.0,0.0,0.0,0.0,0.0,0.0,0.0,0.0,0.0,0.0,0.0,0.0,0.0,0.0,0.0,0.0,0.0,0.0,0.0,0.0,0.0,0.0,0.0,0.0,0.0,0.0,0.0,0.0,0.0,0.0,0.0,0.0,0.0,0.0,0.0,0.0,0.0,0.0,0.0,0.0,0.0,0.0,0.0,0.0,0.0,0.0,0.0,0.0,0.0,0.0,0.0,0.0,0.0,0.0,0.0,0.0,0.0,0.0,0.0,0.0,0.0,0.0,0.0,0.0,0.0,0.0,0.0,0.0,0.0,0.0,0.0,0.0,0.0,0.0,0.0,0.0,0.0,0.0,0.0,0.0,0.0,0.0,0.0,-2.0041,-2.0301,-2.1185,-2.1114,-2.1538,-2.2624,0.0,0.0,0.0,0.0,0.0,0.0,0.0,0.0,0.0,0.0,0.0,0.0,0.0,0.0,0.0,0.0,0.0,0.0,0.0,0.0,0.0,0.0,0.0,0.0,0.0,0.0,0.0,0.0,0.0,0.0,0.0,0.0,0.0,0.0,0.0,0.0,0.0,0.0,0.0,0.0,0.0,0.0,0.0,0.0,0.0,0.0,0.0,0.0,0.0,0.0,0.0,0.0,0.0,0.0,0.0,0.0,0.0,0.0,0.0,0.0,0.0,0.0,0.0,0.0,0.0,0.0,0.0,0.0,0.0,0.0,0.0,0.0,0.0,0.0,0.0,0.0,0.0,0.0,0.0,0.0,0.0,0.0,0.0,0.0,0.0,0.0,0.0,0.0,0.0,0.0,0.0,0.0,0.0,0.0,0.0,0.0,0.0,0.0,0.0,0.0,0.0,0.0,0.0,0.0,0.0,0.0,0.0,0.0,-1.9851,-1.98,-1.9947,-2.0322,-2.0066,-2.0939,0.0,0.0,0.0,0.0,0.0,0.0,0.0,0.0,0.0,0.0,0.0,0.0,0.0,0.0,0.0,0.0,0.0,0.0,0.0,0.0,0.0,0.0,0.0,0.0,0.0,0.0,0.0,0.0,0.0,0.0,0.0,0.0,0.0,0.0,0.0,0.0,0.0,0.0,0.0,0.0,0.0,0.0,0.0,0.0,0.0,0.0,0.0,0.0,0.0,0.0,0.0,0.0,0.0,0.0,0.0,0.0,0.0,0.0,0.0,0.0,0.0,0.0,0.0,0.0,0.0,0.0,0.0,0.0,0.0,0.0,0.0,0.0,0.0,0.0,0.0,0.0,0.0,0.0,0.0,0.0,0.0,0.0,0.0,0.0,0.0,0.0,0.0,0.0,0.0,0.0,0.0,0.0,0.0,0.0,0.0,0.0,0.0,0.0,0.0,0.0,0.0,0.0,0.0,0.0,0.0,0.0,0.0,0.0,0.0,-1.9813,-2.0347,-2.0681,-2.0775,-2.0508,-2.1364,0.0,0.0,0.0,0.0,0.0,0.0,0.0,0.0,0.0,0.0,0.0,0.0,0.0,0.0,0.0,0.0,0.0,0.0,0.0,0.0,0.0,0.0,0.0,0.0,0.0,0.0,0.0,0.0,0.0,0.0,0.0,0.0,0.0,0.0,0.0,0.0,0.0,0.0,0.0,0.0,0.0,0.0,0.0,0.0,0.0,0.0,0.0,0.0,0.0,0.0,0.0,0.0,0.0,0.0,0.0,0.0,0.0,0.0,0.0,0.0,0.0,0.0,0.0,0.0,0.0,0.0,0.0,0.0,0.0,0.0,0.0,0.0,0.0,0.0,0.0,0.0,0.0,0.0,0.0,0.0,0.0,0.0,0.0,0.0,0.0,0.0,0.0,0.0,0.0,0.0,0.0,0.0,0.0,0.0,0.0,0.0,0.0,0.0,0.0,0.0,0.0,0.0,0.0,0.0,0.0,0.0,0.0,0.0,0.0,-2.0374,-2.1136,-2.1537,-2.1394,-2.1036,-2.1533,0.0,0.0,0.0,0.0,0.0,0.0,0.0,0.0,0.0,0.0,0.0,0.0,0.0,0.0,0.0,0.0,0.0,0.0,0.0,0.0,0.0,0.0,0.0,0.0,0.0,0.0,0.0,0.0,0.0,0.0,0.0,0.0,0.0,0.0,0.0,0.0,0.0,0.0,0.0,0.0,0.0,0.0,0.0,0.0,0.0,0.0,0.0,0.0,0.0,0.0,0.0,0.0,0.0,0.0,0.0,0.0,0.0,0.0,0.0,0.0,0.0,0.0,0.0,0.0,0.0,0.0,0.0,0.0,0.0,0.0,0.0,0.0,0.0,0.0,0.0,0.0,0.0,0.0,0.0,0.0,0.0,0.0,0.0,0.0,0.0,0.0,0.0,0.0,0.0,0.0,0.0,0.0,0.0,0.0,0.0,0.0,0.0,0.0,0.0,0.0,0.0,0.0,0.0,0.0,0.0,0.0,0.0,0.0,-2.0401,-2.1523,-2.2124,-2.2136,-2.188,-2.1319,-2.1256,0.0,0.0,0.0,0.0,0.0,0.0,0.0,0.0,0.0,0.0,0.0,0.0,0.0,0.0,0.0,0.0,0.0,0.0,0.0,0.0,0.0,0.0,0.0,0.0,0.0,0.0,0.0,0.0,0.0,0.0,0.0,0.0,0.0,0.0,0.0,0.0,0.0,0.0,0.0,0.0,0.0,0.0,0.0,0.0,0.0,0.0,0.0,0.0,0.0,0.0,0.0,0.0,0.0,0.0,0.0,0.0,0.0,0.0,0.0,0.0,0.0,0.0,0.0,0.0,0.0,0.0,0.0,0.0,0.0,0.0,0.0,0.0,0.0,0.0,0.0,0.0,0.0,0.0,0.0,0.0,0.0,0.0,0.0,0.0,0.0,0.0,0.0,0.0,0.0,0.0,0.0,0.0,0.0,0.0,0.0,0.0,0.0,0.0,0.0,0.0,0.0,0.0,0.0,0.0,0.0,0.0,0.0,0.0,0.0,-2.2028,-2.2421,-2.248,-2.2051,-2.1603,-2.1563,0.0,0.0,0.0,0.0,0.0,0.0,0.0,0.0,0.0,0.0,0.0,0.0,0.0,0.0,0.0,0.0,0.0,0.0,0.0,0.0,0.0,0.0,0.0,0.0,0.0,0.0,0.0,0.0,0.0,0.0,0.0,0.0,0.0,0.0,0.0,0.0,0.0,0.0,0.0,0.0,0.0,0.0,0.0,0.0,0.0,0.0,0.0,0.0,0.0,0.0,0.0,0.0,0.0,0.0,0.0,0.0,0.0,0.0,0.0,0.0,0.0,0.0,0.0,0.0,0.0,0.0,0.0,0.0,0.0,0.0,0.0,0.0,0.0,0.0,0.0,0.0,0.0,0.0,0.0,0.0,0.0,0.0,0.0,0.0,0.0,0.0,0.0,0.0,0.0,0.0,0.0,0.0,0.0,0.0,0.0,0.0,0.0,0.0,0.0,0.0,0.0,0.0,0.0,0.0,0.0,0.0,0.0,0.0,0.0,-2.308,-2.3197,-2.295,-2.2375,-2.1938,-2.171,-2.1801,0.0,0.0,0.0,0.0,0.0,0.0,0.0,0.0,0.0,0.0,0.0,0.0,0.0,0.0,0.0,0.0,0.0,0.0,0.0,0.0,0.0,0.0,0.0,0.0,0.0,0.0,0.0,0.0,0.0,0.0,0.0,0.0,0.0,0.0,0.0,0.0,0.0,0.0,0.0,0.0,0.0,0.0,0.0,0.0,0.0,0.0,0.0,0.0,0.0,0.0,0.0,0.0,0.0,0.0,0.0,0.0,0.0,0.0,0.0,0.0,0.0,0.0,0.0,0.0,0.0,0.0,0.0,0.0,0.0,0.0,0.0,0.0,0.0,0.0,0.0,0.0,0.0,0.0,0.0,0.0,0.0,0.0,0.0,0.0,0.0,0.0,0.0,0.0,0.0,0.0,0.0,0.0,0.0,0.0,0.0,0.0,0.0,0.0,0.0,0.0,0.0,0.0,0.0,0.0,0.0,0.0,0.0,0.0,-2.4488,-2.4279,-2.3702,-2.2918,-2.2506,-2.1707,0.0,0.0,0.0,0.0,0.0,0.0,0.0,0.0,0.0,0.0,0.0,0.0,0.0,0.0,0.0,0.0,0.0,0.0,0.0,0.0,0.0,0.0,0.0,0.0,0.0,0.0,0.0,0.0,0.0,0.0,0.0,0.0,0.0,0.0,0.0,0.0,0.0,0.0,0.0,0.0,0.0,0.0,0.0,0.0,0.0,0.0,0.0,0.0,0.0,0.0,0.0,0.0,0.0,0.0,0.0,0.0,0.0,0.0,0.0,0.0,0.0,0.0,0.0,0.0,0.0,0.0,0.0,0.0,0.0,0.0,0.0,0.0,0.0,0.0,0.0,0.0,0.0,0.0,0.0,0.0,0.0,0.0,0.0,0.0,0.0,0.0,0.0,0.0,0.0,0.0,0.0,0.0,0.0,0.0,0.0,0.0,0.0,0.0,0.0,0.0,0.0,0.0,0.0,0.0,0.0,0.0,0.0,0.0,0.0,-2.4291,-2.4867,-2.4642,-2.3748,-2.3329,-2.2658,0.0,0.0,0.0,0.0,0.0,0.0,0.0,0.0,0.0,0.0,0.0,0.0,0.0,0.0,0.0,0.0,0.0,0.0,0.0,0.0,0.0,0.0,0.0,0.0,0.0,0.0,0.0,0.0,0.0,0.0,0.0,0.0,0.0,0.0,0.0,0.0,0.0,0.0,0.0,0.0,0.0,0.0,0.0,0.0,0.0,0.0,0.0,0.0,0.0,0.0,0.0,0.0,0.0,0.0,0.0,0.0,0.0,0.0,0.0,0.0,0.0,0.0,0.0,0.0,0.0,0.0,0.0,0.0,0.0,0.0,0.0,0.0,0.0,0.0,0.0,0.0,0.0,0.0,0.0,0.0,0.0,0.0,0.0,0.0,0.0,0.0,0.0,0.0,0.0,0.0,0.0,0.0,0.0,0.0,0.0,0.0,0.0,0.0,0.0,0.0,0.0,0.0,0.0,0.0,0.0,0.0,0.0,0.0,-2.6332,-2.5257,-2.5788,-2.5691,-2.5087,-2.4158,-2.3664,0.0,0.0,0.0,0.0,0.0,0.0,0.0,0.0,0.0,0.0,0.0,0.0,0.0,0.0,0.0,0.0,0.0,0.0,0.0,0.0,0.0,0.0,0.0,0.0,0.0,0.0,0.0,0.0,0.0,0.0,0.0,0.0,0.0,0.0,0.0,0.0,0.0,0.0,0.0,0.0,0.0,0.0,0.0,0.0,0.0,0.0,0.0,0.0,0.0,0.0,0.0,0.0,0.0,0.0,0.0,0.0,0.0,0.0,0.0,0.0,0.0,0.0,0.0,0.0,0.0,0.0,0.0,0.0,0.0,0.0,0.0,0.0,0.0,0.0,0.0,0.0,0.0,0.0,0.0,0.0,0.0,0.0,0.0,0.0,0.0,0.0,0.0,0.0,0.0,0.0,0.0,0.0,0.0,0.0,0.0,0.0,0.0,0.0,0.0,0.0,0.0,0.0,0.0,0.0,0.0,0.0,0.0,0.0,-2.7663,-2.6854,-2.6903,-2.6732,-2.6491,-2.4926,-2.4585,0.0,0.0,0.0,0.0,0.0,0.0,0.0,0.0,0.0,0.0,0.0,0.0,0.0,0.0,0.0,0.0,0.0,0.0,0.0,0.0,0.0,0.0,0.0,0.0,0.0,0.0,0.0,0.0,0.0,0.0,0.0,0.0,0.0,0.0,0.0,0.0,0.0,0.0,0.0,0.0,0.0,0.0,0.0,0.0,0.0,0.0,0.0,0.0,0.0,0.0,0.0,0.0,0.0,0.0,0.0,0.0,0.0,0.0,0.0,0.0,0.0,0.0,0.0,0.0,0.0,0.0,0.0,0.0,0.0,0.0,0.0,0.0,0.0,0.0,0.0,0.0,0.0,0.0,0.0,0.0,0.0,0.0,0.0,0.0,0.0,0.0,0.0,0.0,0.0,0.0,0.0,0.0,0.0,0.0,0.0,0.0,0.0,0.0,0.0,0.0,0.0,0.0,0.0,0.0,0.0,0.0,0.0,0.0,-2.8739,-2.6672,-2.7019,-2.7018,-2.6847,-2.5607,-2.5289,0.0,0.0,0.0,0.0,0.0,0.0,0.0,0.0,0.0,0.0,0.0,0.0,0.0,0.0,0.0,0.0,0.0,0.0,0.0,0.0,0.0,0.0,0.0,0.0,0.0,0.0,0.0,0.0,0.0,0.0,0.0,0.0,0.0,0.0,0.0,0.0,0.0,0.0,0.0,0.0,0.0,0.0,0.0,0.0,0.0,0.0,0.0,0.0,-3.8648,0.0,0.0,0.0,0.0,0.0,0.0,0.0,0.0,0.0,0.0,0.0,0.0,0.0,0.0,0.0,0.0,0.0,0.0,0.0,0.0,0.0,0.0,0.0,0.0,0.0,0.0,0.0,0.0,0.0,0.0,0.0,0.0,0.0,0.0,0.0,0.0,0.0,0.0,0.0,0.0,0.0,0.0,0.0,0.0,0.0,0.0,0.0,0.0,0.0,0.0,0.0,0.0,0.0,0.0,0.0,0.0,0.0,0.0,0.0,-3.0378,-2.8648,-2.7852,-2.7435,-2.726,-2.6068,-2.6246,0.0,0.0,0.0,0.0,0.0,0.0,0.0,0.0,0.0,0.0,0.0,0.0,0.0,0.0,0.0,0.0,0.0,0.0,0.0,0.0,0.0,0.0,0.0,0.0,0.0,0.0,0.0,0.0,0.0,0.0,0.0,0.0,0.0,0.0,0.0,0.0,0.0,0.0,0.0,0.0,0.0,0.0,0.0,0.0,0.0,0.0,0.0,0.0,0.0,0.0,0.0,0.0,0.0,0.0,0.0,0.0,0.0,0.0,0.0,0.0,0.0,0.0,0.0,0.0,0.0,0.0,0.0,0.0,0.0,0.0,0.0,0.0,0.0,0.0,0.0,0.0,0.0,0.0,0.0,0.0,0.0,0.0,0.0,0.0,0.0,0.0,0.0,0.0,0.0,0.0,0.0,0.0,0.0,0.0,0.0,0.0,0.0,0.0,0.0,0.0,0.0,0.0,0.0,0.0,0.0,0.0,0.0,-3.1952,-3.1618,-3.0934,-2.9085,-2.8017,-2.7813,-2.6672,-2.7201,-2.9531,0.0,0.0,0.0,0.0,0.0,0.0,0.0,0.0,0.0,0.0,0.0,0.0,0.0,0.0,0.0,0.0,0.0,0.0,0.0,0.0,0.0,0.0,0.0,0.0,0.0,0.0,0.0,0.0,0.0,0.0,0.0,0.0,0.0,0.0,0.0,0.0,0.0,0.0,-3.7297,-3.8335,0.0,0.0,0.0,0.0,0.0,0.0,0.0,0.0,-3.9579,0.0,0.0,0.0,0.0,0.0,0.0,0.0,0.0,0.0,0.0,0.0,0.0,0.0,0.0,0.0,0.0,0.0,0.0,0.0,0.0,0.0,0.0,0.0,0.0,0.0,0.0,0.0,0.0,0.0,0.0,0.0,0.0,0.0,0.0,0.0,0.0,0.0,0.0,0.0,0.0,0.0,0.0,0.0,0.0,0.0,0.0,0.0,0.0,0.0,0.0,0.0,0.0,0.0,0.0,0.0,0.0,-3.2552,-3.2236,-3.1833,-3.1563,-2.9486,-2.8487,-2.8665,-2.7509,-2.8082,-3.0528,0.0,0.0,0.0,0.0,0.0,0.0,0.0,0.0,0.0,0.0,0.0,0.0,0.0,0.0,0.0,0.0,0.0,0.0,0.0,0.0,0.0,0.0,0.0,0.0,0.0,0.0,0.0,0.0,0.0,0.0,0.0,0.0,0.0,0.0,0.0,0.0,0.0,0.0,0.0,-3.8816,-3.9274,0.0,0.0,0.0,0.0,0.0,0.0,0.0,0.0,-3.9153,0.0,0.0,0.0,0.0,0.0,0.0,0.0,0.0,0.0,0.0,0.0,0.0,0.0,0.0,0.0,0.0,0.0,0.0,0.0,0.0,0.0,0.0,0.0,0.0,0.0,0.0,0.0,0.0,0.0,0.0,0.0,0.0,0.0,0.0,0.0,0.0,0.0,0.0,0.0,0.0,0.0,0.0,0.0,0.0,0.0,0.0,0.0,0.0,0.0,0.0,0.0,0.0,0.0,0.0,0.0,-3.4422,-3.3313,-3.3099,-3.3421,-3.0559,-2.8958,-2.9085,-2.778,-2.8268,0.0,0.0,0.0,0.0,0.0,0.0,0.0,0.0,0.0,0.0,0.0,0.0,0.0,0.0,0.0,0.0,0.0,0.0,0.0,0.0,0.0,0.0,0.0,0.0,0.0,0.0,0.0,0.0,0.0,0.0,0.0,0.0,0.0,0.0,0.0,0.0,0.0,0.0,0.0,0.0,-3.9842,-4.0301,-4.0301,0.0,0.0,0.0,0.0,0.0,0.0,-4.1857,-4.1568,0.0,0.0,0.0,0.0,0.0,0.0,0.0,0.0,0.0,0.0,0.0,0.0,0.0,0.0,0.0,0.0,0.0,0.0,0.0,0.0,0.0,0.0,0.0,0.0,0.0,0.0,0.0,0.0,0.0,0.0,0.0,0.0,0.0,0.0,0.0,0.0,0.0,0.0,0.0,0.0,0.0,0.0,0.0,0.0,0.0,0.0,0.0,0.0,0.0,0.0,0.0,0.0,0.0,0.0,0.0,-3.6162,-3.4598,-3.4202,-3.5225,-3.1623,-2.9576,-2.9377,-2.7989,-2.836,0.0,0.0,0.0,0.0,0.0,0.0,0.0,0.0,0.0,0.0,0.0,0.0,0.0,0.0,0.0,0.0,0.0,0.0,0.0,0.0,0.0,0.0,0.0,0.0,0.0,0.0,0.0,0.0,0.0,0.0,0.0,0.0,0.0,0.0,0.0,0.0,0.0,0.0,0.0,0.0,0.0,-4.1175,-4.1612,-4.1765,0.0,0.0,0.0,0.0,-4.3923,-4.4371,0.0,0.0,0.0,0.0,0.0,0.0,0.0,0.0,0.0,0.0,0.0,0.0,0.0,0.0,0.0,0.0,0.0,0.0,0.0,0.0,0.0,0.0,0.0,0.0,0.0,0.0,0.0,0.0,0.0,0.0,0.0,0.0,0.0,0.0,0.0,0.0,0.0,0.0,0.0,0.0,0.0,0.0,0.0,0.0,0.0,0.0,0.0,0.0,0.0,0.0,0.0,0.0,0.0,0.0,0.0,0.0,-3.6582,-3.4979,-3.4548,-3.5571,-3.2309,-3.0058,-2.967,-2.8818,-2.9404,0.0,0.0,0.0,0.0,0.0,0.0,0.0,0.0,0.0,0.0,0.0,0.0,0.0,0.0,0.0,0.0,0.0,0.0,0.0,0.0,0.0,0.0,0.0,0.0,0.0,0.0,0.0,0.0,0.0,0.0,0.0,0.0,0.0,0.0,0.0,0.0,0.0,0.0,0.0,0.0,0.0,-4.1175,-4.1634,-4.207,-4.2333,0.0,0.0,-4.5068,-4.452,-4.5657,0.0,0.0,0.0,0.0,0.0,0.0,0.0,0.0,0.0,0.0,0.0,0.0,0.0,0.0,0.0,0.0,0.0,0.0,0.0,0.0,0.0,0.0,0.0,0.0,0.0,0.0,0.0,0.0,0.0,0.0,0.0,0.0,0.0,0.0,0.0,0.0,0.0,0.0,0.0,0.0,0.0,0.0,0.0,0.0,0.0,0.0,0.0,0.0,0.0,0.0,0.0,0.0,0.0,0.0,0.0,-3.5137,-3.7002,-3.5344,-3.4894,-3.5932,-3.2631,-3.0531,-2.995,-2.9168,-2.9391,0.0,0.0,0.0,0.0,0.0,0.0,0.0,0.0,0.0,0.0,0.0,0.0,0.0,0.0,0.0,0.0,0.0,0.0,0.0,0.0,0.0,0.0,0.0,0.0,0.0,0.0,0.0,0.0,0.0,0.0,0.0,0.0,0.0,0.0,0.0,0.0,0.0,0.0,0.0,0.0,0.0,0.0,-4.2813,-4.3337,0.0,0.0,0.0,-4.6449,-4.7058,0.0,0.0,0.0,0.0,0.0,0.0,0.0,0.0,0.0,0.0,0.0,0.0,0.0,0.0,0.0,0.0,0.0,0.0,0.0,0.0,0.0,0.0,0.0,0.0,0.0,0.0,0.0,0.0,0.0,0.0,0.0,0.0,0.0,0.0,0.0,0.0,0.0,0.0,0.0,0.0,0.0,0.0,0.0,0.0,0.0,0.0,0.0,0.0,0.0,0.0,0.0,0.0,0.0,0.0,0.0,0.0,0.0,-3.7403,-3.5709,-3.5256,-3.6279,-3.2925,-3.0816,-3.0229,-2.9331,0.0,0.0,0.0,0.0,0.0,0.0,0.0,0.0,0.0,0.0,0.0,0.0,0.0,0.0,0.0,0.0,0.0,0.0,0.0,0.0,0.0,0.0,0.0,0.0,0.0,0.0,0.0,-2.6663,0.0,0.0,0.0,0.0,0.0,0.0,0.0,0.0,0.0,0.0,0.0,0.0,0.0,0.0,-4.2922,-4.3752,-4.4495,-4.4954,0.0,0.0,-4.8451,-4.9451,-5.0305,-5.0738,0.0,0.0,0.0,0.0,0.0,0.0,0.0,0.0,0.0,0.0,0.0,0.0,0.0,0.0,0.0,0.0,0.0,0.0,0.0,0.0,0.0,0.0,0.0,0.0,0.0,0.0,0.0,0.0,0.0,0.0,0.0,0.0,0.0,0.0,0.0,0.0,0.0,0.0,0.0,0.0,0.0,0.0,0.0,0.0,0.0,0.0,0.0,0.0,0.0,0.0,0.0,0.0,0.0,0.0,0.0,-3.7805,-3.6074,-3.5586,-3.6609,-3.3625,-3.15,-3.0547,-3.0001,-3.003,0.0,0.0,0.0,0.0,0.0,0.0,0.0,0.0,0.0,0.0,0.0,0.0,0.0,0.0,0.0,0.0,0.0,0.0,0.0,0.0,0.0,0.0,0.0,0.0,0.0,0.0,0.0,0.0,0.0,0.0,0.0,0.0,0.0,0.0,0.0,0.0,0.0,0.0,0.0,0.0,0.0,-4.3294,-4.3796,-4.5041,-4.5893,0.0,0.0,-5.1609,-5.113,-5.3142,-5.4183,-5.2566,0.0,0.0,0.0,0.0,0.0,0.0,0.0,0.0,0.0,0.0,0.0,0.0,0.0,0.0,0.0,0.0,0.0,0.0,0.0,0.0,0.0,0.0,0.0,0.0,0.0,0.0,0.0,0.0,0.0,0.0,0.0,0.0,0.0,0.0,0.0,0.0,0.0,0.0,0.0,0.0,0.0,0.0,0.0,0.0,0.0,0.0,0.0,0.0,0.0,0.0,0.0,0.0,0.0,-3.6384,-3.8225,-3.6223,-3.5905,-3.6955,-3.3752,-3.1798,-3.1412,-3.0472,-3.0782,0.0,0.0,0.0,0.0,0.0,0.0,0.0,0.0,0.0,0.0,0.0,0.0,0.0,0.0,0.0,0.0,0.0,0.0,0.0,0.0,0.0,0.0,0.0,0.0,0.0,0.0,0.0,0.0,-3.0603,-3.2133,-3.4611,0.0,0.0,0.0,0.0,0.0,0.0,0.0,0.0,0.0,0.0,-4.3971,-4.5019,-4.5915,0.0,0.0,-4.8951,-5.06,-5.0413,-5.168,-5.2704,-5.2833,-5.2177,0.0,0.0,0.0,0.0,0.0,0.0,0.0,0.0,0.0,0.0,0.0,0.0,0.0,0.0,0.0,0.0,0.0,0.0,0.0,0.0,0.0,0.0,0.0,0.0,0.0,0.0,0.0,0.0,0.0,0.0,0.0,0.0,0.0,0.0,0.0,0.0,0.0,0.0,0.0,0.0,0.0,0.0,0.0,0.0,0.0,0.0,0.0,0.0,0.0,0.0,0.0,0.0,-3.6787,-3.8805,-3.7251,-3.6772,-3.7533,-3.4812,-3.284,-3.1868,-3.0947,-3.1503,0.0,0.0,0.0,0.0,0.0,0.0,0.0,0.0,0.0,0.0,0.0,0.0,0.0,0.0,0.0,0.0,0.0,0.0,0.0,0.0,0.0,0.0,0.0,0.0,0.0,0.0,0.0,0.0,-3.2302,-3.3759,-3.5617,0.0,0.0,0.0,0.0,0.0,0.0,0.0,0.0,0.0,0.0,-4.4866,-4.5871,-4.6789,-4.7509,-4.7859,-4.9468,-5.0544,-5.0544,-5.1342,-5.2308,-5.3607,0.0,0.0,0.0,0.0,0.0,0.0,0.0,0.0,0.0,0.0,0.0,0.0,0.0,0.0,0.0,0.0,0.0,0.0,0.0,0.0,0.0,0.0,0.0,0.0,0.0,0.0,0.0,0.0,0.0,0.0,-2.0081,0.0,0.0,0.0,0.0,0.0,0.0,0.0,0.0,0.0,0.0,0.0,0.0,0.0,0.0,0.0,0.0,0.0,0.0,0.0,0.0,0.0,0.0,-3.7209,-3.9208,-3.9095,-3.8824,-3.7881,-3.6681,-3.4885,-3.2366,-3.1633,-3.2368,-3.4661,0.0,0.0,0.0,0.0,0.0,0.0,0.0,0.0,0.0,0.0,0.0,0.0,0.0,0.0,0.0,0.0,0.0,0.0,0.0,0.0,0.0,0.0,0.0,0.0,0.0,0.0,-3.2253,-3.4583,-3.5778,0.0,0.0,0.0,0.0,0.0,0.0,0.0,0.0,0.0,0.0,-4.4779,-4.598,-4.6046,-4.7641,-4.882,-4.8864,-5.1018,-5.2558,-5.2536,-5.3105,-5.3957,0.0,0.0,0.0,0.0,0.0,0.0,0.0,0.0,0.0,0.0,0.0,0.0,0.0,0.0,0.0,0.0,0.0,0.0,0.0,0.0,0.0,0.0,0.0,0.0,0.0,0.0,0.0,-2.0315,-2.0376,0.0,0.0,0.0,0.0,0.0,0.0,0.0,0.0,0.0,0.0,0.0,-3.2187,-3.3446,0.0,0.0,0.0,0.0,0.0,0.0,0.0,0.0,0.0,0.0,0.0,0.0,-3.8016,-3.9851,-3.9563,-3.9694,-4.0291,-3.891,-3.7908,-3.7147,-3.652,-3.5966,-3.5791,0.0,0.0,0.0,0.0,0.0,0.0,0.0,0.0,0.0,0.0,0.0,0.0,0.0,0.0,0.0,0.0,0.0,0.0,0.0,0.0,0.0,0.0,0.0,0.0,0.0,-3.1754,0.0,0.0,0.0,0.0,0.0,0.0,0.0,0.0,0.0,0.0,0.0,-4.3163,-4.443,-4.5412,-4.6461,-4.775,-4.8471,-4.9126,0.0,0.0,0.0,0.0,0.0,0.0,0.0,0.0,0.0,0.0,0.0,0.0,0.0,0.0,-5.7173,-5.6228,-5.543,-5.4827,-5.4947,0.0,0.0,0.0,0.0,0.0,0.0,0.0,0.0,0.0,0.0,0.0,0.0,0.0,0.0,-2.1221,0.0,-2.1352,0.0,0.0,0.0,0.0,0.0,0.0,0.0,0.0,-3.1605,-3.3509,-3.4486,-3.579,-3.6531,0.0,-3.5575,-3.4327,0.0,0.0,0.0,0.0,0.0,0.0,0.0,0.0,-3.8713,-4.0437,-4.0678,-4.1116,-4.1594,-4.0801,-4.0206,-3.9657,-3.9692,-3.8906,-3.6924,-3.7352,-3.6434,0.0,0.0,0.0,0.0,0.0,0.0,0.0,0.0,0.0,0.0,0.0,0.0,0.0,0.0,0.0,0.0,0.0,0.0,0.0,0.0,0.0,0.0,0.0,-3.4101,0.0,0.0,0.0,0.0,0.0,0.0,0.0,0.0,0.0,-4.1786,-4.3032,-4.432,-4.5412,-4.6395,-4.7772,-4.9473,0.0,0.0,0.0,0.0,0.0,0.0,0.0,-5.7512,-5.9127,-5.9212,-5.9725,-6.1409,-6.1519,-6.1919,-6.3354,0.0,0.0,-6.0913,-6.0086,-5.9923,-6.0188,-6.0452,-6.1246,-6.2933,-6.3913,-6.528,0.0,0.0,0.0,0.0,0.0,0.0,0.0,0.0,-2.2606,-2.2307,0.0,-2.2473,0.0,0.0,0.0,0.0,0.0,-2.7628,0.0,0.0,-3.4191,-3.5687,-3.733,-3.7869,-3.8273,-3.864,-3.8255,-3.7833,-3.7203,-3.4151,0.0,0.0,0.0,0.0,0.0,0.0,-3.93,-4.0565,-4.2509,-4.2964,-4.1849,-4.2571,-4.1992,-4.0061,-4.1465,-4.0966,-3.8104,-3.9322,-3.846,-3.4822,-3.5344,0.0,0.0,0.0,0.0,0.0,0.0,0.0,0.0,0.0,0.0,0.0,0.0,0.0,0.0,0.0,0.0,0.0,0.0,0.0,0.0,-3.6287,0.0,0.0,0.0,0.0,0.0,0.0,0.0,0.0,0.0,0.0,-4.3425,-4.4517,-4.5544,-4.6046,0.0,0.0,0.0,0.0,-5.4554,-5.6693,-5.7493,-5.7976,-5.8645,-5.8789,-5.9242,-6.0835,0.0,0.0,-6.4728,-6.5116,-6.5756,-6.8509,-6.8864,-6.7586,-6.2924,-6.3487,-6.4805,-6.5738,-6.6704,-6.8045,-6.8917,-6.941,-7.0531,-2.7942,0.0,0.0,0.0,0.0,-2.6598,-2.5825,-2.5838,-2.4153,-2.3393,-2.3369,-2.3569,0.0,0.0,0.0,0.0,0.0,0.0,-3.3516,-3.4606,-3.6849,-3.8109,-3.8731,-3.9135,-3.9373,-3.9502,-3.9373,-3.9116,-3.8695,-3.7656,-3.6587,-3.5577,0.0,0.0,0.0,0.0,-4.0547,-4.1757,-4.3188,-4.4106,-4.4335,-4.4652,-4.4714,-4.4127,-4.4339,-4.3626,-4.2138,-4.1057,-3.9362,-3.7266,-3.622,0.0,0.0,0.0,0.0,0.0,0.0,0.0,0.0,0.0,0.0,0.0,0.0,0.0,0.0,0.0,0.0,0.0,0.0,0.0,-3.739,-3.8115,-3.8523,0.0,0.0,0.0,0.0,0.0,0.0,0.0,0.0,0.0,-4.6133,-4.6286,-4.6767,0.0,0.0,-5.1376,-5.3428,-5.4944,-5.647,-5.7862,-5.9256,0.0,-6.0697,-6.2016,-6.3358,-6.4122,-6.431,-6.5254,-6.7781,-6.82,-6.9001,-7.1352,-7.1813,-7.1169,-6.9515,-6.8437,-6.8223,-6.8801,-6.978,-7.0747,-7.131,-7.2022,-7.3037,-3.2203,-3.4509,-3.2031,-3.1337,-3.1495,-2.9254,-2.8305,-2.7983,-2.5753,-2.496,-2.5275,-2.5113,-2.5834,-2.7255,-2.7078,0.0,0.0,0.0,-3.539,-3.6711,-3.8562,-3.9648,-3.996,-4.0217,-4.0492,-4.0804,-4.0804,-4.0602,-4.0198,-4.0198,-3.9502,-3.8163,0.0,0.0,-3.8768,-4.0052,-4.1299,-4.2491,-4.3554,-4.4471,-4.5278,-4.5682,-4.5883,-4.5883,-4.5663,-4.507,-4.3767,-4.2151,-4.0441,-3.8678,-3.7491,-3.6555,0.0,0.0,0.0,0.0,0.0,0.0,0.0,0.0,0.0,0.0,0.0,-3.3496,-3.3456,0.0,0.0,0.0,-3.7315,-3.8898,-4.0366,-4.0586,0.0,0.0,0.0,0.0,0.0,0.0,0.0,-4.526,-4.6024,-4.6854,-4.7903,-4.8121,-4.8718,-5.0008,-5.1672,-5.358,-5.6073,0.0,-5.9305,-6.106,-6.2198,-6.3012,-6.3792,-6.5005,-6.6122,-6.6102,-6.6504,-6.7469,-6.958,-6.996,-7.0931,-7.3053,-7.3783,-7.366,-7.326,-7.2359,-7.1614,-7.1789,-7.2728,-7.3741,-7.4472,-7.4965,-7.5764,-3.6386,-4.0162,-3.384,-3.2296,-3.39,-3.1571,-3.0236,-2.9579,-2.7408,-2.6923,-2.7434,-2.691,-2.8413,-3.1405,-3.0905,0.0,-3.6396,-3.4915,-3.6254,-3.9447,-3.985,-4.0437,-4.1134,-4.1152,-4.1555,-4.2271,-4.2271,-4.2087,-4.1721,-4.1721,-4.1537,-4.1134,-4.007,-3.9685,-4.0015,-4.084,-4.1812,-4.2949,-4.3774,-4.4563,-4.5333,-4.57,-4.5883,-4.5883,-4.5883,-4.5325,-4.4026,-4.3016,-4.1578,-3.9641,-3.8844,-3.8341,-3.7794,0.0,0.0,0.0,0.0,0.0,0.0,0.0,0.0,0.0,0.0,0.0,0.0,0.0,0.0,0.0,-4.0825,0.0,-4.3316,-4.3403,0.0,0.0,0.0,-4.4255,-4.4757,-4.5216,-4.5871,-4.6854,0.0,0.0,-4.9153,-5.0008,-5.1233,-5.2686,-5.3978,-5.599,-5.9298,-6.0695,-6.2389,-6.4923,-6.5501,-6.5894,-6.6542,-6.7237,-6.7562,-6.7416,-6.772,-6.8654,-7.0392,-7.0976,-7.2022,-7.4454,-7.5102,-7.5169,-7.5107,-7.4861,-7.4998,-7.4815,-7.5471,-7.6461,-7.7579,-7.7773,-7.8313,-3.549,-3.7672,-3.4864,-3.5304,-3.7741,-3.3766,-3.2048,-3.1699,-2.9446,-2.8055,-2.7355,-2.9269,-3.1874,-3.4658,-3.4471,-3.5499,-3.7927,-3.7605,-3.8819,-4.1134,-4.1519,-4.1794,-4.1977,-4.1996,-4.2087,-4.2271,-4.2271,-4.2234,-4.2142,-4.2124,-4.2087,-4.1996,-4.1996,-4.1739,-4.1317,-4.2362,-4.3206,-4.3793,-4.46,-4.5242,-4.5737,-4.5847,-4.5883,-4.5883,-4.5883,-4.5847,-4.5361,-4.4115,-4.3269,-4.2598,-4.0393,-3.9284,-3.9948,-3.849,0.0,0.0,0.0,0.0,0.0,0.0,0.0,0.0,0.0,-3.7424,-3.8582,0.0,-4.1175,0.0,-4.2988,-4.4298,-4.5238,-4.5325,0.0,0.0,-4.5434,-4.5828,-4.6701,-4.6898,-4.7466,-4.8798,-4.9148,-5.0065,-5.2148,-5.3128,-5.4719,-5.7849,-5.7218,-5.7629,-6.0931,-6.3197,-6.4713,-6.5946,-6.6416,-6.6782,-6.7096,-6.777,-6.8519,-6.9016,-6.9276,-6.9889,-7.1325,-7.2746,-7.3901,-7.5275,-7.6435,-7.6792,-7.5969,-7.5784,-7.6338,-7.7338,-7.7073,-7.6932,-7.8523,-7.8416,-7.8524,-3.6126,-3.8465,-3.5928,-3.6616,-3.9089,-3.4305,-3.2563,-3.2921,-3.0791,-3.0093,-3.0455,-3.3129,-3.5087,-3.6147,-3.6483,-3.7708,-3.9322,-3.9165,-4.0157,-4.1959,-4.2179,-4.2362,-4.2546,-4.2546,-4.2637,-4.2821,-4.3004,-4.3078,-4.3096,-4.3261,-4.3334,-4.3353,-4.3573,-4.3444,-4.3041,-4.3499,-4.405,-4.4618,-4.5242,-4.5682,-4.5883,-4.5883,-4.5883,-4.5883,-4.5883,-4.5883,-4.5883,-4.4742,-4.3962,-4.3767,-4.1645,-4.0892,-4.1231,-4.0071,-3.9271,0.0,0.0,0.0,0.0,0.0,0.0,0.0,0.0,0.0,0.0,0.0,-4.3447,-4.4582,-4.5412,-4.6264,-4.7204,-4.7291,-4.7291,-4.7291,-4.7488,-4.7837,-4.8383,-4.8623,-4.906,-4.9847,-5.0932,-5.2349,-5.3865,-5.537,-5.7467,-6.0597,-6.0079,-6.0278,-6.3032,-6.492,-6.6076,-6.6887,-6.7305,-6.7592,-6.7854,-6.8562,-6.9267,-6.9508,-6.9772,-7.0768,-7.2679,-7.3814,-7.4981,-7.6831,-7.7894,-7.8185,-7.7139,-7.7383,-7.8219,-7.9139,-7.9219,-7.9309,-8.0273,-8.0338,-8.0596,-3.7254,-3.9657,-3.6699,-3.6514,-3.7959,-3.4007,-3.2859,-3.3773,-3.2153,-3.2718,-3.4925,-3.6913,-3.7631,-3.7061,-3.7566,-3.8652,-4.0456,-3.9362,-3.9892,-4.172,-4.1894,-4.2269,-4.2651,-4.3004,-4.3243,-4.3664,-4.3995,-4.416,-4.4178,-4.4508,-4.4673,-4.4673,-4.4728,-4.4746,-4.4746,-4.4453,-4.4673,-4.537,-4.5718,-4.5883,-4.5883,-4.5883,-4.5883,-4.5883,-4.5883,-4.5883,-4.5883,-4.5129,-4.4418,-4.4062,-4.3034,-4.2528,-4.2423,-4.1746,-4.1209,0.0,-3.9923,0.0,0.0,0.0,0.0,0.0,0.0,0.0,0.0,-4.4823,-4.5871,-4.7619,-4.7772,-4.8121,-4.8995,-4.9082,-4.9082,-4.9104,-4.9454,-4.9759,-4.989,-5.0262,-5.0709,-5.0982,-5.3189,-5.4694,-5.5555,-5.7472,-5.9894,-6.1928,-6.2501,-6.3287,-6.5183,-6.605,-6.6756,-6.7854,-6.8063,-6.8246,-6.8804,-6.9598,-7.0121,-6.983,-7.0527,-7.1705,-7.392,-7.4721,-7.5825,-7.8216,-7.893,-7.8924,-7.8288,-7.9186,-8.0014,-8.0831,-8.1263,-8.168,-8.2229,-8.2542,-8.3132,-3.6915,-3.6328,-3.56,-3.5025,-3.4233,-3.337,-3.3715,-3.5033,-3.4662,-3.5219,-3.6498,-3.6866,-3.8165,-3.962,-3.7034,-3.7217,-3.9241,-3.6282,-3.6267,-3.8481,-4.0129,-4.1058,-4.1587,-4.309,-4.4068,-4.4435,-4.4526,-4.4563,-4.4563,-4.4636,-4.4673,-4.4673,-4.5021,-4.5168,-4.5187,0.0,0.0,0.0,-4.5847,-4.5883,-4.5883,-4.5883,-4.5883,-4.5883,-4.5883,0.0,-4.5883,-4.5713,-4.5659,-4.5397,-4.4321,0.0,0.0,0.0,0.0,0.0,0.0,0.0,0.0,0.0,0.0,0.0,-4.5911,-4.6167,-4.6724,-4.7575,-4.8405,-4.9148,-4.9235,-4.9454,-4.9978,-5.0043,-5.0043,-5.0065,-5.0131,-5.0502,-5.1267,-5.1463,-5.227,-5.4509,-5.526,-5.6678,-5.9305,-6.0836,-6.1953,-6.38,-6.4868,-6.5782,-6.6652,-6.6834,-6.72,-6.788,-6.8377,-6.9022,-6.9816,-7.0007,-7.0445,-7.0988,-7.2348,-7.3337,-7.4096,-7.6327,-7.761,-7.8247,-7.9024,-7.9883,-7.9629,-7.9795,-8.0484,-8.2017,-8.2472,-8.2655,-8.3211,-8.3531,-8.372,-3.7285,0.0,-3.6545,-3.6158,0.0,-3.5398,-3.5786,-3.6545,-3.5786,-3.6158,-3.727,-3.727,-3.8007,-3.9125,-3.7807,-3.8175,-3.9839,-3.851,-3.8958,-4.0806,-4.1734,-4.2491,-4.2863,-4.3997,-4.449,-4.4673,-4.4893,-4.4985,-4.4985,-4.5187,-4.5278,-4.5278,-4.5498,-4.559,-4.559,-4.5792,-4.5883,-4.5883,-4.5883,-4.5883,-4.5883,-4.5883,-4.5883,-4.5883,0.0,0.0,0.0,0.0,0.0,0.0,0.0,0.0,0.0,0.0,0.0,-4.3224,-4.3466,-4.4071,-4.4985,-4.5764,-4.6927,-4.8982,-4.9575,-4.9394,-4.8667,-4.9191,-4.9803,-5.0305,-5.0546,-5.0895,-5.1332,-5.1594,-5.1747,-5.1747,-5.1747,-5.1922,-5.244,-5.2446,-5.3322,-5.558,-5.6884,-5.8684,-6.1146,-6.277,-6.408,-6.5186,-6.5894,-6.6599,-6.7357,-6.754,-6.7749,-6.8298,-6.8612,-6.9014,-6.9651,-7.0007,-7.0771,-7.2035,-7.3275,-7.4464,-7.5959,-7.7622,-7.8866,-7.9274,-8.0111,-8.0594,-8.1022,-8.1189,-8.1827,-8.2955,-8.3465,-8.3716,-8.4065,-8.4686,-8.5018,-3.7766,-3.775,-3.7702,-3.7671,-3.7671,-3.7671,-3.7671,-3.7671,0.0,0.0,0.0,-3.7855,-3.7855,-3.804,-3.8391,-3.9109,-4.0038,-4.0618,-4.1734,-4.3143,-4.3397,-4.3832,-4.4195,-4.4599,-4.482,-4.4893,-4.5242,-4.5407,-4.5407,-4.5737,-4.5883,-4.5883,-4.5883,-4.5883,-4.5883,-4.5883,-4.5883,-4.5883,-4.5883,-4.5883,-4.5883,-4.5883,-4.5883,-4.5883,-4.5883,-4.5883,-4.5883,-4.5883,-4.5883,-4.5883,-4.5883,-4.5737,-4.5425,-4.5333,-4.5003,-4.4361,-4.546,-4.6501,-4.7728,-4.8901,-5.0294,-5.1863,-5.2402,-5.19,-5.024,-5.0568,-5.1004,-5.1419,-5.1834,-5.2206,-5.2577,-5.297,-5.3211,-5.3211,-5.3211,-5.3145,-5.34,-5.3726,-5.4543,-5.6375,-5.8522,-6.0605,-6.2543,-6.442,-6.5763,-6.6286,-6.6573,-6.6939,-6.7854,-6.8141,-6.8272,-6.869,-6.8821,-6.9014,-6.9485,-6.998,-7.1096,-7.2933,-7.3845,-7.5383,-7.7798,-7.8986,-7.9587,-8.074,-8.1186,-8.1766,-8.2296,-8.2803,-8.3498,-8.4091,-8.443,-8.4606,-8.4751,-8.5703,-8.6254,-3.8131,-3.81,-3.7798,-3.7671,-3.7671,-3.7671,-3.7671,-3.7671,-3.7486,-3.8023,-3.8942,-3.804,-3.8224,-3.8742,-3.69,-3.6715,-3.8007,-3.7149,-3.7679,-3.9047,-4.1018,-4.2325,-4.2706,-4.4443,-4.5388,-4.57,-4.5773,-4.581,-4.581,-4.5865,-4.5883,-4.5883,-4.5883,-4.5883,-4.5883,-4.5883,-4.5883,-4.5883,-4.5883,-4.5883,-4.5883,-4.5883,-4.5883,-4.5883,-4.5883,-4.5883,-4.5883,-4.5883,-4.5883,-4.5883,-4.5883,-4.5865,-4.581,-4.548,-4.526,-4.5132,-4.4967,-4.6,-4.861,-4.8945,-5.0177,-5.2671,-5.308,-5.2817,-5.2184,-5.2512,-5.2839,-5.2905,-5.2948,-5.3036,-5.3123,-5.3211,-5.3276,-5.3232,-5.3232,-5.332,-5.3777,-5.5095,-5.6735,-5.9016,-6.1076,-6.2935,-6.5014,-6.589,-6.6312,-6.6887,-6.7357,-6.7958,-6.8481,-6.8716,-6.8743,-6.8821,-6.8847,-6.918,-6.9816,-7.0144,-7.1392,-7.3404,-7.5078,-7.6587,-7.8525,-7.987,-8.0632,-8.1048,-8.1943,-8.2829,-8.3574,-8.4216,-8.4705,-8.5202,-8.504,-8.464,-8.4606,-8.6049,-8.7141,-3.8465,-3.8417,-3.81,-3.7957,-3.7941,-3.7766,-3.7671,-3.7671,-3.7671,-3.7855,-3.8208,-3.7855,-3.7855,-3.8208,-3.71,-3.738,-3.8667,-3.8813,-3.9632,-4.1323,-4.2819,-4.3883,-4.424,-4.5234,-4.5718,-4.5883,-4.5883,-4.5883,-4.5883,-4.5883,-4.5883,-4.5883,-4.5883,-4.5883,-4.5883,-4.5883,-4.5883,-4.5883,-4.5883,-4.5883,-4.5883,-4.5883,-4.5883,-4.5883,-4.5883,-4.5883,-4.5883,-4.5883,-4.5883,-4.5883,-4.5883,-4.5883,-4.5883,-4.5718,-4.5627,-4.5608,-4.689,-4.8242,-4.9693,-5.1129,-5.2549,-5.3822,-5.3997,-5.391,-5.3669,-5.3385,-5.3211,-5.3211,-5.3451,-5.3604,-5.3626,-5.3844,-5.3997,-5.3997,-5.3997,-5.4062,-5.4391,-5.4959,-5.6725,-5.9495,-6.0685,-6.257,-6.5886,-6.6286,-6.6652,-6.741,-6.8089,-6.856,-6.8821,-6.8847,-6.8847,-6.8847,-6.8847,-6.918,-6.998,-7.0934,-7.2458,-7.4772,-7.6587,-7.809,-7.9728,-8.0771,-8.1048,-8.1186,-8.2213,-8.319,-8.3918,-8.4457,-8.5083,-8.5566,-8.5148,-8.4708,-8.4785,-8.6187,-8.7593,-3.8815,-3.8783,-3.8449,-3.8259,-3.8179,-3.783,-3.7671,-3.7671,-3.7671,-3.7671,-3.7671,-3.7671,-3.7855,-3.804,-3.7935,-3.8482,-3.9653,-4.095,-4.2273,-4.3732,-4.5015,-4.5608,-4.5865,-4.5883,-4.5883,-4.5883,-4.5883,-4.5883,-4.5883,-4.5883,-4.5883,-4.5883,-4.5883,-4.5883,-4.5883,-4.5883,-4.5883,-4.5883,-4.5883,-4.5883,-4.5883,-4.5883,-4.5883,-4.5883,-4.5883,-4.5883,-4.5883,-4.5883,-4.5883,-4.5883,-4.5883,-4.5883,-4.5883,-4.5883,-4.6072,-4.6616,-4.8459,-5.0114,-5.0843,-5.3187,-5.4652,-5.4652,-5.4652,-5.4652,-5.4587,-5.3975,-5.3538,-5.3582,-5.3888,-5.4106,-5.4128,-5.4412,-5.4652,-5.4652,-5.4652,-5.4609,-5.4652,-5.5335,-5.6816,-5.9569,-6.0695,-6.2734,-6.5272,-6.639,-6.6939,-6.7985,-6.8586,-6.8821,-6.8847,-6.8847,-6.8847,-6.8847,-6.8847,-6.9485,-7.0445,-7.1847,-7.3845,-7.6288,-7.7798,-7.9129,-8.0462,-8.1048,-8.0956,-8.1001,-8.2199,-8.3259,-8.3816,-8.4551,-8.5224,-8.5716,-8.5182,-8.4853,-8.5447,-8.6483,-8.8098,-3.9164,-3.9117,-3.8783,-3.8481,-3.8163,-3.7814,-3.7671,-3.7671,-3.7671,-3.7671,-3.7671,-3.7671,-3.8224,-3.8808,-3.836,-3.8723,-3.9752,-4.1476,-4.2741,-4.3821,-4.5288,-4.5865,-4.5883,-4.5883,-4.5883,-4.5883,-4.5883,-4.5883,-4.5883,-4.5883,-4.5883,-4.5883,-4.5883,-4.5883,-4.5883,-4.5883,-4.5883,-4.5883,-4.5883,-4.5883,-4.5883,-4.5883,-4.5883,-4.5883,-4.5883,-4.5883,-4.5883,-4.5883,-4.5883,-4.5883,-4.5883,-4.5883,-4.5883,-4.5883,-4.6429,-4.7717,-4.8273,-4.938,-5.2111,-5.3744,-5.4652,-5.4652,-5.4652,-5.4652,-5.4652,-5.4565,-5.4499,-5.4499,-5.4543,-5.4543,-5.4587,-5.463,-5.4652,-5.4652,-5.4652,-5.4652,-5.4983,-5.7504,-5.9619,-5.9859,-6.2521,-6.5287,-6.6021,-6.6704,-6.7462,-6.8429,-6.8716,-6.8847,-6.8847,-6.8847,-6.8847,-6.8847,-6.9154,-7.0255,-7.182,-7.2775,-7.4743,-7.7622,-7.8525,-7.9526,-8.054,-8.0956,-8.0894,-8.0896,-8.2197,-8.3535,-8.3714,-8.4358,-8.5599,-8.5513,-8.5294,-8.5204,-8.6776,-8.7504,-8.8348,-3.9418,-3.918,-3.8846,-3.8386,-3.7893,-3.7718,-3.7671,-3.7671,-3.7671,-3.7671,-3.7671,-3.7671,-3.7967,-3.853,-3.8318,-3.859,-3.9558,-4.1369,-4.2571,-4.3347,-4.5056,-4.5883,-4.5883,-4.5883,-4.5883,-4.5883,-4.5883,-4.5883,-4.5883,-4.5883,-4.5883,-4.5883,-4.5883,-4.5883,-4.5883,-4.5883,-4.5883,-4.5883,-4.5883,-4.5883,-4.5883,-4.5883,-4.5883,-4.5883,-4.5883,-4.5883,-4.5883,-4.5883,-4.5883,-4.5883,-4.5883,-4.5883,-4.5883,-4.5883,-4.6635,-4.8088,-4.9748,-5.1569,-5.3587,-5.4298,-5.4652,-5.4652,-5.4652,-5.4652,-5.4652,-5.4652,-5.4652,-5.4652,-5.4652,-5.4652,-5.4652,-5.4652,-5.4652,-5.4652,-5.4652,-5.4652,-5.4829,-5.6814,-5.8752,-6.0023,-6.2195,-6.4595,-6.6073,-6.707,-6.7749,-6.8324,-6.8586,-6.8821,-6.8847,-6.8847,-6.8847,-6.8988,-7.0091,-7.1526,-7.2589,-7.3816,-7.5779,-7.7915,-7.9557,-8.0431,-8.028,-8.0494,-8.052,-8.0612,-8.2238,-8.3407,-8.3592,-8.4598,-8.5689,-8.5424,-8.565,-8.5921,-8.7316,-8.8058,-8.9106,-3.9323,-3.9037,-3.8703,-3.8274,-3.7814,-3.7718,-3.7671,-3.7671,-3.7671,-3.7671,-3.7671,-3.7671,-3.7861,-3.8179,-3.829,-3.8672,-3.9372,-4.1207,-4.2362,-4.3001,-4.475,-4.5713,-4.5883,-4.5883,-4.5883,-4.5883,-4.5883,-4.5883,-4.5883,-4.5883,-4.5883,-4.5883,-4.5883,-4.5883,-4.5883,-4.5883,-4.5883,-4.5883,-4.5883,-4.5883,-4.5883,-4.5883,-4.5883,-4.5902,-4.5993,-4.6048,-4.6048,-4.6158,-4.6232,-4.6213,-4.6122,-4.6048,-4.6048,-4.5957,-4.6803,-4.8643,-5.1388,-5.3566,-5.4652,-5.4652,-5.4652,-5.4652,-5.4652,-5.4652,-5.4652,-5.4652,-5.4652,-5.4652,-5.4652,-5.4652,-5.4652,-5.4652,-5.4652,-5.4652,-5.4652,-5.4807,-5.5422,-5.6941,-5.8803,-6.0531,-6.2532,-6.4086,-6.5886,-6.6965,-6.754,-6.7985,-6.835,-6.8716,-6.8795,-6.8847,-6.8961,-6.9413,-7.1067,-7.2313,-7.2941,-7.4858,-7.6858,-7.8273,-7.9681,-8.0111,-7.9909,-7.9847,-7.9945,-8.0318,-8.1787,-8.2812,-8.3252,-8.4333,-8.5384,-8.5056,-8.5344,-8.6385,-8.741,-8.8365,-8.94,-3.8735,-3.8672,-3.8354,-3.8179,-3.8131,-3.7814,-3.7671,-3.7671,-3.7671,-3.7671,-3.7671,-3.7671,-3.7861,-3.8211,-3.8481,-3.8862,-3.942,-4.0688,-4.1816,-4.2827,-4.399,-4.4939,-4.5883,-4.5883,-4.5883,-4.5883,-4.5883,-4.5883,-4.5883,-4.5883,-4.5883,-4.5883,-4.5883,-4.5883,-4.5883,-4.5883,-4.5883,-4.5883,-4.5883,-4.5883,-4.5883,-4.5883,-4.5902,-4.5957,-4.625,-4.6434,-4.6489,-4.6837,-4.7039,-4.7039,-4.6654,-4.6452,-4.6415,-4.6274,-4.7345,-4.9931,-5.2829,-5.4652,-5.4652,-5.4652,-5.4652,-5.4652,-5.4652,-5.4652,-5.4652,-5.4652,-5.4652,-5.4652,-5.4652,-5.4652,-5.4652,-5.4652,-5.4652,-5.4652,-5.4829,-5.5575,-5.6885,-5.8729,-6.052,-6.229,-6.3977,-6.5209,-6.6155,-6.6312,-6.6939,-6.7619,-6.8011,-6.8246,-6.8716,-6.8847,-6.955,-7.0367,-7.1446,-7.2145,-7.3747,-7.5449,-7.7472,-7.878,-7.9162,-7.9263,-7.9201,-7.9182,-7.9514,-8.0046,-8.1179,-8.201,-8.2822,-8.3521,-8.4527,-8.489,-8.5447,-8.6385,-8.741,-8.8365,-8.94,-3.8576,-3.8354,-3.8004,-3.7861,-3.7845,-3.7718,-3.7671,-3.7671,-3.7671,-3.7671,-3.7671,-3.7671,-3.7861,-3.8211,-3.8322,-3.8688,-3.9228,-4.0737,-4.1464,-4.2042,-4.3609,-4.456,-4.4957,-4.5506,-4.5883,-4.5883,-4.5883,-4.5883,-4.5883,-4.5883,-4.5883,-4.5883,-4.5883,-4.5883,-4.5883,-4.5883,-4.5883,-4.5883,-4.5883,-4.5883,-4.5883,-4.5883,-4.6012,-4.625,-4.6397,-4.6599,-4.6874,-4.7039,-4.7112,-4.7112,-4.6965,-4.6745,-4.6661,-4.7946,-4.9197,-5.0479,-5.303,-5.4652,-5.4652,-5.4652,-5.4652,-5.4652,-5.4652,-5.4652,-5.4652,-5.4652,-5.4652,-5.4652,-5.4652,-5.4652,-5.4652,-5.4652,-5.4652,-5.4829,-5.5664,-5.6618,-5.7731,-5.9787,-6.2082,-6.2745,-6.4235,-6.5475,-6.5711,-6.605,-6.6573,-6.7279,-6.7749,-6.8194,-6.883,-6.9763,-7.0772,-7.1344,-7.3235,-7.4924,-7.4459,-7.5761,-7.7384,-7.8491,-7.9109,-7.8801,-7.8647,-7.8462,-7.8591,-8.0203,-8.1028,-8.1988,-8.295,-8.3926,-8.4606,-8.4713,-8.5344,-8.6385,-8.741,-8.8365,-8.9449,-3.8497,-3.8195,-3.7941,-3.7766,-3.7671,-3.7671,-3.7671,-3.7671,-3.7671,-3.7671,-3.7671,-3.7671,-3.7814,-3.8036,-3.8147,-3.8497,-3.9053,-4.0173,-4.077,-4.1464,-4.3018,-4.4008,-4.4578,-4.5506,-4.5883,-4.5883,-4.5883,-4.5883,-4.5883,-4.5883,-4.5883,-4.5883,-4.5883,-4.5883,-4.5883,-4.5883,-4.5883,-4.5883,-4.5883,-4.5883,-4.5902,-4.6012,-4.6269,-4.6635,-4.68,-4.7002,-4.7295,-4.7424,-4.7497,-4.7479,-4.7369,-4.7305,-4.7627,-4.9581,-5.0903,-5.1637,-5.3857,-5.5133,-5.5111,-5.5133,-5.5067,-5.4893,-5.4893,-5.4849,-5.4696,-5.4652,-5.4652,-5.4652,-5.4652,-5.4652,-5.4829,-5.5159,-5.5488,-5.5664,-5.6664,-5.7824,-5.8992,-6.1169,-6.2697,-6.3669,-6.4683,-6.5397,-6.5423,-6.5763,-6.6207,-6.6756,-6.7331,-6.7906,-6.8568,-7.0421,-7.1886,-7.195,-7.4275,-7.5756,-7.5856,-7.6516,-7.6971,-7.7814,-7.8339,-7.8124,-7.8031,-7.7847,-7.8486,-8.0155,-8.1381,-8.2362,-8.3354,-8.4319,-8.4606,-8.4606,-8.5378,-8.6385,-8.741,-8.8329,-8.9449,-3.8513,-3.8243,-3.8211,-3.802,-3.7782,-3.7734,-3.7687,-3.7687,-3.7671,-3.7671,-3.7671,-3.7671,-3.7687,-3.7766,-3.802,-3.8354,-3.8703,-3.9244,-3.9981,-4.1255,-4.2426,-4.3418,-4.418,-4.5318,-4.5883,-4.5883,-4.5883,-4.5883,-4.5883,-4.5883,-4.5883,-4.5883,-4.5883,-4.5883,-4.5883,-4.5883,-4.5883,-4.5883,-4.5883,-4.5883,-4.5938,-4.6232,-4.6617,-4.7057,-4.7406,-4.7626,-4.7699,-4.8029,-4.8176,-4.8176,-4.7882,-4.8275,-4.9225,-5.0585,-5.2125,-5.3546,-5.5097,-5.6072,-5.605,-5.6007,-5.5744,-5.546,-5.5373,-5.5133,-5.4827,-5.4696,-5.4652,-5.4652,-5.4652,-5.4652,-5.4983,-5.6143,-5.6987,-5.7332,-5.7653,-5.9161,-6.1524,-6.2672,-6.3346,-6.4868,-6.5371,-6.5397,-6.5397,-6.5449,-6.5789,-6.639,-6.7049,-6.7788,-6.891,-7.1067,-7.2267,-7.3113,-7.5157,-7.6704,-7.6983,-7.7046,-7.6946,-7.7139,-7.7293,-7.7293,-7.7517,-7.7524,-7.8753,-8.0296,-8.1766,-8.2822,-8.3731,-8.4606,-8.4606,-8.4819,-8.5651,-8.6286,-8.741,-8.8329,-8.9413,-3.8624,-3.8545,-3.8529,-3.8481,-3.8338,-3.8131,-3.8111,-3.8104,-3.7871,-3.7671,-3.7671,-3.7671,-3.7671,-3.7687,-3.7798,-3.8036,-3.837,-3.8719,-3.9356,-4.0432,-4.2042,-4.3018,-4.3591,-4.5129,-4.5883,-4.5883,-4.5883,-4.5883,-4.5883,-4.5883,-4.5883,-4.5883,-4.5883,-4.5883,-4.5883,-4.5883,-4.5883,-4.5883,-4.5883,-4.5883,-4.592,-4.6287,-4.669,-4.7094,-4.7479,-4.7809,-4.8084,-4.8231,-4.8286,-4.8286,-4.8157,-4.8685,-4.9839,-5.1011,-5.2352,-5.3856,-5.5344,-5.6116,-5.6116,-5.6116,-5.6094,-5.5854,-5.5592,-5.5351,-5.5133,-5.4849,-5.4674,-5.4652,-5.4652,-5.4652,-5.4983,-5.6317,-5.7309,-5.7309,-5.9499,-6.1169,-6.2697,-6.3856,-6.4709,-6.5212,-6.5397,-6.5397,-6.5397,-6.5397,-6.5737,-6.6734,-6.788,-6.8946,-7.0475,-7.3125,-7.5312,-7.5539,-7.7053,-7.7593,-7.7508,-7.7262,-7.7016,-7.7016,-7.7016,-7.7016,-7.7147,-7.7734,-7.9035,-8.0537,-8.2,-8.3208,-8.4211,-8.4606,-8.4606,-8.4606,-8.4995,-8.6022,-8.7221,-8.8239,-8.9121,-3.9005,-3.8894,-3.8894,-3.8815,-3.8672,-3.8465,-3.843,-3.8409,-3.8222,-3.81,-3.8131,-3.7957,-3.7861,-3.783,-3.7734,-3.7877,-3.8211,-3.8545,-3.9005,-3.9707,-4.1448,-4.2426,-4.3001,-4.4939,-4.5883,-4.5883,-4.5883,-4.5883,-4.5883,-4.5883,-4.5883,-4.5883,-4.5883,-4.5883,-4.5883,-4.5883,-4.5883,-4.5883,-4.5883,-4.5883,-4.6012,-4.6434,-4.6837,-4.713,-4.7626,-4.8011,-4.8267,-4.8861,-4.8879,-4.8484,-4.8879,-5.0084,-5.1725,-5.2627,-5.3613,-5.5123,-5.6068,-5.6662,-5.664,-5.6684,-5.6531,-5.6356,-5.6094,-5.5723,-5.5439,-5.5045,-5.4893,-5.4696,-5.4652,-5.4983,-5.5816,-5.7332,-5.8483,-5.933,-6.1169,-6.286,-6.3695,-6.4709,-6.5212,-6.5397,-6.5397,-6.5397,-6.5397,-6.5423,-6.5737,-6.6895,-6.8359,-6.9976,-7.1666,-7.4668,-7.6063,-7.7169,-7.7844,-7.8064,-7.799,-7.757,-7.7077,-7.7016,-7.7016,-7.7016,-7.7016,-7.812,-7.9284,-8.1284,-8.2983,-8.3698,-8.4606,-8.4606,-8.4606,-8.4606,-8.4713,-8.5719,-8.6934,-8.7504,-8.8579,-3.9561,-3.926,-3.926,-3.9085,-3.8815,-3.8751,-3.8624,-3.8701,-3.8576,-3.8703,-3.8561,-3.8402,-3.8227,-3.8147,-3.7957,-3.8004,-3.8259,-3.8624,-3.8926,-3.9484,-4.0721,-4.185,-4.3209,-4.5129,-4.5883,-4.5883,-4.5883,-4.5883,-4.5883,-4.5883,-4.5883,-4.5883,-4.5883,-4.5883,-4.5883,-4.5883,-4.5883,-4.5883,-4.5883,-4.5883,-4.5938,-4.6672,-4.7075,-4.7149,-4.8023,-4.8645,-4.8861,-5.004,-5.004,-4.9058,-5.004,-5.1948,-5.4441,-5.522,-5.5701,-5.7011,-5.7492,-5.7426,-5.747,-5.7361,-5.723,-5.688,-5.6706,-5.6443,-5.5723,-5.5504,-5.5242,-5.4827,-5.4761,-5.5379,-5.7033,-5.8653,-6.0504,-6.2345,-6.3022,-6.3856,-6.5053,-6.5371,-6.5371,-6.5397,-6.5397,-6.5397,-6.5397,-6.5397,-6.5896,-6.6925,-6.8701,-7.0447,-7.2483,-7.5254,-7.7063,-7.8003,-7.878,-7.858,-7.8401,-7.7508,-7.7077,-7.7016,-7.7147,-7.7246,-7.7734,-7.8942,-8.0264,-8.2248,-8.3477,-8.4211,-8.4606,-8.4606,-8.4606,-8.4606,-8.4995,-8.5719,-8.6616,-8.7421,-8.8934,-3.9704,-3.9625,-3.9625,-3.9577,-3.945,-3.9212,-3.9053,-3.8989,-3.8783,-3.8783,-3.8735,-3.864,-3.856,-3.8545,-3.8465,-3.8481,-3.8608,-3.891,-3.9101,-3.926,-3.9787,-4.1674,-4.3799,-4.5318,-4.5883,-4.5883,-4.5883,-4.5883,-4.5883,-4.5883,-4.5883,-4.5883,-4.5883,-4.5883,-4.5883,-4.5883,-4.5883,-4.5883,-4.5883,-4.5902,-4.603,-4.669,-4.7094,-4.7185,-4.9038,-4.9825,-5.0236,-5.1387,-5.2161,-5.1774,-5.1968,-5.3104,-5.5031,-5.522,-5.5996,-5.7141,-5.7514,-5.7514,-5.7514,-5.7514,-5.7448,-5.7317,-5.7011,-5.6706,-5.6465,-5.6116,-5.5723,-5.5308,-5.5198,-5.5888,-5.7274,-5.9185,-6.1359,-6.4042,-6.4575,-6.4709,-6.5212,-6.5397,-6.5397,-6.5397,-6.5397,-6.5397,-6.5397,-6.5581,-6.6371,-6.8248,-7.0246,-7.2355,-7.4486,-7.6681,-7.8776,-7.9213,-7.9591,-7.922,-7.8616,-7.7662,-7.7108,-7.7046,-7.7277,-7.7734,-7.8817,-8.0352,-8.2034,-8.3851,-8.3993,-8.45,-8.4606,-8.4606,-8.4606,-8.4708,-8.4921,-8.5583,-8.7054,-8.817,-8.9839,-3.9768,-3.9768,-3.9768,-3.9768,-3.9736,-3.953,-3.945,-3.9403,-3.9244,-3.9132,-3.9117,-3.8974,-3.891,-3.8894,-3.8767,-3.8688,-3.8735,-3.9069,-3.9404,-4.0044,-4.1332,-4.2635,-4.399,-4.5129,-4.5883,-4.5883,-4.5883,-4.5883,-4.5883,-4.5883,-4.5883,-4.5883,-4.5883,-4.5883,-4.5883,-4.5883,-4.5883,-4.5883,-4.5902,-4.5957,-4.6177,-4.6764,-4.7167,-4.7794,-4.9522,-5.1017,-5.2354,-5.3508,-5.389,-5.389,-5.3869,-5.4652,-5.5996,-5.6184,-5.6559,-5.7514,-5.7514,-5.7514,-5.7514,-5.7514,-5.7514,-5.7492,-5.723,-5.7011,-5.6793,-5.6531,-5.6203,-5.5766,-5.5701,-5.6909,-5.9038,-6.1181,-6.3401,-6.5257,-6.5554,-6.5397,-6.5397,-6.5397,-6.5397,-6.5397,-6.5397,-6.5397,-6.5397,-6.6002,-6.7344,-6.9323,-7.163,-7.4028,-7.6504,-7.8549,-7.998,-8.0295,-7.982,-7.9189,-7.8678,-7.7785,-7.7239,-7.7147,-7.8216,-7.8565,-7.9745,-8.1538,-8.283,-8.4035,-8.4392,-8.464,-8.4708,-8.4776,-8.4877,-8.4945,-8.4979,-8.6027,-8.784,-8.9244,-9.0867,-3.9768,-3.9768,-3.9768,-3.9768,-3.9768,-3.9768,-3.972,-3.9752,-3.9704,-3.9704,-3.9641,-3.9403,-3.9275,-3.926,-3.9053,-3.8846,-3.8862,-3.9388,-4.0235,-4.1324,-4.269,-4.3609,-4.34,-4.5129,-4.5883,-4.5883,-4.5883,-4.5883,-4.5883,-4.5883,-4.5883,-4.5883,-4.5883,-4.5883,-4.5883,-4.5883,-4.5883,-4.5883,-4.5883,-4.6085,-4.6415,-4.6874,-4.7259,-4.7839,-4.9969,-5.2527,-5.4461,-5.5409,-5.5409,-5.5409,-5.5409,-5.6184,-5.7328,-5.7514,-5.7514,-5.7514,-5.7514,-5.7514,-5.7514,-5.7514,-5.7514,-5.7514,-5.7514,-5.7361,-5.7011,-5.688,-5.6684,-5.6225,-5.6363,-5.8339,-6.1446,-6.4374,-6.5718,-6.6312,-6.5894,-6.5632,-6.5554,-6.5475,-6.5397,-6.5397,-6.5397,-6.5397,-6.5845,-6.6864,-6.8453,-7.0236,-7.2585,-7.5243,-7.7268,-7.9039,-8.0182,-8.0848,-8.0186,-7.9201,-7.8555,-7.7908,-7.7617,-7.7507,-7.9284,-8.0231,-8.095,-8.2263,-8.331,-8.4143,-8.45,-8.4776,-8.4979,-8.5046,-8.5215,-8.5734,-8.6113,-8.7641,-8.9407,-9.0489,-9.1885,-3.9768,-3.9768,-3.9768,-3.9768,-3.9768,-3.9768,-3.9768,-3.9768,-3.9768,-3.9947,-3.9736,-3.9673,-3.9625,-3.9641,-3.9514,-3.953,-3.9659,-4.0335,-4.1365,-4.2324,-4.2758,-4.3609,-4.399,-4.5318,-4.5883,-4.5883,-4.5883,-4.5883,-4.5883,-4.5883,-4.5883,-4.5883,-4.5883,-4.5883,-4.5883,-4.5883,-4.5883,-4.5883,-4.5883,-4.6103,-4.6507,-4.691,-4.7314,-4.809,-5.0785,-5.3869,-5.6371,-5.6954,-5.6954,-5.6954,-5.6954,-5.7141,-5.7328,-5.7514,-5.7514,-5.7514,-5.7514,-5.7514,-5.7514,-5.7514,-5.7514,-5.7514,-5.7514,-5.7492,-5.7405,-5.7339,-5.7121,-5.7138,-5.8052,-6.0147,-6.3298,-6.5657,-6.6777,-6.6887,-6.6782,-6.6652,-6.6599,-6.5946,-6.5554,-6.5475,-6.5475,-6.5397,-6.5608,-6.755,-6.9406,-7.1297,-7.3828,-7.6359,-7.7993,-7.9557,-8.0322,-8.1048,-8.0248,-7.9324,-7.8709,-7.8164,-7.7947,-7.8216,-7.9867,-8.1505,-8.223,-8.2942,-8.3893,-8.4392,-8.45,-8.4843,-8.5215,-8.5587,-8.579,-8.652,-8.7356,-8.8839,-9.023,-9.1453,-9.2884,-3.9768,-3.9768,-3.9768,-3.9768,-3.9963,-4.0336,-4.0513,-4.053,-4.0513,-4.0513,-4.0336,-3.9947,-3.9768,-3.9768,-3.9768,-3.9752,-4.0141,-4.1288,-4.2234,-4.3001,-4.3782,-4.4542,-4.4939,-4.5506,-4.5883,-4.5883,-4.5883,-4.5883,-4.5883,-4.5883,-4.5883,-4.5883,-4.5883,-4.5883,-4.5883,-4.5883,-4.5883,-4.5883,-4.5902,-4.6158,-4.6727,-4.6984,-4.8375,-4.9778,-5.2023,-5.4271,-5.7141,-5.7514,-5.7514,-5.7514,-5.7514,-5.7514,-5.7514,-5.7514,-5.7514,-5.7514,-5.7514,-5.7514,-5.7514,-5.7514,-5.7514,-5.7514,-5.7514,-5.7514,-5.7514,-5.7514,-5.796,-5.8452,-5.9589,-6.1393,-6.4793,-6.6553,-6.7376,-6.7462,-6.7279,-6.7148,-6.7017,-6.6547,-6.6181,-6.6181,-6.6259,-6.7005,-6.7849,-6.9179,-7.1378,-7.3862,-7.5714,-7.8093,-7.8971,-8.0182,-8.0492,-8.0725,-8.0186,-7.9478,-7.8893,-7.8522,-7.8307,-7.8911,-8.0199,-8.2001,-8.331,-8.3893,-8.45,-8.4674,-8.4776,-8.5249,-8.5621,-8.5993,-8.6501,-8.7261,-8.832,-8.97,-9.109,-9.2636,-9.4071,-3.9768,-3.9768,-3.9768,-3.9768,-3.9963,-4.0707,-4.1094,-4.1271,-4.1271,-4.1078,-4.1078,-4.0336,-4.0141,-3.9768,-3.9768,-3.9963,-4.0724,-4.1481,-4.2426,-4.3782,-4.456,-4.5318,-4.5695,-4.5883,-4.5883,-4.5883,-4.5883,-4.5883,-4.5883,-4.5883,-4.5883,-4.5883,-4.5883,-4.5883,-4.5883,-4.5883,-4.5883,-4.5883,-4.5902,-4.6269,-4.691,-4.7112,-4.8818,-5.1943,-5.3275,-5.4652,-5.6954,-5.7514,-5.7514,-5.7514,-5.7514,-5.7514,-5.7514,-5.7514,-5.7514,-5.7514,-5.7514,-5.7514,-5.7514,-5.7514,-5.7514,-5.7514,-5.7514,-5.7514,-5.7514,-5.8071,-5.8926,-6.0,-6.1172,-6.2953,-6.5986,-6.7351,-6.7976,-6.8037,-6.7645,-6.741,-6.7357,-6.7357,-6.7305,-6.6965,-6.7131,-6.7668,-6.9486,-7.1172,-7.3713,-7.621,-7.7913,-7.9342,-8.0078,-8.0632,-8.0771,-8.0756,-8.0278,-7.9324,-7.8678,-7.8266,-7.8085,-7.9499,-8.0799,-8.223,-8.3784,-8.4285,-8.464,-8.4843,-8.5046,-8.5554,-8.6129,-8.667,-8.7355,-8.8074,-8.9358,-9.0897,-9.2342,-9.3855,-9.5145,-3.9768,-3.9768,-3.9768,-3.9768,-3.9768,-3.9963,-4.0707,-4.1271,-4.1464,-4.1271,-4.1271,-4.1078,-4.0513,-3.9947,-3.9768,-4.0724,-4.1481,-4.2042,-4.3001,-4.456,-4.5165,-4.5183,-4.5883,-4.5957,-4.592,-4.5883,-4.5883,-4.5883,-4.5883,-4.5883,-4.5883,-4.5883,-4.5883,-4.5883,-4.5883,-4.5883,-4.5883,-4.5883,-4.5902,-4.6305,-4.691,-4.7628,-4.9049,-5.266,-5.3869,-5.5619,-5.6954,-5.7514,-5.7514,-5.7514,-5.7514,-5.7514,-5.7514,-5.7514,-5.7514,-5.7514,-5.7514,-5.7514,-5.7514,-5.7514,-5.7514,-5.7514,-5.7514,-5.7514,-5.7885,-5.8971,-6.0022,-6.1265,-6.3378,-6.5839,-6.7957,-6.8498,-6.8524,-6.8638,-6.856,-6.8429,-6.8429,-6.835,-6.8037,-6.7488,-6.7766,-6.8626,-7.0814,-7.2981,-7.5066,-7.7029,-7.873,-7.9786,-8.0339,-8.0632,-8.0771,-8.0695,-8.0463,-7.9386,-7.837,-7.7926,-7.7832,-7.9745,-8.1154,-8.223,-8.3564,-8.4251,-8.4708,-8.4979,-8.5452,-8.6061,-8.6636,-8.7313,-8.7888,-8.8574,-9.0295,-9.2119,-9.3142,-9.4159,-9.5503,-3.9768,-3.9768,-3.9768,-3.9768,-3.9963,-4.0336,-4.1094,-4.2042,-4.2042,-4.2443,-4.2443,-4.185,-4.1078,-4.0513,-3.9963,-4.053,-4.1094,-4.2059,-4.3001,-4.418,-4.5119,-4.5481,-4.5975,-4.6085,-4.603,-4.5957,-4.5883,-4.5883,-4.5883,-4.5883,-4.5883,-4.5883,-4.5883,-4.5883,-4.5883,-4.5883,-4.5883,-4.5883,-4.5938,-4.6287,-4.7287,-4.82,-5.0455,-5.2387,-5.4461,-5.5996,-5.7141,-5.7514,-5.7514,-5.7514,-5.7514,-5.7514,-5.7514,-5.7514,-5.7514,-5.7514,-5.7514,-5.7514,-5.7514,-5.7514,-5.7514,-5.7514,-5.7514,-5.7514,-5.7885,-5.9132,-6.1265,-6.3378,-6.5322,-6.7789,-6.8654,-6.8847,-6.8847,-6.8847,-6.8847,-6.8847,-6.8847,-6.8847,-6.8455,-6.7985,-6.853,-6.9938,-7.2721,-7.4572,-7.6181,-7.8022,-7.9688,-8.037,-8.0771,-8.0771,-8.0771,-8.0664,-8.0432,-7.957,-7.8627,-7.835,-7.8279,-7.9989,-8.1505,-8.2605,-8.3531,-8.4392,-8.4945,-8.5317,-8.5892,-8.6467,-8.7313,-8.8023,-8.8564,-8.916,-9.0918,-9.2383,-9.3271,-9.4336,-9.5866,-3.9768,-3.9768,-3.9768,-3.9768,-3.9963,-4.0707,-4.1464,-4.2426,-4.2618,-4.3209,-4.3799,-4.2426,-4.1464,-4.1094,-4.0513,-4.0336,-4.053,-4.2251,-4.3053,-4.4166,-4.5143,-4.5888,-4.6195,-4.6232,-4.6269,-4.592,-4.5883,-4.5883,-4.5883,-4.5883,-4.5883,-4.5883,-4.5883,-4.5883,-4.5883,-4.5883,-4.5883,-4.5883,-4.592,-4.6305,-4.7846,-4.9683,-5.1696,-5.3296,-5.4841,-5.6371,-5.7328,-5.7514,-5.7514,-5.7514,-5.7514,-5.7514,-5.7514,-5.7514,-5.7514,-5.7514,-5.7514,-5.7514,-5.7514,-5.7514,-5.7514,-5.7514,-5.7514,-5.7514,-5.8234,-5.984,-6.2493,-6.5839,-6.762,-6.868,-6.8847,-6.8847,-6.8847,-6.8847,-6.8847,-6.8847,-6.8847,-6.8847,-6.8847,-6.883,-6.932,-7.1095,-7.3662,-7.5369,-7.6769,-7.8859,-8.054,-8.054,-8.091,-8.091,-8.0986,-8.0771,-8.034,-7.9632,-7.9171,-7.9088,-7.9321,-8.0352,-8.177,-8.2942,-8.3784,-8.45,-8.5114,-8.5655,-8.6264,-8.6907,-8.782,-8.8531,-8.8835,-8.971,-9.1398,-9.255,-9.3213,-9.4597,-9.6223,-3.9768,-3.9768,-3.9768,-3.9768,-3.9768,-3.9947,-4.0513,-4.1464,-4.2426,-4.281,-4.3209,-4.2635,-4.2042,-4.1271,-4.1288,-4.1674,-4.2059,-4.2878,-4.3783,-4.497,-4.555,-4.5952,-4.6397,-4.6434,-4.6269,-4.5957,-4.5883,-4.5883,-4.5883,-4.5883,-4.5883,-4.5883,-4.5883,-4.5883,-4.5883,-4.5883,-4.5883,-4.5883,-4.5902,-4.7045,-4.9091,-5.0968,-5.2911,-5.4737,-5.6184,-5.7141,-5.7536,-5.7514,-5.7514,-5.7514,-5.7514,-5.7514,-5.7514,-5.7514,-5.7514,-5.7514,-5.7514,-5.7514,-5.7514,-5.7514,-5.7514,-5.7514,-5.7514,-5.7514,-5.8764,-6.1265,-6.4429,-6.7957,-6.868,-6.8847,-6.8847,-6.8847,-6.8847,-6.8847,-6.8847,-6.8847,-6.8847,-6.8847,-6.8847,-6.9154,-6.9485,-7.1765,-7.4294,-7.5722,-7.7299,-7.9415,-8.1048,-8.1048,-8.1048,-8.1048,-8.1048,-8.0863,-8.0538,-7.9829,-7.9856,-7.9792,-8.0352,-8.1015,-8.2116,-8.331,-8.3926,-8.4742,-8.5486,-8.6061,-8.6636,-8.7245,-8.8091,-8.8666,-8.897,-8.9962,-9.1398,-9.2259,-9.2896,-9.4597,-9.6531,-3.9768,-3.9768,-3.9768,-3.9768,-3.9768,-3.9768,-4.0336,-4.1271,-4.2426,-4.3209,-4.34,-4.3001,-4.2059,-4.1094,-4.1464,-4.1674,-4.1724,-4.3032,-4.4167,-4.5255,-4.5891,-4.6525,-4.6617,-4.6672,-4.6544,-4.603,-4.5883,-4.5883,-4.5883,-4.5883,-4.5883,-4.5883,-4.5883,-4.5883,-4.5883,-4.5883,-4.5883,-4.6145,-4.6877,-4.8007,-4.985,-5.2007,-5.3965,-5.5178,-5.6746,-5.7328,-5.7514,-5.7514,-5.7514,-5.7514,-5.7514,-5.7514,-5.7514,-5.7514,-5.7514,-5.7514,-5.7514,-5.7514,-5.7514,-5.7514,-5.7514,-5.7514,-5.77,-5.8418,-6.0544,-6.3025,-6.5667,-6.8487,-6.8847,-6.8847,-6.8847,-6.8847,-6.8847,-6.8847,-6.8847,-6.8847,-6.8847,-6.8847,-6.8847,-6.932,-7.0091,-7.2403,-7.4561,-7.608,-7.7769,-7.987,-8.1048,-8.1048,-8.1048,-8.1048,-8.1048,-8.1017,-8.06,-8.0088,-8.0475,-8.0807,-8.1303,-8.2115,-8.3087,-8.4035,-8.4251,-8.4945,-8.5554,-8.6196,-8.6738,-8.7448,-8.8294,-8.8734,-8.9038,-9.0143,-9.1296,-9.2126,-9.3178,-9.4976,-9.6608,-3.9768,-3.9768,-3.9768,-3.9768,-3.9768,-3.9768,-4.0141,-4.0901,-4.2059,-4.3018,-4.3609,-4.34,-4.2251,-4.1304,-4.2268,-4.2703,-4.1469,-4.3852,-4.4676,-4.5381,-4.6073,-4.6889,-4.7057,-4.702,-4.6727,-4.603,-4.5938,-4.5902,-4.5883,-4.5883,-4.5883,-4.5883,-4.5883,-4.5883,-4.5883,-4.5883,-4.5883,-4.6108,-4.7422,-4.8704,-5.0259,-5.2784,-5.4548,-5.5676,-5.6681,-5.7514,-5.7514,-5.7514,-5.7514,-5.7514,-5.7514,-5.7514,-5.7514,-5.7514,-5.7514,-5.7514,-5.7514,-5.7514,-5.7514,-5.7514,-5.7514,-5.77,-5.8418,-5.9658,-6.2493,-6.4976,-6.672,-6.868,-6.8847,-6.8847,-6.8847,-6.8847,-6.8847,-6.8847,-6.8847,-6.8847,-6.8847,-6.8847,-6.9128,-6.9518,-7.0637,-7.2561,-7.4561,-7.6259,-7.809,-8.0322,-8.1048,-8.1048,-8.1048,-8.1048,-8.1048,-8.1186,-8.159,-8.0978,-8.0928,-8.1435,-8.2151,-8.2902,-8.3884,-8.45,-8.45,-8.4843,-8.5351,-8.5993,-8.6805,-8.7651,-8.8531,-8.8801,-8.9184,-9.0143,-9.1126,-9.2321,-9.3674,-9.5467,-9.6531,-3.9768,-3.9768,-3.9768,-3.9768,-3.9768,-3.9768,-3.9768,-4.0157,-4.1094,-4.2042,-4.3209,-4.3799,-4.3418,-4.3018,-4.3435,-4.4183,-4.45,-4.492,-4.5734,-4.6376,-4.6878,-4.7056,-4.7247,-4.7204,-4.6892,-4.6397,-4.614,-4.5975,-4.5883,-4.5883,-4.5883,-4.5883,-4.5883,-4.5883,-4.5883,-4.5883,-4.5883,-4.6259,-4.7664,-4.9346,-5.0835,-5.293,-5.4868,-5.6305,-5.7088,-5.7514,-5.7514,-5.7514,-5.7514,-5.7514,-5.7514,-5.7514,-5.7514,-5.7514,-5.7514,-5.7514,-5.7514,-5.7514,-5.7514,-5.7514,-5.7514,-5.8049,-5.9315,-6.1085,-6.3554,-6.5149,-6.6891,-6.8487,-6.868,-6.8847,-6.8847,-6.8847,-6.8847,-6.8847,-6.8847,-6.8847,-6.8847,-6.8847,-6.9267,-6.9768,-7.1202,-7.3164,-7.5173,-7.6885,-7.838,-8.0601,-8.1048,-8.1048,-8.1048,-8.1048,-8.1048,-8.1323,-8.2347,-8.2188,-8.1538,-8.2026,-8.3366,-8.362,-8.4069,-8.4392,-8.4606,-8.4911,-8.5148,-8.6129,-8.6974,-8.7854,-8.8598,-8.9014,-8.9407,-8.9996,-9.1022,-9.2742,-9.4123,-9.5668,-9.6416,-3.9768,-3.9768,-3.9768,-3.9768,-3.9768,-3.9768,-3.9768,-3.9963,-4.0901,-4.185,-4.281,-4.3799,-4.3799,-4.3591,-4.4578,-4.4774,-4.436,-4.5819,-4.6445,-4.6842,-4.7113,-4.7507,-4.7736,-4.7479,-4.713,-4.6617,-4.6305,-4.6085,-4.5902,-4.5902,-4.5883,-4.5883,-4.5883,-4.5883,-4.5883,-4.5883,-4.5883,-4.6635,-4.8127,-5.0131,-5.1229,-5.3514,-5.5462,-5.6587,-5.6902,-5.7252,-5.7448,-5.7514,-5.7514,-5.7514,-5.7514,-5.7514,-5.7514,-5.7514,-5.7514,-5.7514,-5.7514,-5.7514,-5.7514,-5.7514,-5.8071,-5.9475,-6.1085,-6.2848,-6.4604,-6.655,-6.7789,-6.868,-6.8847,-6.8847,-6.8847,-6.8847,-6.8847,-6.8847,-6.8847,-6.8847,-6.8847,-6.904,-6.9741,-7.0503,-7.192,-7.3661,-7.5657,-7.7475,-7.9129,-8.0771,-8.091,-8.1048,-8.1048,-8.1186,-8.1186,-8.1703,-8.2717,-8.3195,-8.255,-8.3378,-8.4603,-8.4367,-8.4285,-8.4392,-8.4606,-8.464,-8.5046,-8.6095,-8.7076,-8.7786,-8.8506,-8.9126,-8.9628,-9.003,-9.1534,-9.3583,-9.4891,-9.6027,-9.6338,-3.9768,-3.9768,-3.9768,-3.9768,-3.9768,-3.9768,-3.9768,-3.9947,-4.0513,-4.1657,-4.2827,-4.3799,-4.418,-4.418,-4.5083,-4.5716,-4.5362,-4.6319,-4.6912,-4.7256,-4.7707,-4.8102,-4.7919,-4.7681,-4.7387,-4.6855,-4.6525,-4.6305,-4.6103,-4.5957,-4.5902,-4.5883,-4.5883,-4.5883,-4.5883,-4.5883,-4.6072,-4.7177,-4.8848,-5.0763,-5.1637,-5.3868,-5.5723,-5.6487,-5.6727,-5.7099,-5.7383,-5.7514,-5.7514,-5.7514,-5.7514,-5.7514,-5.7514,-5.7514,-5.7514,-5.7514,-5.7514,-5.7514,-5.7514,-5.77,-5.8418,-6.0022,-6.1959,-6.3905,-6.5839,-6.762,-6.8654,-6.868,-6.8847,-6.8847,-6.8847,-6.8847,-6.8847,-6.8847,-6.8847,-6.8847,-6.9066,-6.9399,-7.026,-7.1219,-7.3041,-7.4896,-7.6707,-7.8669,-7.9728,-8.091,-8.091,-8.1048,-8.1048,-8.1186,-8.1461,-8.2213,-8.3214,-8.348,-8.3626,-8.4639,-8.5527,-8.453,-8.4392,-8.45,-8.4606,-8.4606,-8.5148,-8.6332,-8.7177,-8.7795,-8.8626,-8.9491,-8.9771,-8.999,-9.197,-9.407,-9.5467,-9.6416,-9.6531,-3.9768,-3.9768,-3.9768,-3.9768,-3.9768,-3.9768,-3.9768,-3.9768,-3.9947,-4.1094,-4.2827,-4.399,-4.4939,-4.5579,-4.6195,-4.6389,-4.6616,-4.7229,-4.7631,-4.7941,-4.8033,-4.8249,-4.8121,-4.7901,-4.7681,-4.7479,-4.7057,-4.6654,-4.6397,-4.614,-4.5993,-4.5902,-4.5883,-4.5883,-4.5883,-4.5883,-4.6635,-4.8088,-4.9564,-5.0884,-5.2458,-5.4216,-5.539,-5.605,-5.6487,-5.6902,-5.7252,-5.7492,-5.7514,-5.7514,-5.7514,-5.7514,-5.7514,-5.7514,-5.7514,-5.7514,-5.7514,-5.7514,-5.7514,-5.7514,-5.8764,-6.0567,-6.2493,-6.408,-6.6011,-6.762,-6.8847,-6.8847,-6.8847,-6.8847,-6.8847,-6.8847,-6.8847,-6.8847,-6.8847,-6.9066,-6.9285,-6.973,-7.0772,-7.2027,-7.4192,-7.623,-7.8206,-7.987,-8.0462,-8.1048,-8.1048,-8.1048,-8.1048,-8.1186,-8.1461,-8.2615,-8.3574,-8.3983,-8.451,-8.5825,-8.6324,-8.5249,-8.4606,-8.4606,-8.4606,-8.4606,-8.5384,-8.6569,-8.7219,-8.7811,-8.8811,-8.9956,-9.046,-9.123,-9.2559,-9.4408,-9.5785,-9.6722,-9.6722,-3.9768,-3.9768,-3.9768,-3.9768,-3.9768,-3.9768,-3.9768,-3.9963,-4.053,-4.1481,-4.2827,-4.399,-4.4957,-4.5823,-4.6324,-4.6727,-4.713,-4.7516,-4.7919,-4.8249,-4.8286,-4.8286,-4.8212,-4.8121,-4.7937,-4.7699,-4.7314,-4.6874,-4.647,-4.625,-4.6085,-4.5975,-4.6072,-4.5883,-4.5883,-4.6072,-4.6635,-4.8107,-4.9564,-5.1046,-5.2513,-5.4137,-5.5155,-5.5657,-5.6138,-5.6596,-5.7077,-5.7317,-5.7514,-5.7514,-5.7514,-5.7514,-5.7514,-5.7514,-5.7514,-5.7514,-5.7514,-5.7514,-5.7885,-5.8603,-6.0386,-6.1803,-6.3025,-6.4777,-6.7425,-6.8319,-6.868,-6.8847,-6.8847,-6.8847,-6.8847,-6.8847,-6.8847,-6.8847,-6.904,-6.9285,-6.967,-7.0171,-7.1014,-7.2805,-7.4787,-7.7386,-7.9557,-8.0182,-8.091,-8.1048,-8.1048,-8.1048,-8.1048,-8.1186,-8.1461,-8.2849,-8.3963,-8.4569,-8.5299,-8.6265,-8.6155,-8.5046,-8.4606,-8.4606,-8.4606,-8.4606,-8.5492,-8.665,-8.7165,-8.7823,-8.9243,-9.0638,-9.1705,-9.2752,-9.3836,-9.4878,-9.6143,-9.6722,-9.6722,-3.9768,-3.9768,-3.9768,-3.9768,-3.9768,-3.9768,-3.9768,-3.9947,-4.0513,-4.1481,-4.2827,-4.3609,-4.4649,-4.5797,-4.6507,-4.691,-4.7332,-4.7717,-4.7956,-4.8286,-4.8286,-4.8286,-4.8286,-4.8267,-4.8139,-4.7882,-4.7552,-4.7149,-4.6727,-4.6397,-4.614,-4.6127,-4.6447,-4.6803,-4.6616,-4.6635,-4.699,-4.8459,-5.0114,-5.1388,-5.303,-5.4207,-5.4914,-5.5395,-5.5875,-5.6334,-5.6793,-5.7186,-5.7514,-5.7514,-5.7514,-5.7514,-5.7514,-5.7514,-5.7514,-5.7514,-5.7514,-5.7514,-5.7885,-5.9315,-6.0905,-6.2848,-6.3729,-6.5667,-6.7957,-6.868,-6.868,-6.8847,-6.8847,-6.8847,-6.8847,-6.8847,-6.8847,-6.8847,-6.9206,-6.9451,-6.9922,-7.0608,-7.2375,-7.3965,-7.6006,-7.8543,-8.0322,-8.0601,-8.1048,-8.1048,-8.1048,-8.1048,-8.1048,-8.1186,-8.1703,-8.3245,-8.4314,-8.5,-8.56,-8.6422,-8.5952,-8.4843,-8.4606,-8.4606,-8.464,-8.4781,-8.5701,-8.6661,-8.7352,-8.832,-8.9913,-9.1332,-9.2462,-9.3654,-9.4756,-9.5704,-9.6608,-9.6722,-9.6722,-3.9768,-3.9768,-3.9768,-3.9768,-3.9768,-3.9768,-3.9768,-3.9768,-3.9979,-4.116,-4.2878,-4.3121,-4.4672,-4.6353,-4.6929,-4.7295,-4.7644,-4.8047,-4.8194,-4.8267,-4.8286,-4.8286,-4.8286,-4.8267,-4.8231,-4.7992,-4.7662,-4.7277,-4.7002,-4.6722,-4.6333,-4.6635,-4.7736,-4.8088,-4.7717,-4.755,-4.8273,-4.9931,-5.0661,-5.2132,-5.3922,-5.4475,-5.4871,-5.5286,-5.5788,-5.6247,-5.6727,-5.7164,-5.7448,-5.7514,-5.7514,-5.7514,-5.7514,-5.7514,-5.7514,-5.7514,-5.7514,-5.7514,-5.7885,-5.9498,-6.1265,-6.3201,-6.5149,-6.6891,-6.8125,-6.8847,-6.8847,-6.8847,-6.8847,-6.8847,-6.8847,-6.8847,-6.8847,-6.9014,-6.932,-6.9842,-7.0472,-7.166,-7.376,-7.5606,-7.7561,-7.9557,-8.0601,-8.1048,-8.1048,-8.1048,-8.1048,-8.1048,-8.1048,-8.1048,-8.1943,-8.3736,-8.4722,-8.5495,-8.6114,-8.6422,-8.5952,-8.4877,-8.464,-8.4606,-8.4747,-8.4921,-8.5709,-8.6534,-8.7604,-8.8742,-9.0019,-9.1696,-9.332,-9.4408,-9.5217,-9.6064,-9.6722,-9.6722,-9.6722,-3.9768,-3.9768,-3.9768,-3.9768,-3.9768,-3.9768,-3.9768,-3.9979,-4.1552,-4.2901,-4.3266,-4.5133,-4.5994,-4.6965,-4.7351,-4.7571,-4.7809,-4.8066,-4.8212,-4.8286,-4.8286,-4.8286,-4.8286,-4.8286,-4.8286,-4.8102,-4.7754,-4.7277,-4.7313,-4.7196,-4.8088,-4.9197,-4.938,-4.9564,-4.9564,-4.9197,-5.0479,-5.1207,-5.1771,-5.2851,-5.4121,-5.4652,-5.4827,-5.5111,-5.5744,-5.6181,-5.6509,-5.7164,-5.7448,-5.7514,-5.7514,-5.7514,-5.7514,-5.7514,-5.7514,-5.7514,-5.7514,-5.7514,-5.8049,-6.0544,-6.2671,-6.3729,-6.6011,-6.7789,-6.868,-6.8847,-6.8847,-6.8847,-6.8847,-6.8847,-6.8847,-6.8847,-6.8847,-6.9014,-6.9485,-7.0091,-7.088,-7.2719,-7.4658,-7.6946,-7.8949,-8.0011,-8.1048,-8.1048,-8.1048,-8.1048,-8.1048,-8.1048,-8.1048,-8.1048,-8.1839,-8.3606,-8.4786,-8.5351,-8.5782,-8.6142,-8.5599,-8.508,-8.4809,-8.4606,-8.4747,-8.4988,-8.5505,-8.6505,-8.7676,-8.8708,-8.9743,-9.1474,-9.3495,-9.4372,-9.5133,-9.6064,-9.6722,-9.6722,-9.6612,-3.9768,-3.9768,-3.9768,-3.9768,-3.9768,-3.9768,-3.9768,-4.0432,-4.2074,-4.319,-4.435,-4.5718,-4.6798,-4.7369,-4.7589,-4.7772,-4.7974,-4.8157,-4.8286,-4.8286,-4.8286,-4.8286,-4.8286,-4.8267,-4.8157,-4.7992,-4.7839,-4.7535,-4.7911,-4.8531,-4.9544,-5.0114,-5.0661,-5.1025,-5.1207,-5.175,-5.2471,-5.2851,-5.303,-5.3566,-5.4142,-5.4696,-5.4761,-5.5067,-5.5788,-5.6116,-5.6443,-5.7186,-5.7448,-5.7514,-5.7514,-5.7514,-5.7514,-5.7514,-5.7514,-5.7514,-5.7514,-5.7514,-5.8049,-6.1085,-6.2493,-6.408,-6.655,-6.8319,-6.868,-6.8847,-6.8847,-6.8847,-6.8847,-6.8847,-6.8847,-6.8847,-6.8847,-6.8847,-6.9598,-7.0501,-7.1898,-7.3605,-7.5757,-7.8022,-7.9456,-8.054,-8.1048,-8.1048,-8.1048,-8.1048,-8.1048,-8.1048,-8.1048,-8.1048,-8.1839,-8.3245,-8.4314,-8.5115,-8.5465,-8.5671,-8.5599,-8.5215,-8.4776,-8.4606,-8.4606,-8.506,-8.5752,-8.6679,-8.7848,-8.8743,-8.9536,-9.1512,-9.33,-9.4136,-9.5036,-9.5997,-9.6612,-9.6722,-9.6539,-3.9768,-3.9768,-3.9768,-3.9768,-3.9768,-3.98,-4.0254,-4.0708,-4.1833,-4.341,-4.52,-4.5718,-4.6662,-4.7717,-4.7827,-4.7974,-4.8121,-4.8267,-4.8286,-4.8286,-4.8286,-4.8286,-4.8286,-4.8267,-4.8102,-4.7717,-4.7508,-4.7716,-4.8891,-4.9947,-5.0661,-5.0661,-5.1951,-5.2671,-5.2851,-5.3566,-5.3986,-5.4137,-5.3758,-5.3758,-5.4472,-5.4827,-5.498,-5.5439,-5.5941,-5.6378,-5.6793,-5.7186,-5.7514,-5.7514,-5.7514,-5.7514,-5.7514,-5.7514,-5.7514,-5.7514,-5.7514,-5.7514,-5.8418,-6.1062,-6.2671,-6.4429,-6.655,-6.8151,-6.8847,-6.8847,-6.8847,-6.8847,-6.8847,-6.8847,-6.8847,-6.8847,-6.8847,-6.9014,-6.9624,-7.0826,-7.2134,-7.4476,-7.724,-7.9233,-8.0139,-8.1048,-8.1048,-8.1048,-8.1048,-8.1048,-8.1048,-8.1048,-8.1048,-8.1048,-8.1703,-8.2717,-8.4091,-8.4992,-8.4826,-8.5197,-8.5633,-8.5384,-8.4843,-8.4713,-8.4853,-8.527,-8.596,-8.6885,-8.7672,-8.8496,-8.9453,-9.1445,-9.3012,-9.3596,-9.4648,-9.5936,-9.6392,-9.6282,-9.6245,-3.9768,-3.9768,-3.9768,-3.9768,-3.98,-4.0054,-4.1212,-4.3139,-4.3631,-4.4265,-4.5177,-4.6628,-4.7814,-4.8066,-4.8084,-4.8194,-4.8249,-4.8286,-4.8286,-4.8286,-4.8286,-4.8286,-4.8286,-4.8267,-4.8047,-4.7699,-4.7628,-4.8367,-4.9901,-5.1289,-5.2492,-5.3387,-5.3943,-5.3943,-5.3943,-5.4652,-5.4783,-5.5089,-5.4841,-5.4705,-5.5107,-5.5592,-5.5875,-5.6072,-5.6378,-5.6618,-5.6968,-5.7252,-5.7448,-5.7514,-5.7514,-5.7514,-5.7514,-5.7514,-5.7514,-5.7514,-5.77,-5.7885,-5.8764,-6.1062,-6.3201,-6.4429,-6.6379,-6.7957,-6.8847,-6.8847,-6.8847,-6.8847,-6.8847,-6.8847,-6.8847,-6.8847,-6.8847,-6.918,-6.9651,-7.1123,-7.2581,-7.5693,-7.8813,-8.0011,-8.091,-8.1048,-8.1048,-8.1048,-8.1048,-8.1048,-8.1048,-8.1048,-8.1048,-8.1048,-8.1323,-8.2316,-8.4059,-8.4836,-8.4609,-8.495,-8.5641,-8.5531,-8.4954,-8.4958,-8.4958,-8.5445,-8.6062,-8.6705,-8.7518,-8.8224,-8.9436,-9.1336,-9.2544,-9.3254,-9.3969,-9.5248,-9.518,-9.5034,-9.529,-3.9768,-3.9768,-3.9768,-3.9863,-4.0022,-4.0213,-4.121,-4.2887,-4.4101,-4.4669,-4.5049,-4.7041,-4.8286,-4.8286,-4.8286,-4.8286,-4.8286,-4.8286,-4.8286,-4.8286,-4.8286,-4.8286,-4.8286,-4.8267,-4.7846,-4.7674,-4.8519,-4.959,-5.1086,-5.265,-5.4099,-5.4652,-5.4652,-5.4652,-5.4652,-5.4696,-5.4914,-5.5351,-5.557,-5.5788,-5.5875,-5.6116,-5.629,-5.6422,-5.664,-5.688,-5.7164,-5.7405,-5.7448,-5.7514,-5.7514,-5.7514,-5.7514,-5.7514,-5.7514,-5.7885,-5.8234,-5.8764,-5.984,-6.178,-6.408,-6.5322,-6.672,-6.868,-6.8847,-6.8847,-6.8847,-6.8847,-6.8847,-6.8847,-6.8847,-6.8847,-6.8847,-6.9014,-6.998,-7.1338,-7.4197,-7.7563,-7.9587,-8.0601,-8.1048,-8.1048,-8.1048,-8.1048,-8.1048,-8.1048,-8.1048,-8.1048,-8.1048,-8.143,-8.1566,-8.2191,-8.3963,-8.4822,-8.4885,-8.5303,-8.5864,-8.5641,-8.5202,-8.5273,-8.548,-8.5686,-8.6128,-8.6666,-8.7309,-8.8133,-8.9443,-9.1125,-9.2228,-9.2879,-9.3637,-9.4446,-9.4153,-9.3896,-9.4079,-3.9768,-3.9768,-3.9816,-4.0006,-4.0292,-4.0403,-4.0825,-4.1961,-4.3856,-4.4989,-4.5603,-4.7527,-4.8267,-4.8286,-4.8286,-4.8286,-4.8286,-4.8286,-4.8286,-4.8286,-4.8286,-4.8286,-4.8286,-4.8231,-4.7987,-4.8497,-4.9305,-5.0802,-5.2333,-5.3566,-5.4475,-5.4652,-5.4652,-5.4652,-5.4652,-5.4718,-5.4914,-5.5482,-5.5897,-5.6356,-5.6487,-5.6531,-5.6662,-5.6793,-5.6924,-5.7121,-5.7405,-5.7514,-5.7514,-5.7514,-5.7514,-5.7514,-5.7514,-5.7514,-5.7514,-5.7885,-5.9132,-5.984,-6.0905,-6.3378,-6.4976,-6.6379,-6.7957,-6.868,-6.8847,-6.8847,-6.8847,-6.8847,-6.8847,-6.8847,-6.8847,-6.8847,-6.8847,-6.9293,-7.0582,-7.2007,-7.5657,-7.8986,-8.0151,-8.1048,-8.1048,-8.1048,-8.1048,-8.1048,-8.1048,-8.1048,-8.1048,-8.1048,-8.1323,-8.1943,-8.2347,-8.2964,-8.4112,-8.4806,-8.5053,-8.5504,-8.6049,-8.575,-8.5377,-8.5686,-8.589,-8.5992,-8.6194,-8.6394,-8.7091,-8.8223,-8.9302,-9.0679,-9.166,-9.2518,-9.2811,-9.3345,-9.3345,-9.3125,-9.2978,-3.9768,-3.9784,-4.007,-4.0245,-4.0388,-4.0864,-4.1601,-4.277,-4.4228,-4.5587,-4.6405,-4.7419,-4.8286,-4.8286,-4.8286,-4.8286,-4.8286,-4.8286,-4.8286,-4.8286,-4.8286,-4.8286,-4.8447,-4.8552,-4.8517,-4.9244,-5.0278,-5.1413,-5.2914,-5.4121,-5.4652,-5.4652,-5.4652,-5.4652,-5.4652,-5.4761,-5.5045,-5.5635,-5.6072,-5.6465,-5.7142,-5.7252,-5.7295,-5.7383,-5.7383,-5.7448,-5.7514,-5.7514,-5.7514,-5.7514,-5.7514,-5.7514,-5.7514,-5.7514,-5.7514,-5.8049,-5.9498,-6.0567,-6.1982,-6.4604,-6.6036,-6.655,-6.7957,-6.868,-6.8847,-6.8847,-6.8847,-6.9014,-6.9014,-6.932,-6.932,-6.932,-6.9485,-7.0392,-7.166,-7.3661,-7.6558,-7.8956,-8.0771,-8.1048,-8.1048,-8.1048,-8.1048,-8.1048,-8.1048,-8.1048,-8.1048,-8.1048,-8.1186,-8.2078,-8.3114,-8.3801,-8.4463,-8.4814,-8.5216,-8.5667,-8.5985,-8.5718,-8.5686,-8.589,-8.6093,-8.6194,-8.6394,-8.6494,-8.7527,-8.8778,-8.9778,-9.0513,-9.1287,-9.2089,-9.1984,-9.217,-9.2281,-9.2501,-9.2464]}]]